<?xml version="1.0" encoding="UTF-8" standalone="no" ?>
<gpx xmlns="http://www.topografix.com/GPX/1/1" xmlns:xsi="http://www.w3.org/2001/XMLSchema-instance" xsi:schemaLocation="http://www.topografix.com/GPX/1/1 http://www.topografix.com/GPX/1/1/gpx.xsd" version="1.1" creator="VisuGPX - https://www.visugpx.com">
  <metadata>
    <name>Malesherbes 2011</name>
    <desc><![CDATA[le 45 km de malesherbes 2011]]></desc>
  </metadata>
  <trk>
    <name><![CDATA[30-JAN-11 11:36:08 AM]]></name>
    <trkseg>
      <trkpt lat="48.29766" lon="2.4003">
        <ele>78.48</ele>
        <time>2011-01-30T07:22:35Z</time>
      </trkpt>
      <trkpt lat="48.29765" lon="2.40034">
        <ele>78.97</ele>
        <time>2011-01-30T07:22:36Z</time>
      </trkpt>
      <trkpt lat="48.29765" lon="2.40038">
        <ele>81.85</ele>
        <time>2011-01-30T07:22:42Z</time>
      </trkpt>
      <trkpt lat="48.29765" lon="2.40038">
        <ele>84.25</ele>
        <time>2011-01-30T07:22:45Z</time>
      </trkpt>
      <trkpt lat="48.29763" lon="2.40041">
        <ele>85.21</ele>
        <time>2011-01-30T07:22:47Z</time>
      </trkpt>
      <trkpt lat="48.29763" lon="2.4004">
        <ele>88.58</ele>
        <time>2011-01-30T07:22:50Z</time>
      </trkpt>
      <trkpt lat="48.29763" lon="2.40039">
        <ele>88.58</ele>
        <time>2011-01-30T07:22:51Z</time>
      </trkpt>
      <trkpt lat="48.29764" lon="2.4004">
        <ele>90.5</ele>
        <time>2011-01-30T07:22:54Z</time>
      </trkpt>
      <trkpt lat="48.29766" lon="2.40057">
        <ele>93.87</ele>
        <time>2011-01-30T07:23:01Z</time>
      </trkpt>
      <trkpt lat="48.2976" lon="2.40058">
        <ele>94.83</ele>
        <time>2011-01-30T07:23:04Z</time>
      </trkpt>
      <trkpt lat="48.29753" lon="2.40054">
        <ele>96.75</ele>
        <time>2011-01-30T07:23:07Z</time>
      </trkpt>
      <trkpt lat="48.29745" lon="2.40031">
        <ele>98.19</ele>
        <time>2011-01-30T07:23:13Z</time>
      </trkpt>
      <trkpt lat="48.2974" lon="2.40019">
        <ele>99.15</ele>
        <time>2011-01-30T07:23:15Z</time>
      </trkpt>
      <trkpt lat="48.29737" lon="2.40012">
        <ele>99.15</ele>
        <time>2011-01-30T07:23:16Z</time>
      </trkpt>
      <trkpt lat="48.29732" lon="2.39997">
        <ele>99.63</ele>
        <time>2011-01-30T07:23:18Z</time>
      </trkpt>
      <trkpt lat="48.29721" lon="2.3996">
        <ele>103.48</ele>
        <time>2011-01-30T07:23:23Z</time>
      </trkpt>
      <trkpt lat="48.29719" lon="2.39954">
        <ele>100.11</ele>
        <time>2011-01-30T07:23:24Z</time>
      </trkpt>
      <trkpt lat="48.2971" lon="2.39937">
        <ele>101.56</ele>
        <time>2011-01-30T07:23:28Z</time>
      </trkpt>
      <trkpt lat="48.29707" lon="2.39938">
        <ele>101.56</ele>
        <time>2011-01-30T07:23:29Z</time>
      </trkpt>
      <trkpt lat="48.29704" lon="2.39942">
        <ele>101.56</ele>
        <time>2011-01-30T07:23:30Z</time>
      </trkpt>
      <trkpt lat="48.29701" lon="2.39945">
        <ele>101.56</ele>
        <time>2011-01-30T07:23:31Z</time>
      </trkpt>
      <trkpt lat="48.29696" lon="2.3995">
        <ele>101.56</ele>
        <time>2011-01-30T07:23:32Z</time>
      </trkpt>
      <trkpt lat="48.29692" lon="2.39956">
        <ele>101.56</ele>
        <time>2011-01-30T07:23:33Z</time>
      </trkpt>
      <trkpt lat="48.29689" lon="2.39962">
        <ele>102.52</ele>
        <time>2011-01-30T07:23:34Z</time>
      </trkpt>
      <trkpt lat="48.29685" lon="2.39968">
        <ele>102.52</ele>
        <time>2011-01-30T07:23:35Z</time>
      </trkpt>
      <trkpt lat="48.29678" lon="2.39977">
        <ele>102.52</ele>
        <time>2011-01-30T07:23:37Z</time>
      </trkpt>
      <trkpt lat="48.29674" lon="2.39981">
        <ele>102.52</ele>
        <time>2011-01-30T07:23:38Z</time>
      </trkpt>
      <trkpt lat="48.2967" lon="2.39982">
        <ele>103</ele>
        <time>2011-01-30T07:23:39Z</time>
      </trkpt>
      <trkpt lat="48.29665" lon="2.39982">
        <ele>103</ele>
        <time>2011-01-30T07:23:40Z</time>
      </trkpt>
      <trkpt lat="48.2966" lon="2.39982">
        <ele>103</ele>
        <time>2011-01-30T07:23:41Z</time>
      </trkpt>
      <trkpt lat="48.29655" lon="2.39984">
        <ele>103</ele>
        <time>2011-01-30T07:23:42Z</time>
      </trkpt>
      <trkpt lat="48.2965" lon="2.39987">
        <ele>103.48</ele>
        <time>2011-01-30T07:23:43Z</time>
      </trkpt>
      <trkpt lat="48.29646" lon="2.39992">
        <ele>103</ele>
        <time>2011-01-30T07:23:44Z</time>
      </trkpt>
      <trkpt lat="48.29642" lon="2.39999">
        <ele>103</ele>
        <time>2011-01-30T07:23:45Z</time>
      </trkpt>
      <trkpt lat="48.2964" lon="2.40007">
        <ele>103.48</ele>
        <time>2011-01-30T07:23:46Z</time>
      </trkpt>
      <trkpt lat="48.29637" lon="2.40015">
        <ele>103.48</ele>
        <time>2011-01-30T07:23:47Z</time>
      </trkpt>
      <trkpt lat="48.29634" lon="2.40022">
        <ele>103.48</ele>
        <time>2011-01-30T07:23:48Z</time>
      </trkpt>
      <trkpt lat="48.29631" lon="2.4003">
        <ele>103.48</ele>
        <time>2011-01-30T07:23:49Z</time>
      </trkpt>
      <trkpt lat="48.29628" lon="2.40037">
        <ele>103.96</ele>
        <time>2011-01-30T07:23:50Z</time>
      </trkpt>
      <trkpt lat="48.29622" lon="2.40051">
        <ele>104.92</ele>
        <time>2011-01-30T07:23:52Z</time>
      </trkpt>
      <trkpt lat="48.29614" lon="2.4007">
        <ele>104.92</ele>
        <time>2011-01-30T07:23:55Z</time>
      </trkpt>
      <trkpt lat="48.2961" lon="2.40074">
        <ele>105.4</ele>
        <time>2011-01-30T07:23:56Z</time>
      </trkpt>
      <trkpt lat="48.29606" lon="2.40077">
        <ele>105.88</ele>
        <time>2011-01-30T07:23:57Z</time>
      </trkpt>
      <trkpt lat="48.29597" lon="2.40079">
        <ele>106.36</ele>
        <time>2011-01-30T07:23:59Z</time>
      </trkpt>
      <trkpt lat="48.29592" lon="2.40078">
        <ele>106.36</ele>
        <time>2011-01-30T07:24:00Z</time>
      </trkpt>
      <trkpt lat="48.29568" lon="2.40072">
        <ele>106.36</ele>
        <time>2011-01-30T07:24:05Z</time>
      </trkpt>
      <trkpt lat="48.29552" lon="2.40073">
        <ele>106.84</ele>
        <time>2011-01-30T07:24:08Z</time>
      </trkpt>
      <trkpt lat="48.29532" lon="2.40076">
        <ele>107.32</ele>
        <time>2011-01-30T07:24:12Z</time>
      </trkpt>
      <trkpt lat="48.29527" lon="2.40077">
        <ele>107.81</ele>
        <time>2011-01-30T07:24:13Z</time>
      </trkpt>
      <trkpt lat="48.29501" lon="2.40084">
        <ele>107.81</ele>
        <time>2011-01-30T07:24:18Z</time>
      </trkpt>
      <trkpt lat="48.29464" lon="2.40105">
        <ele>107.81</ele>
        <time>2011-01-30T07:24:26Z</time>
      </trkpt>
      <trkpt lat="48.29459" lon="2.40108">
        <ele>108.29</ele>
        <time>2011-01-30T07:24:27Z</time>
      </trkpt>
      <trkpt lat="48.29451" lon="2.40114">
        <ele>107.81</ele>
        <time>2011-01-30T07:24:29Z</time>
      </trkpt>
      <trkpt lat="48.29447" lon="2.40118">
        <ele>108.29</ele>
        <time>2011-01-30T07:24:30Z</time>
      </trkpt>
      <trkpt lat="48.29444" lon="2.40122">
        <ele>107.81</ele>
        <time>2011-01-30T07:24:31Z</time>
      </trkpt>
      <trkpt lat="48.2944" lon="2.40125">
        <ele>107.81</ele>
        <time>2011-01-30T07:24:32Z</time>
      </trkpt>
      <trkpt lat="48.29436" lon="2.40127">
        <ele>107.81</ele>
        <time>2011-01-30T07:24:33Z</time>
      </trkpt>
      <trkpt lat="48.29431" lon="2.40129">
        <ele>107.32</ele>
        <time>2011-01-30T07:24:34Z</time>
      </trkpt>
      <trkpt lat="48.29427" lon="2.4013">
        <ele>107.81</ele>
        <time>2011-01-30T07:24:35Z</time>
      </trkpt>
      <trkpt lat="48.29422" lon="2.40131">
        <ele>107.32</ele>
        <time>2011-01-30T07:24:36Z</time>
      </trkpt>
      <trkpt lat="48.29418" lon="2.40134">
        <ele>107.32</ele>
        <time>2011-01-30T07:24:37Z</time>
      </trkpt>
      <trkpt lat="48.29414" lon="2.40139">
        <ele>107.81</ele>
        <time>2011-01-30T07:24:38Z</time>
      </trkpt>
      <trkpt lat="48.29411" lon="2.40143">
        <ele>107.32</ele>
        <time>2011-01-30T07:24:39Z</time>
      </trkpt>
      <trkpt lat="48.29407" lon="2.40147">
        <ele>108.29</ele>
        <time>2011-01-30T07:24:40Z</time>
      </trkpt>
      <trkpt lat="48.29402" lon="2.4015">
        <ele>107.81</ele>
        <time>2011-01-30T07:24:41Z</time>
      </trkpt>
      <trkpt lat="48.29329" lon="2.40194">
        <ele>108.29</ele>
        <time>2011-01-30T07:24:56Z</time>
      </trkpt>
      <trkpt lat="48.29314" lon="2.40206">
        <ele>107.81</ele>
        <time>2011-01-30T07:24:59Z</time>
      </trkpt>
      <trkpt lat="48.29309" lon="2.40209">
        <ele>108.29</ele>
        <time>2011-01-30T07:25:00Z</time>
      </trkpt>
      <trkpt lat="48.29304" lon="2.40211">
        <ele>108.29</ele>
        <time>2011-01-30T07:25:01Z</time>
      </trkpt>
      <trkpt lat="48.29298" lon="2.40212">
        <ele>107.81</ele>
        <time>2011-01-30T07:25:02Z</time>
      </trkpt>
      <trkpt lat="48.29293" lon="2.40213">
        <ele>108.29</ele>
        <time>2011-01-30T07:25:03Z</time>
      </trkpt>
      <trkpt lat="48.29287" lon="2.40213">
        <ele>108.29</ele>
        <time>2011-01-30T07:25:04Z</time>
      </trkpt>
      <trkpt lat="48.29196" lon="2.40226">
        <ele>107.32</ele>
        <time>2011-01-30T07:25:20Z</time>
      </trkpt>
      <trkpt lat="48.2911" lon="2.40216">
        <ele>107.81</ele>
        <time>2011-01-30T07:25:35Z</time>
      </trkpt>
      <trkpt lat="48.28994" lon="2.40171">
        <ele>108.29</ele>
        <time>2011-01-30T07:25:57Z</time>
      </trkpt>
      <trkpt lat="48.28898" lon="2.40136">
        <ele>107.81</ele>
        <time>2011-01-30T07:26:15Z</time>
      </trkpt>
      <trkpt lat="48.28801" lon="2.40107">
        <ele>107.81</ele>
        <time>2011-01-30T07:26:34Z</time>
      </trkpt>
      <trkpt lat="48.28775" lon="2.40101">
        <ele>108.29</ele>
        <time>2011-01-30T07:26:39Z</time>
      </trkpt>
      <trkpt lat="48.28681" lon="2.4005">
        <ele>106.36</ele>
        <time>2011-01-30T07:26:57Z</time>
      </trkpt>
      <trkpt lat="48.28571" lon="2.39987">
        <ele>105.88</ele>
        <time>2011-01-30T07:27:18Z</time>
      </trkpt>
      <trkpt lat="48.28463" lon="2.39928">
        <ele>104.44</ele>
        <time>2011-01-30T07:27:37Z</time>
      </trkpt>
      <trkpt lat="48.28359" lon="2.39876">
        <ele>102.52</ele>
        <time>2011-01-30T07:27:56Z</time>
      </trkpt>
      <trkpt lat="48.28338" lon="2.39862">
        <ele>102.04</ele>
        <time>2011-01-30T07:28:00Z</time>
      </trkpt>
      <trkpt lat="48.28246" lon="2.39814">
        <ele>100.6</ele>
        <time>2011-01-30T07:28:15Z</time>
      </trkpt>
      <trkpt lat="48.28224" lon="2.39802">
        <ele>100.6</ele>
        <time>2011-01-30T07:28:19Z</time>
      </trkpt>
      <trkpt lat="48.28199" lon="2.39785">
        <ele>100.6</ele>
        <time>2011-01-30T07:28:24Z</time>
      </trkpt>
      <trkpt lat="48.28194" lon="2.39782">
        <ele>101.08</ele>
        <time>2011-01-30T07:28:25Z</time>
      </trkpt>
      <trkpt lat="48.28184" lon="2.39778">
        <ele>100.6</ele>
        <time>2011-01-30T07:28:27Z</time>
      </trkpt>
      <trkpt lat="48.28179" lon="2.39775">
        <ele>100.6</ele>
        <time>2011-01-30T07:28:28Z</time>
      </trkpt>
      <trkpt lat="48.28149" lon="2.3976">
        <ele>101.08</ele>
        <time>2011-01-30T07:28:34Z</time>
      </trkpt>
      <trkpt lat="48.28144" lon="2.39758">
        <ele>100.6</ele>
        <time>2011-01-30T07:28:35Z</time>
      </trkpt>
      <trkpt lat="48.28083" lon="2.39727">
        <ele>100.6</ele>
        <time>2011-01-30T07:28:47Z</time>
      </trkpt>
      <trkpt lat="48.28032" lon="2.39702">
        <ele>100.6</ele>
        <time>2011-01-30T07:28:57Z</time>
      </trkpt>
      <trkpt lat="48.28022" lon="2.39698">
        <ele>101.08</ele>
        <time>2011-01-30T07:28:59Z</time>
      </trkpt>
      <trkpt lat="48.27948" lon="2.39658">
        <ele>99.15</ele>
        <time>2011-01-30T07:29:14Z</time>
      </trkpt>
      <trkpt lat="48.27943" lon="2.39655">
        <ele>99.15</ele>
        <time>2011-01-30T07:29:15Z</time>
      </trkpt>
      <trkpt lat="48.27899" lon="2.39634">
        <ele>99.15</ele>
        <time>2011-01-30T07:29:24Z</time>
      </trkpt>
      <trkpt lat="48.2788" lon="2.39634">
        <ele>98.19</ele>
        <time>2011-01-30T07:29:28Z</time>
      </trkpt>
      <trkpt lat="48.27875" lon="2.39636">
        <ele>98.19</ele>
        <time>2011-01-30T07:29:29Z</time>
      </trkpt>
      <trkpt lat="48.27871" lon="2.39638">
        <ele>98.19</ele>
        <time>2011-01-30T07:29:30Z</time>
      </trkpt>
      <trkpt lat="48.27866" lon="2.39641">
        <ele>97.71</ele>
        <time>2011-01-30T07:29:31Z</time>
      </trkpt>
      <trkpt lat="48.27861" lon="2.39642">
        <ele>98.19</ele>
        <time>2011-01-30T07:29:32Z</time>
      </trkpt>
      <trkpt lat="48.27856" lon="2.39643">
        <ele>97.71</ele>
        <time>2011-01-30T07:29:33Z</time>
      </trkpt>
      <trkpt lat="48.27851" lon="2.39644">
        <ele>97.71</ele>
        <time>2011-01-30T07:29:34Z</time>
      </trkpt>
      <trkpt lat="48.27798" lon="2.39666">
        <ele>96.75</ele>
        <time>2011-01-30T07:29:45Z</time>
      </trkpt>
      <trkpt lat="48.27793" lon="2.39664">
        <ele>97.23</ele>
        <time>2011-01-30T07:29:46Z</time>
      </trkpt>
      <trkpt lat="48.27788" lon="2.39661">
        <ele>96.75</ele>
        <time>2011-01-30T07:29:47Z</time>
      </trkpt>
      <trkpt lat="48.27784" lon="2.39656">
        <ele>96.27</ele>
        <time>2011-01-30T07:29:48Z</time>
      </trkpt>
      <trkpt lat="48.27781" lon="2.3965">
        <ele>95.79</ele>
        <time>2011-01-30T07:29:49Z</time>
      </trkpt>
      <trkpt lat="48.27778" lon="2.39643">
        <ele>95.79</ele>
        <time>2011-01-30T07:29:50Z</time>
      </trkpt>
      <trkpt lat="48.27776" lon="2.39636">
        <ele>94.83</ele>
        <time>2011-01-30T07:29:51Z</time>
      </trkpt>
      <trkpt lat="48.27774" lon="2.39627">
        <ele>94.35</ele>
        <time>2011-01-30T07:29:52Z</time>
      </trkpt>
      <trkpt lat="48.27769" lon="2.39603">
        <ele>94.83</ele>
        <time>2011-01-30T07:29:55Z</time>
      </trkpt>
      <trkpt lat="48.27766" lon="2.39598">
        <ele>94.83</ele>
        <time>2011-01-30T07:29:56Z</time>
      </trkpt>
      <trkpt lat="48.27763" lon="2.39597">
        <ele>94.83</ele>
        <time>2011-01-30T07:29:57Z</time>
      </trkpt>
      <trkpt lat="48.2776" lon="2.39601">
        <ele>94.35</ele>
        <time>2011-01-30T07:29:58Z</time>
      </trkpt>
      <trkpt lat="48.27758" lon="2.39606">
        <ele>94.35</ele>
        <time>2011-01-30T07:29:59Z</time>
      </trkpt>
      <trkpt lat="48.27756" lon="2.39612">
        <ele>93.39</ele>
        <time>2011-01-30T07:30:00Z</time>
      </trkpt>
      <trkpt lat="48.27754" lon="2.39618">
        <ele>93.39</ele>
        <time>2011-01-30T07:30:01Z</time>
      </trkpt>
      <trkpt lat="48.27752" lon="2.39624">
        <ele>92.9</ele>
        <time>2011-01-30T07:30:02Z</time>
      </trkpt>
      <trkpt lat="48.27706" lon="2.39698">
        <ele>92.42</ele>
        <time>2011-01-30T07:30:16Z</time>
      </trkpt>
      <trkpt lat="48.27702" lon="2.39701">
        <ele>92.42</ele>
        <time>2011-01-30T07:30:17Z</time>
      </trkpt>
      <trkpt lat="48.27653" lon="2.39738">
        <ele>89.54</ele>
        <time>2011-01-30T07:30:26Z</time>
      </trkpt>
      <trkpt lat="48.27629" lon="2.39757">
        <ele>87.62</ele>
        <time>2011-01-30T07:30:30Z</time>
      </trkpt>
      <trkpt lat="48.27597" lon="2.39786">
        <ele>84.73</ele>
        <time>2011-01-30T07:30:35Z</time>
      </trkpt>
      <trkpt lat="48.27592" lon="2.39794">
        <ele>84.25</ele>
        <time>2011-01-30T07:30:36Z</time>
      </trkpt>
      <trkpt lat="48.27555" lon="2.39852">
        <ele>81.37</ele>
        <time>2011-01-30T07:30:43Z</time>
      </trkpt>
      <trkpt lat="48.27539" lon="2.39888">
        <ele>79.45</ele>
        <time>2011-01-30T07:30:47Z</time>
      </trkpt>
      <trkpt lat="48.27522" lon="2.3992">
        <ele>77.52</ele>
        <time>2011-01-30T07:30:51Z</time>
      </trkpt>
      <trkpt lat="48.27518" lon="2.39929">
        <ele>77.04</ele>
        <time>2011-01-30T07:30:52Z</time>
      </trkpt>
      <trkpt lat="48.27515" lon="2.39939">
        <ele>76.56</ele>
        <time>2011-01-30T07:30:53Z</time>
      </trkpt>
      <trkpt lat="48.27513" lon="2.39949">
        <ele>76.56</ele>
        <time>2011-01-30T07:30:54Z</time>
      </trkpt>
      <trkpt lat="48.27511" lon="2.39959">
        <ele>75.6</ele>
        <time>2011-01-30T07:30:55Z</time>
      </trkpt>
      <trkpt lat="48.27507" lon="2.3999">
        <ele>74.64</ele>
        <time>2011-01-30T07:30:58Z</time>
      </trkpt>
      <trkpt lat="48.27502" lon="2.40028">
        <ele>74.64</ele>
        <time>2011-01-30T07:31:02Z</time>
      </trkpt>
      <trkpt lat="48.27502" lon="2.40037">
        <ele>74.16</ele>
        <time>2011-01-30T07:31:03Z</time>
      </trkpt>
      <trkpt lat="48.27504" lon="2.40045">
        <ele>74.16</ele>
        <time>2011-01-30T07:31:04Z</time>
      </trkpt>
      <trkpt lat="48.27506" lon="2.40053">
        <ele>73.68</ele>
        <time>2011-01-30T07:31:05Z</time>
      </trkpt>
      <trkpt lat="48.27507" lon="2.40061">
        <ele>74.16</ele>
        <time>2011-01-30T07:31:06Z</time>
      </trkpt>
      <trkpt lat="48.27507" lon="2.40068">
        <ele>74.16</ele>
        <time>2011-01-30T07:31:07Z</time>
      </trkpt>
      <trkpt lat="48.27508" lon="2.40076">
        <ele>74.16</ele>
        <time>2011-01-30T07:31:08Z</time>
      </trkpt>
      <trkpt lat="48.27509" lon="2.40083">
        <ele>74.64</ele>
        <time>2011-01-30T07:31:09Z</time>
      </trkpt>
      <trkpt lat="48.2751" lon="2.40089">
        <ele>75.6</ele>
        <time>2011-01-30T07:31:10Z</time>
      </trkpt>
      <trkpt lat="48.2751" lon="2.40096">
        <ele>76.08</ele>
        <time>2011-01-30T07:31:11Z</time>
      </trkpt>
      <trkpt lat="48.27509" lon="2.40103">
        <ele>76.08</ele>
        <time>2011-01-30T07:31:12Z</time>
      </trkpt>
      <trkpt lat="48.27508" lon="2.40109">
        <ele>77.04</ele>
        <time>2011-01-30T07:31:13Z</time>
      </trkpt>
      <trkpt lat="48.27507" lon="2.40114">
        <ele>78</ele>
        <time>2011-01-30T07:31:14Z</time>
      </trkpt>
      <trkpt lat="48.27505" lon="2.40117">
        <ele>78.97</ele>
        <time>2011-01-30T07:31:15Z</time>
      </trkpt>
      <trkpt lat="48.27504" lon="2.4012">
        <ele>78.97</ele>
        <time>2011-01-30T07:31:16Z</time>
      </trkpt>
      <trkpt lat="48.27503" lon="2.40124">
        <ele>79.45</ele>
        <time>2011-01-30T07:31:17Z</time>
      </trkpt>
      <trkpt lat="48.27502" lon="2.40127">
        <ele>79.93</ele>
        <time>2011-01-30T07:31:18Z</time>
      </trkpt>
      <trkpt lat="48.27501" lon="2.40131">
        <ele>80.41</ele>
        <time>2011-01-30T07:31:19Z</time>
      </trkpt>
      <trkpt lat="48.27501" lon="2.40134">
        <ele>80.89</ele>
        <time>2011-01-30T07:31:20Z</time>
      </trkpt>
      <trkpt lat="48.275" lon="2.40137">
        <ele>80.89</ele>
        <time>2011-01-30T07:31:21Z</time>
      </trkpt>
      <trkpt lat="48.27495" lon="2.40152">
        <ele>81.85</ele>
        <time>2011-01-30T07:31:26Z</time>
      </trkpt>
      <trkpt lat="48.27496" lon="2.40156">
        <ele>81.85</ele>
        <time>2011-01-30T07:31:27Z</time>
      </trkpt>
      <trkpt lat="48.27496" lon="2.40159">
        <ele>81.85</ele>
        <time>2011-01-30T07:31:28Z</time>
      </trkpt>
      <trkpt lat="48.27511" lon="2.40214">
        <ele>81.37</ele>
        <time>2011-01-30T07:31:41Z</time>
      </trkpt>
      <trkpt lat="48.2753" lon="2.40267">
        <ele>80.41</ele>
        <time>2011-01-30T07:31:52Z</time>
      </trkpt>
      <trkpt lat="48.27552" lon="2.40319">
        <ele>79.93</ele>
        <time>2011-01-30T07:32:04Z</time>
      </trkpt>
      <trkpt lat="48.27572" lon="2.40366">
        <ele>78.97</ele>
        <time>2011-01-30T07:32:15Z</time>
      </trkpt>
      <trkpt lat="48.27589" lon="2.40411">
        <ele>78</ele>
        <time>2011-01-30T07:32:24Z</time>
      </trkpt>
      <trkpt lat="48.27592" lon="2.40416">
        <ele>78.48</ele>
        <time>2011-01-30T07:32:25Z</time>
      </trkpt>
      <trkpt lat="48.27606" lon="2.40449">
        <ele>77.52</ele>
        <time>2011-01-30T07:32:31Z</time>
      </trkpt>
      <trkpt lat="48.27609" lon="2.40454">
        <ele>77.04</ele>
        <time>2011-01-30T07:32:32Z</time>
      </trkpt>
      <trkpt lat="48.27611" lon="2.40459">
        <ele>77.04</ele>
        <time>2011-01-30T07:32:33Z</time>
      </trkpt>
      <trkpt lat="48.27616" lon="2.40471">
        <ele>77.52</ele>
        <time>2011-01-30T07:32:35Z</time>
      </trkpt>
      <trkpt lat="48.27618" lon="2.40476">
        <ele>77.04</ele>
        <time>2011-01-30T07:32:36Z</time>
      </trkpt>
      <trkpt lat="48.27659" lon="2.40571">
        <ele>75.12</ele>
        <time>2011-01-30T07:32:51Z</time>
      </trkpt>
      <trkpt lat="48.27687" lon="2.40664">
        <ele>73.2</ele>
        <time>2011-01-30T07:33:04Z</time>
      </trkpt>
      <trkpt lat="48.27692" lon="2.40684">
        <ele>73.2</ele>
        <time>2011-01-30T07:33:07Z</time>
      </trkpt>
      <trkpt lat="48.27696" lon="2.40698">
        <ele>72.72</ele>
        <time>2011-01-30T07:33:09Z</time>
      </trkpt>
      <trkpt lat="48.27698" lon="2.40706">
        <ele>72.24</ele>
        <time>2011-01-30T07:33:10Z</time>
      </trkpt>
      <trkpt lat="48.27734" lon="2.40818">
        <ele>71.27</ele>
        <time>2011-01-30T07:33:25Z</time>
      </trkpt>
      <trkpt lat="48.27738" lon="2.40832">
        <ele>71.27</ele>
        <time>2011-01-30T07:33:27Z</time>
      </trkpt>
      <trkpt lat="48.2775" lon="2.40871">
        <ele>71.27</ele>
        <time>2011-01-30T07:33:33Z</time>
      </trkpt>
      <trkpt lat="48.27752" lon="2.40877">
        <ele>70.79</ele>
        <time>2011-01-30T07:33:34Z</time>
      </trkpt>
      <trkpt lat="48.27783" lon="2.40971">
        <ele>69.83</ele>
        <time>2011-01-30T07:33:48Z</time>
      </trkpt>
      <trkpt lat="48.27809" lon="2.41049">
        <ele>68.39</ele>
        <time>2011-01-30T07:33:59Z</time>
      </trkpt>
      <trkpt lat="48.2781" lon="2.41056">
        <ele>68.87</ele>
        <time>2011-01-30T07:34:00Z</time>
      </trkpt>
      <trkpt lat="48.27812" lon="2.41062">
        <ele>68.87</ele>
        <time>2011-01-30T07:34:01Z</time>
      </trkpt>
      <trkpt lat="48.27814" lon="2.41068">
        <ele>68.87</ele>
        <time>2011-01-30T07:34:02Z</time>
      </trkpt>
      <trkpt lat="48.27817" lon="2.41075">
        <ele>68.39</ele>
        <time>2011-01-30T07:34:03Z</time>
      </trkpt>
      <trkpt lat="48.27819" lon="2.41081">
        <ele>67.91</ele>
        <time>2011-01-30T07:34:04Z</time>
      </trkpt>
      <trkpt lat="48.2782" lon="2.41088">
        <ele>67.91</ele>
        <time>2011-01-30T07:34:05Z</time>
      </trkpt>
      <trkpt lat="48.27822" lon="2.41096">
        <ele>67.91</ele>
        <time>2011-01-30T07:34:06Z</time>
      </trkpt>
      <trkpt lat="48.27825" lon="2.41111">
        <ele>67.43</ele>
        <time>2011-01-30T07:34:08Z</time>
      </trkpt>
      <trkpt lat="48.27828" lon="2.41132">
        <ele>67.43</ele>
        <time>2011-01-30T07:34:11Z</time>
      </trkpt>
      <trkpt lat="48.27839" lon="2.41169">
        <ele>66.47</ele>
        <time>2011-01-30T07:34:16Z</time>
      </trkpt>
      <trkpt lat="48.27841" lon="2.41177">
        <ele>66.47</ele>
        <time>2011-01-30T07:34:17Z</time>
      </trkpt>
      <trkpt lat="48.27842" lon="2.41185">
        <ele>66.47</ele>
        <time>2011-01-30T07:34:18Z</time>
      </trkpt>
      <trkpt lat="48.27869" lon="2.41282">
        <ele>65.03</ele>
        <time>2011-01-30T07:34:31Z</time>
      </trkpt>
      <trkpt lat="48.27871" lon="2.4129">
        <ele>65.51</ele>
        <time>2011-01-30T07:34:32Z</time>
      </trkpt>
      <trkpt lat="48.27876" lon="2.41312">
        <ele>65.03</ele>
        <time>2011-01-30T07:34:35Z</time>
      </trkpt>
      <trkpt lat="48.27877" lon="2.41319">
        <ele>65.03</ele>
        <time>2011-01-30T07:34:36Z</time>
      </trkpt>
      <trkpt lat="48.27878" lon="2.41326">
        <ele>64.55</ele>
        <time>2011-01-30T07:34:37Z</time>
      </trkpt>
      <trkpt lat="48.27879" lon="2.41333">
        <ele>64.07</ele>
        <time>2011-01-30T07:34:38Z</time>
      </trkpt>
      <trkpt lat="48.27881" lon="2.41341">
        <ele>65.03</ele>
        <time>2011-01-30T07:34:39Z</time>
      </trkpt>
      <trkpt lat="48.27887" lon="2.41392">
        <ele>64.07</ele>
        <time>2011-01-30T07:34:46Z</time>
      </trkpt>
      <trkpt lat="48.27887" lon="2.41398">
        <ele>64.55</ele>
        <time>2011-01-30T07:34:47Z</time>
      </trkpt>
      <trkpt lat="48.27886" lon="2.41439">
        <ele>64.55</ele>
        <time>2011-01-30T07:34:56Z</time>
      </trkpt>
      <trkpt lat="48.27883" lon="2.4146">
        <ele>64.55</ele>
        <time>2011-01-30T07:35:00Z</time>
      </trkpt>
      <trkpt lat="48.27837" lon="2.41492">
        <ele>64.55</ele>
        <time>2011-01-30T07:35:12Z</time>
      </trkpt>
      <trkpt lat="48.27816" lon="2.41505">
        <ele>64.07</ele>
        <time>2011-01-30T07:35:17Z</time>
      </trkpt>
      <trkpt lat="48.27765" lon="2.41548">
        <ele>65.51</ele>
        <time>2011-01-30T07:35:31Z</time>
      </trkpt>
      <trkpt lat="48.27747" lon="2.41564">
        <ele>65.99</ele>
        <time>2011-01-30T07:35:36Z</time>
      </trkpt>
      <trkpt lat="48.27743" lon="2.41567">
        <ele>65.99</ele>
        <time>2011-01-30T07:35:37Z</time>
      </trkpt>
      <trkpt lat="48.27678" lon="2.41596">
        <ele>64.55</ele>
        <time>2011-01-30T07:35:51Z</time>
      </trkpt>
      <trkpt lat="48.27653" lon="2.416">
        <ele>63.58</ele>
        <time>2011-01-30T07:35:56Z</time>
      </trkpt>
      <trkpt lat="48.27626" lon="2.41601">
        <ele>63.58</ele>
        <time>2011-01-30T07:36:01Z</time>
      </trkpt>
      <trkpt lat="48.27622" lon="2.416">
        <ele>64.07</ele>
        <time>2011-01-30T07:36:02Z</time>
      </trkpt>
      <trkpt lat="48.27618" lon="2.41599">
        <ele>63.58</ele>
        <time>2011-01-30T07:36:03Z</time>
      </trkpt>
      <trkpt lat="48.27614" lon="2.41596">
        <ele>63.58</ele>
        <time>2011-01-30T07:36:04Z</time>
      </trkpt>
      <trkpt lat="48.27609" lon="2.41593">
        <ele>64.07</ele>
        <time>2011-01-30T07:36:05Z</time>
      </trkpt>
      <trkpt lat="48.27605" lon="2.4159">
        <ele>63.58</ele>
        <time>2011-01-30T07:36:06Z</time>
      </trkpt>
      <trkpt lat="48.27601" lon="2.41586">
        <ele>64.07</ele>
        <time>2011-01-30T07:36:07Z</time>
      </trkpt>
      <trkpt lat="48.27566" lon="2.41556">
        <ele>66.47</ele>
        <time>2011-01-30T07:36:16Z</time>
      </trkpt>
      <trkpt lat="48.27562" lon="2.41553">
        <ele>66.47</ele>
        <time>2011-01-30T07:36:17Z</time>
      </trkpt>
      <trkpt lat="48.27557" lon="2.41551">
        <ele>66.95</ele>
        <time>2011-01-30T07:36:18Z</time>
      </trkpt>
      <trkpt lat="48.27549" lon="2.41546">
        <ele>66.95</ele>
        <time>2011-01-30T07:36:20Z</time>
      </trkpt>
      <trkpt lat="48.27545" lon="2.41544">
        <ele>67.43</ele>
        <time>2011-01-30T07:36:21Z</time>
      </trkpt>
      <trkpt lat="48.27541" lon="2.41542">
        <ele>67.43</ele>
        <time>2011-01-30T07:36:22Z</time>
      </trkpt>
      <trkpt lat="48.27536" lon="2.4154">
        <ele>67.43</ele>
        <time>2011-01-30T07:36:23Z</time>
      </trkpt>
      <trkpt lat="48.27532" lon="2.41539">
        <ele>67.91</ele>
        <time>2011-01-30T07:36:24Z</time>
      </trkpt>
      <trkpt lat="48.27503" lon="2.41529">
        <ele>68.39</ele>
        <time>2011-01-30T07:36:30Z</time>
      </trkpt>
      <trkpt lat="48.27498" lon="2.4153">
        <ele>68.39</ele>
        <time>2011-01-30T07:36:31Z</time>
      </trkpt>
      <trkpt lat="48.27483" lon="2.41532">
        <ele>68.39</ele>
        <time>2011-01-30T07:36:34Z</time>
      </trkpt>
      <trkpt lat="48.27478" lon="2.41533">
        <ele>68.39</ele>
        <time>2011-01-30T07:36:35Z</time>
      </trkpt>
      <trkpt lat="48.27454" lon="2.41536">
        <ele>68.87</ele>
        <time>2011-01-30T07:36:40Z</time>
      </trkpt>
      <trkpt lat="48.27414" lon="2.41557">
        <ele>69.83</ele>
        <time>2011-01-30T07:36:51Z</time>
      </trkpt>
      <trkpt lat="48.27393" lon="2.41584">
        <ele>67.43</ele>
        <time>2011-01-30T07:36:56Z</time>
      </trkpt>
      <trkpt lat="48.27388" lon="2.41589">
        <ele>67.43</ele>
        <time>2011-01-30T07:36:57Z</time>
      </trkpt>
      <trkpt lat="48.27382" lon="2.41592">
        <ele>65.99</ele>
        <time>2011-01-30T07:36:58Z</time>
      </trkpt>
      <trkpt lat="48.27368" lon="2.41599">
        <ele>65.03</ele>
        <time>2011-01-30T07:37:00Z</time>
      </trkpt>
      <trkpt lat="48.2733" lon="2.41607">
        <ele>62.62</ele>
        <time>2011-01-30T07:37:05Z</time>
      </trkpt>
      <trkpt lat="48.27322" lon="2.41609">
        <ele>62.62</ele>
        <time>2011-01-30T07:37:06Z</time>
      </trkpt>
      <trkpt lat="48.27314" lon="2.41612">
        <ele>61.66</ele>
        <time>2011-01-30T07:37:07Z</time>
      </trkpt>
      <trkpt lat="48.27291" lon="2.41622">
        <ele>60.7</ele>
        <time>2011-01-30T07:37:10Z</time>
      </trkpt>
      <trkpt lat="48.27283" lon="2.41627">
        <ele>59.74</ele>
        <time>2011-01-30T07:37:11Z</time>
      </trkpt>
      <trkpt lat="48.27277" lon="2.41633">
        <ele>59.74</ele>
        <time>2011-01-30T07:37:12Z</time>
      </trkpt>
      <trkpt lat="48.2727" lon="2.41639">
        <ele>60.7</ele>
        <time>2011-01-30T07:37:13Z</time>
      </trkpt>
      <trkpt lat="48.27265" lon="2.41645">
        <ele>60.7</ele>
        <time>2011-01-30T07:37:14Z</time>
      </trkpt>
      <trkpt lat="48.27262" lon="2.41649">
        <ele>62.14</ele>
        <time>2011-01-30T07:37:15Z</time>
      </trkpt>
      <trkpt lat="48.2726" lon="2.41651">
        <ele>62.14</ele>
        <time>2011-01-30T07:37:16Z</time>
      </trkpt>
      <trkpt lat="48.27258" lon="2.41652">
        <ele>62.14</ele>
        <time>2011-01-30T07:37:17Z</time>
      </trkpt>
      <trkpt lat="48.2723" lon="2.41665">
        <ele>64.07</ele>
        <time>2011-01-30T07:37:30Z</time>
      </trkpt>
      <trkpt lat="48.27198" lon="2.41662">
        <ele>66.47</ele>
        <time>2011-01-30T07:37:41Z</time>
      </trkpt>
      <trkpt lat="48.27173" lon="2.41661">
        <ele>69.83</ele>
        <time>2011-01-30T07:37:54Z</time>
      </trkpt>
      <trkpt lat="48.27157" lon="2.41653">
        <ele>71.76</ele>
        <time>2011-01-30T07:38:04Z</time>
      </trkpt>
      <trkpt lat="48.27154" lon="2.41653">
        <ele>71.27</ele>
        <time>2011-01-30T07:38:05Z</time>
      </trkpt>
      <trkpt lat="48.27151" lon="2.41655">
        <ele>72.24</ele>
        <time>2011-01-30T07:38:06Z</time>
      </trkpt>
      <trkpt lat="48.27149" lon="2.41656">
        <ele>72.72</ele>
        <time>2011-01-30T07:38:07Z</time>
      </trkpt>
      <trkpt lat="48.27147" lon="2.41656">
        <ele>73.2</ele>
        <time>2011-01-30T07:38:08Z</time>
      </trkpt>
      <trkpt lat="48.27146" lon="2.41657">
        <ele>73.2</ele>
        <time>2011-01-30T07:38:09Z</time>
      </trkpt>
      <trkpt lat="48.27119" lon="2.41658">
        <ele>76.56</ele>
        <time>2011-01-30T07:38:22Z</time>
      </trkpt>
      <trkpt lat="48.27112" lon="2.41656">
        <ele>77.04</ele>
        <time>2011-01-30T07:38:29Z</time>
      </trkpt>
      <trkpt lat="48.2711" lon="2.41655">
        <ele>77.04</ele>
        <time>2011-01-30T07:38:30Z</time>
      </trkpt>
      <trkpt lat="48.27109" lon="2.41654">
        <ele>77.04</ele>
        <time>2011-01-30T07:38:31Z</time>
      </trkpt>
      <trkpt lat="48.27107" lon="2.41653">
        <ele>77.52</ele>
        <time>2011-01-30T07:38:32Z</time>
      </trkpt>
      <trkpt lat="48.27106" lon="2.41652">
        <ele>77.52</ele>
        <time>2011-01-30T07:38:33Z</time>
      </trkpt>
      <trkpt lat="48.27104" lon="2.41651">
        <ele>77.04</ele>
        <time>2011-01-30T07:38:34Z</time>
      </trkpt>
      <trkpt lat="48.27102" lon="2.41649">
        <ele>77.04</ele>
        <time>2011-01-30T07:38:35Z</time>
      </trkpt>
      <trkpt lat="48.27099" lon="2.41644">
        <ele>76.56</ele>
        <time>2011-01-30T07:38:37Z</time>
      </trkpt>
      <trkpt lat="48.27098" lon="2.41641">
        <ele>77.04</ele>
        <time>2011-01-30T07:38:38Z</time>
      </trkpt>
      <trkpt lat="48.27097" lon="2.41638">
        <ele>77.52</ele>
        <time>2011-01-30T07:38:39Z</time>
      </trkpt>
      <trkpt lat="48.27096" lon="2.41636">
        <ele>78</ele>
        <time>2011-01-30T07:38:40Z</time>
      </trkpt>
      <trkpt lat="48.27093" lon="2.41633">
        <ele>78.48</ele>
        <time>2011-01-30T07:38:41Z</time>
      </trkpt>
      <trkpt lat="48.2709" lon="2.41631">
        <ele>78.97</ele>
        <time>2011-01-30T07:38:42Z</time>
      </trkpt>
      <trkpt lat="48.2705" lon="2.41619">
        <ele>78.97</ele>
        <time>2011-01-30T07:38:55Z</time>
      </trkpt>
      <trkpt lat="48.27008" lon="2.41581">
        <ele>78</ele>
        <time>2011-01-30T07:39:09Z</time>
      </trkpt>
      <trkpt lat="48.26973" lon="2.41566">
        <ele>81.37</ele>
        <time>2011-01-30T07:39:21Z</time>
      </trkpt>
      <trkpt lat="48.26953" lon="2.41569">
        <ele>84.25</ele>
        <time>2011-01-30T07:39:27Z</time>
      </trkpt>
      <trkpt lat="48.2695" lon="2.41568">
        <ele>84.25</ele>
        <time>2011-01-30T07:39:28Z</time>
      </trkpt>
      <trkpt lat="48.26948" lon="2.41565">
        <ele>84.73</ele>
        <time>2011-01-30T07:39:29Z</time>
      </trkpt>
      <trkpt lat="48.26945" lon="2.41563">
        <ele>85.69</ele>
        <time>2011-01-30T07:39:30Z</time>
      </trkpt>
      <trkpt lat="48.26944" lon="2.4156">
        <ele>85.69</ele>
        <time>2011-01-30T07:39:31Z</time>
      </trkpt>
      <trkpt lat="48.26942" lon="2.41558">
        <ele>86.18</ele>
        <time>2011-01-30T07:39:32Z</time>
      </trkpt>
      <trkpt lat="48.26942" lon="2.41555">
        <ele>86.18</ele>
        <time>2011-01-30T07:39:33Z</time>
      </trkpt>
      <trkpt lat="48.26941" lon="2.41553">
        <ele>86.66</ele>
        <time>2011-01-30T07:39:34Z</time>
      </trkpt>
      <trkpt lat="48.26941" lon="2.41551">
        <ele>86.66</ele>
        <time>2011-01-30T07:39:35Z</time>
      </trkpt>
      <trkpt lat="48.26936" lon="2.41507">
        <ele>89.06</ele>
        <time>2011-01-30T07:39:49Z</time>
      </trkpt>
      <trkpt lat="48.26931" lon="2.41456">
        <ele>92.42</ele>
        <time>2011-01-30T07:40:03Z</time>
      </trkpt>
      <trkpt lat="48.26919" lon="2.4141">
        <ele>94.83</ele>
        <time>2011-01-30T07:40:17Z</time>
      </trkpt>
      <trkpt lat="48.26884" lon="2.4141">
        <ele>96.75</ele>
        <time>2011-01-30T07:40:31Z</time>
      </trkpt>
      <trkpt lat="48.26838" lon="2.41418">
        <ele>97.23</ele>
        <time>2011-01-30T07:40:46Z</time>
      </trkpt>
      <trkpt lat="48.26762" lon="2.4143">
        <ele>94.83</ele>
        <time>2011-01-30T07:41:04Z</time>
      </trkpt>
      <trkpt lat="48.26668" lon="2.41442">
        <ele>91.46</ele>
        <time>2011-01-30T07:41:22Z</time>
      </trkpt>
      <trkpt lat="48.26604" lon="2.41449">
        <ele>88.58</ele>
        <time>2011-01-30T07:41:32Z</time>
      </trkpt>
      <trkpt lat="48.26574" lon="2.41456">
        <ele>89.54</ele>
        <time>2011-01-30T07:41:37Z</time>
      </trkpt>
      <trkpt lat="48.26562" lon="2.41461">
        <ele>89.54</ele>
        <time>2011-01-30T07:41:39Z</time>
      </trkpt>
      <trkpt lat="48.265" lon="2.41498">
        <ele>90.98</ele>
        <time>2011-01-30T07:41:51Z</time>
      </trkpt>
      <trkpt lat="48.26421" lon="2.4151">
        <ele>91.94</ele>
        <time>2011-01-30T07:42:05Z</time>
      </trkpt>
      <trkpt lat="48.2632" lon="2.41521">
        <ele>90.02</ele>
        <time>2011-01-30T07:42:22Z</time>
      </trkpt>
      <trkpt lat="48.26219" lon="2.41536">
        <ele>87.62</ele>
        <time>2011-01-30T07:42:38Z</time>
      </trkpt>
      <trkpt lat="48.26216" lon="2.41541">
        <ele>87.14</ele>
        <time>2011-01-30T07:42:39Z</time>
      </trkpt>
      <trkpt lat="48.26216" lon="2.41548">
        <ele>86.66</ele>
        <time>2011-01-30T07:42:40Z</time>
      </trkpt>
      <trkpt lat="48.26218" lon="2.41555">
        <ele>86.18</ele>
        <time>2011-01-30T07:42:41Z</time>
      </trkpt>
      <trkpt lat="48.26222" lon="2.41562">
        <ele>85.21</ele>
        <time>2011-01-30T07:42:42Z</time>
      </trkpt>
      <trkpt lat="48.26227" lon="2.41569">
        <ele>84.73</ele>
        <time>2011-01-30T07:42:43Z</time>
      </trkpt>
      <trkpt lat="48.2625" lon="2.41604">
        <ele>80.41</ele>
        <time>2011-01-30T07:42:47Z</time>
      </trkpt>
      <trkpt lat="48.26269" lon="2.41638">
        <ele>77.04</ele>
        <time>2011-01-30T07:42:50Z</time>
      </trkpt>
      <trkpt lat="48.2629" lon="2.41676">
        <ele>73.2</ele>
        <time>2011-01-30T07:42:53Z</time>
      </trkpt>
      <trkpt lat="48.26317" lon="2.41731">
        <ele>69.83</ele>
        <time>2011-01-30T07:42:57Z</time>
      </trkpt>
      <trkpt lat="48.26351" lon="2.418">
        <ele>65.99</ele>
        <time>2011-01-30T07:43:02Z</time>
      </trkpt>
      <trkpt lat="48.26355" lon="2.41812">
        <ele>65.99</ele>
        <time>2011-01-30T07:43:03Z</time>
      </trkpt>
      <trkpt lat="48.2636" lon="2.41833">
        <ele>64.55</ele>
        <time>2011-01-30T07:43:05Z</time>
      </trkpt>
      <trkpt lat="48.2636" lon="2.41842">
        <ele>64.07</ele>
        <time>2011-01-30T07:43:06Z</time>
      </trkpt>
      <trkpt lat="48.26359" lon="2.41848">
        <ele>63.58</ele>
        <time>2011-01-30T07:43:07Z</time>
      </trkpt>
      <trkpt lat="48.26355" lon="2.41852">
        <ele>63.58</ele>
        <time>2011-01-30T07:43:08Z</time>
      </trkpt>
      <trkpt lat="48.2635" lon="2.41854">
        <ele>64.07</ele>
        <time>2011-01-30T07:43:09Z</time>
      </trkpt>
      <trkpt lat="48.26346" lon="2.41855">
        <ele>64.07</ele>
        <time>2011-01-30T07:43:10Z</time>
      </trkpt>
      <trkpt lat="48.26342" lon="2.41859">
        <ele>63.58</ele>
        <time>2011-01-30T07:43:11Z</time>
      </trkpt>
      <trkpt lat="48.26339" lon="2.41866">
        <ele>63.1</ele>
        <time>2011-01-30T07:43:12Z</time>
      </trkpt>
      <trkpt lat="48.26336" lon="2.41874">
        <ele>63.58</ele>
        <time>2011-01-30T07:43:13Z</time>
      </trkpt>
      <trkpt lat="48.26333" lon="2.41883">
        <ele>63.1</ele>
        <time>2011-01-30T07:43:14Z</time>
      </trkpt>
      <trkpt lat="48.26329" lon="2.4189">
        <ele>63.1</ele>
        <time>2011-01-30T07:43:15Z</time>
      </trkpt>
      <trkpt lat="48.26314" lon="2.41921">
        <ele>62.62</ele>
        <time>2011-01-30T07:43:19Z</time>
      </trkpt>
      <trkpt lat="48.26311" lon="2.41929">
        <ele>62.14</ele>
        <time>2011-01-30T07:43:20Z</time>
      </trkpt>
      <trkpt lat="48.26307" lon="2.41938">
        <ele>61.66</ele>
        <time>2011-01-30T07:43:21Z</time>
      </trkpt>
      <trkpt lat="48.263" lon="2.41955">
        <ele>62.14</ele>
        <time>2011-01-30T07:43:23Z</time>
      </trkpt>
      <trkpt lat="48.26295" lon="2.41961">
        <ele>62.14</ele>
        <time>2011-01-30T07:43:24Z</time>
      </trkpt>
      <trkpt lat="48.26289" lon="2.41965">
        <ele>62.14</ele>
        <time>2011-01-30T07:43:25Z</time>
      </trkpt>
      <trkpt lat="48.26277" lon="2.41974">
        <ele>61.66</ele>
        <time>2011-01-30T07:43:27Z</time>
      </trkpt>
      <trkpt lat="48.26222" lon="2.42021">
        <ele>62.14</ele>
        <time>2011-01-30T07:43:37Z</time>
      </trkpt>
      <trkpt lat="48.26203" lon="2.4204">
        <ele>62.62</ele>
        <time>2011-01-30T07:43:41Z</time>
      </trkpt>
      <trkpt lat="48.26199" lon="2.42044">
        <ele>62.62</ele>
        <time>2011-01-30T07:43:42Z</time>
      </trkpt>
      <trkpt lat="48.26196" lon="2.42047">
        <ele>62.62</ele>
        <time>2011-01-30T07:43:43Z</time>
      </trkpt>
      <trkpt lat="48.26193" lon="2.4205">
        <ele>63.1</ele>
        <time>2011-01-30T07:43:44Z</time>
      </trkpt>
      <trkpt lat="48.2619" lon="2.42054">
        <ele>62.62</ele>
        <time>2011-01-30T07:43:45Z</time>
      </trkpt>
      <trkpt lat="48.26187" lon="2.42058">
        <ele>62.62</ele>
        <time>2011-01-30T07:43:46Z</time>
      </trkpt>
      <trkpt lat="48.26183" lon="2.42062">
        <ele>62.62</ele>
        <time>2011-01-30T07:43:47Z</time>
      </trkpt>
      <trkpt lat="48.2618" lon="2.42066">
        <ele>62.62</ele>
        <time>2011-01-30T07:43:48Z</time>
      </trkpt>
      <trkpt lat="48.26176" lon="2.4207">
        <ele>62.14</ele>
        <time>2011-01-30T07:43:49Z</time>
      </trkpt>
      <trkpt lat="48.26138" lon="2.4215">
        <ele>61.18</ele>
        <time>2011-01-30T07:44:02Z</time>
      </trkpt>
      <trkpt lat="48.26132" lon="2.42162">
        <ele>61.18</ele>
        <time>2011-01-30T07:44:04Z</time>
      </trkpt>
      <trkpt lat="48.26115" lon="2.42192">
        <ele>60.7</ele>
        <time>2011-01-30T07:44:09Z</time>
      </trkpt>
      <trkpt lat="48.26112" lon="2.42199">
        <ele>60.22</ele>
        <time>2011-01-30T07:44:10Z</time>
      </trkpt>
      <trkpt lat="48.26107" lon="2.42212">
        <ele>60.22</ele>
        <time>2011-01-30T07:44:12Z</time>
      </trkpt>
      <trkpt lat="48.26105" lon="2.42219">
        <ele>60.22</ele>
        <time>2011-01-30T07:44:13Z</time>
      </trkpt>
      <trkpt lat="48.26099" lon="2.4223">
        <ele>60.22</ele>
        <time>2011-01-30T07:44:15Z</time>
      </trkpt>
      <trkpt lat="48.26095" lon="2.42235">
        <ele>60.7</ele>
        <time>2011-01-30T07:44:16Z</time>
      </trkpt>
      <trkpt lat="48.26092" lon="2.4224">
        <ele>60.22</ele>
        <time>2011-01-30T07:44:17Z</time>
      </trkpt>
      <trkpt lat="48.26072" lon="2.42263">
        <ele>60.22</ele>
        <time>2011-01-30T07:44:22Z</time>
      </trkpt>
      <trkpt lat="48.26036" lon="2.42301">
        <ele>59.26</ele>
        <time>2011-01-30T07:44:32Z</time>
      </trkpt>
      <trkpt lat="48.26033" lon="2.42305">
        <ele>59.74</ele>
        <time>2011-01-30T07:44:33Z</time>
      </trkpt>
      <trkpt lat="48.26031" lon="2.42311">
        <ele>59.26</ele>
        <time>2011-01-30T07:44:34Z</time>
      </trkpt>
      <trkpt lat="48.26031" lon="2.42318">
        <ele>59.74</ele>
        <time>2011-01-30T07:44:35Z</time>
      </trkpt>
      <trkpt lat="48.26032" lon="2.42323">
        <ele>59.74</ele>
        <time>2011-01-30T07:44:36Z</time>
      </trkpt>
      <trkpt lat="48.26034" lon="2.42328">
        <ele>60.22</ele>
        <time>2011-01-30T07:44:37Z</time>
      </trkpt>
      <trkpt lat="48.26036" lon="2.42332">
        <ele>60.7</ele>
        <time>2011-01-30T07:44:38Z</time>
      </trkpt>
      <trkpt lat="48.26036" lon="2.42336">
        <ele>60.7</ele>
        <time>2011-01-30T07:44:39Z</time>
      </trkpt>
      <trkpt lat="48.26036" lon="2.4234">
        <ele>60.22</ele>
        <time>2011-01-30T07:44:40Z</time>
      </trkpt>
      <trkpt lat="48.2603" lon="2.42375">
        <ele>60.22</ele>
        <time>2011-01-30T07:44:48Z</time>
      </trkpt>
      <trkpt lat="48.26029" lon="2.42381">
        <ele>59.74</ele>
        <time>2011-01-30T07:44:49Z</time>
      </trkpt>
      <trkpt lat="48.26029" lon="2.42388">
        <ele>59.74</ele>
        <time>2011-01-30T07:44:50Z</time>
      </trkpt>
      <trkpt lat="48.26024" lon="2.42431">
        <ele>59.74</ele>
        <time>2011-01-30T07:44:56Z</time>
      </trkpt>
      <trkpt lat="48.26019" lon="2.42472">
        <ele>59.74</ele>
        <time>2011-01-30T07:45:02Z</time>
      </trkpt>
      <trkpt lat="48.26013" lon="2.42523">
        <ele>59.74</ele>
        <time>2011-01-30T07:45:09Z</time>
      </trkpt>
      <trkpt lat="48.26011" lon="2.42546">
        <ele>59.74</ele>
        <time>2011-01-30T07:45:12Z</time>
      </trkpt>
      <trkpt lat="48.26004" lon="2.42582">
        <ele>59.26</ele>
        <time>2011-01-30T07:45:17Z</time>
      </trkpt>
      <trkpt lat="48.25997" lon="2.42644">
        <ele>60.22</ele>
        <time>2011-01-30T07:45:26Z</time>
      </trkpt>
      <trkpt lat="48.25998" lon="2.42651">
        <ele>59.26</ele>
        <time>2011-01-30T07:45:27Z</time>
      </trkpt>
      <trkpt lat="48.26011" lon="2.42712">
        <ele>61.18</ele>
        <time>2011-01-30T07:45:36Z</time>
      </trkpt>
      <trkpt lat="48.2601" lon="2.42717">
        <ele>61.18</ele>
        <time>2011-01-30T07:45:37Z</time>
      </trkpt>
      <trkpt lat="48.26007" lon="2.42722">
        <ele>61.18</ele>
        <time>2011-01-30T07:45:38Z</time>
      </trkpt>
      <trkpt lat="48.26004" lon="2.42724">
        <ele>61.18</ele>
        <time>2011-01-30T07:45:39Z</time>
      </trkpt>
      <trkpt lat="48.26" lon="2.42727">
        <ele>61.18</ele>
        <time>2011-01-30T07:45:40Z</time>
      </trkpt>
      <trkpt lat="48.25966" lon="2.4275">
        <ele>60.7</ele>
        <time>2011-01-30T07:45:48Z</time>
      </trkpt>
      <trkpt lat="48.25962" lon="2.42752">
        <ele>60.7</ele>
        <time>2011-01-30T07:45:49Z</time>
      </trkpt>
      <trkpt lat="48.259" lon="2.42783">
        <ele>60.7</ele>
        <time>2011-01-30T07:46:02Z</time>
      </trkpt>
      <trkpt lat="48.25834" lon="2.42815">
        <ele>61.66</ele>
        <time>2011-01-30T07:46:16Z</time>
      </trkpt>
      <trkpt lat="48.25798" lon="2.42826">
        <ele>62.14</ele>
        <time>2011-01-30T07:46:24Z</time>
      </trkpt>
      <trkpt lat="48.25793" lon="2.42828">
        <ele>62.14</ele>
        <time>2011-01-30T07:46:25Z</time>
      </trkpt>
      <trkpt lat="48.25763" lon="2.42833">
        <ele>62.14</ele>
        <time>2011-01-30T07:46:36Z</time>
      </trkpt>
      <trkpt lat="48.25758" lon="2.42834">
        <ele>62.14</ele>
        <time>2011-01-30T07:46:43Z</time>
      </trkpt>
      <trkpt lat="48.25756" lon="2.42834">
        <ele>62.14</ele>
        <time>2011-01-30T07:46:44Z</time>
      </trkpt>
      <trkpt lat="48.25729" lon="2.42848">
        <ele>61.66</ele>
        <time>2011-01-30T07:46:54Z</time>
      </trkpt>
      <trkpt lat="48.25694" lon="2.42872">
        <ele>61.66</ele>
        <time>2011-01-30T07:47:08Z</time>
      </trkpt>
      <trkpt lat="48.25659" lon="2.42917">
        <ele>62.14</ele>
        <time>2011-01-30T07:47:21Z</time>
      </trkpt>
      <trkpt lat="48.25658" lon="2.42923">
        <ele>62.14</ele>
        <time>2011-01-30T07:47:22Z</time>
      </trkpt>
      <trkpt lat="48.25658" lon="2.4293">
        <ele>62.14</ele>
        <time>2011-01-30T07:47:23Z</time>
      </trkpt>
      <trkpt lat="48.25656" lon="2.42936">
        <ele>62.14</ele>
        <time>2011-01-30T07:47:24Z</time>
      </trkpt>
      <trkpt lat="48.25654" lon="2.4294">
        <ele>62.62</ele>
        <time>2011-01-30T07:47:25Z</time>
      </trkpt>
      <trkpt lat="48.25651" lon="2.42944">
        <ele>62.62</ele>
        <time>2011-01-30T07:47:26Z</time>
      </trkpt>
      <trkpt lat="48.25647" lon="2.42949">
        <ele>62.14</ele>
        <time>2011-01-30T07:47:27Z</time>
      </trkpt>
      <trkpt lat="48.25645" lon="2.42955">
        <ele>62.62</ele>
        <time>2011-01-30T07:47:28Z</time>
      </trkpt>
      <trkpt lat="48.25642" lon="2.4296">
        <ele>62.62</ele>
        <time>2011-01-30T07:47:29Z</time>
      </trkpt>
      <trkpt lat="48.25639" lon="2.42965">
        <ele>62.62</ele>
        <time>2011-01-30T07:47:30Z</time>
      </trkpt>
      <trkpt lat="48.25632" lon="2.42975">
        <ele>62.14</ele>
        <time>2011-01-30T07:47:32Z</time>
      </trkpt>
      <trkpt lat="48.25629" lon="2.4298">
        <ele>62.62</ele>
        <time>2011-01-30T07:47:33Z</time>
      </trkpt>
      <trkpt lat="48.25626" lon="2.42985">
        <ele>62.62</ele>
        <time>2011-01-30T07:47:34Z</time>
      </trkpt>
      <trkpt lat="48.2562" lon="2.42995">
        <ele>62.14</ele>
        <time>2011-01-30T07:47:36Z</time>
      </trkpt>
      <trkpt lat="48.25616" lon="2.42999">
        <ele>62.62</ele>
        <time>2011-01-30T07:47:37Z</time>
      </trkpt>
      <trkpt lat="48.25613" lon="2.43002">
        <ele>62.14</ele>
        <time>2011-01-30T07:47:38Z</time>
      </trkpt>
      <trkpt lat="48.25609" lon="2.43005">
        <ele>62.14</ele>
        <time>2011-01-30T07:47:39Z</time>
      </trkpt>
      <trkpt lat="48.25606" lon="2.43008">
        <ele>62.62</ele>
        <time>2011-01-30T07:47:40Z</time>
      </trkpt>
      <trkpt lat="48.25605" lon="2.43013">
        <ele>62.62</ele>
        <time>2011-01-30T07:47:41Z</time>
      </trkpt>
      <trkpt lat="48.25604" lon="2.43019">
        <ele>62.14</ele>
        <time>2011-01-30T07:47:42Z</time>
      </trkpt>
      <trkpt lat="48.25605" lon="2.43026">
        <ele>62.62</ele>
        <time>2011-01-30T07:47:43Z</time>
      </trkpt>
      <trkpt lat="48.2561" lon="2.4309">
        <ele>62.14</ele>
        <time>2011-01-30T07:47:52Z</time>
      </trkpt>
      <trkpt lat="48.2561" lon="2.43096">
        <ele>62.62</ele>
        <time>2011-01-30T07:47:53Z</time>
      </trkpt>
      <trkpt lat="48.25611" lon="2.43103">
        <ele>62.14</ele>
        <time>2011-01-30T07:47:54Z</time>
      </trkpt>
      <trkpt lat="48.25616" lon="2.4313">
        <ele>62.14</ele>
        <time>2011-01-30T07:47:58Z</time>
      </trkpt>
      <trkpt lat="48.25634" lon="2.43199">
        <ele>61.66</ele>
        <time>2011-01-30T07:48:08Z</time>
      </trkpt>
      <trkpt lat="48.25637" lon="2.43205">
        <ele>62.14</ele>
        <time>2011-01-30T07:48:09Z</time>
      </trkpt>
      <trkpt lat="48.2564" lon="2.43212">
        <ele>61.66</ele>
        <time>2011-01-30T07:48:10Z</time>
      </trkpt>
      <trkpt lat="48.25644" lon="2.43218">
        <ele>62.14</ele>
        <time>2011-01-30T07:48:11Z</time>
      </trkpt>
      <trkpt lat="48.25647" lon="2.43225">
        <ele>62.62</ele>
        <time>2011-01-30T07:48:12Z</time>
      </trkpt>
      <trkpt lat="48.25649" lon="2.43231">
        <ele>62.14</ele>
        <time>2011-01-30T07:48:13Z</time>
      </trkpt>
      <trkpt lat="48.25672" lon="2.43321">
        <ele>62.62</ele>
        <time>2011-01-30T07:48:27Z</time>
      </trkpt>
      <trkpt lat="48.25707" lon="2.43396">
        <ele>62.14</ele>
        <time>2011-01-30T07:48:41Z</time>
      </trkpt>
      <trkpt lat="48.2574" lon="2.43471">
        <ele>62.62</ele>
        <time>2011-01-30T07:48:55Z</time>
      </trkpt>
      <trkpt lat="48.25742" lon="2.43476">
        <ele>63.1</ele>
        <time>2011-01-30T07:48:56Z</time>
      </trkpt>
      <trkpt lat="48.25749" lon="2.43491">
        <ele>63.1</ele>
        <time>2011-01-30T07:48:59Z</time>
      </trkpt>
      <trkpt lat="48.25751" lon="2.43497">
        <ele>63.1</ele>
        <time>2011-01-30T07:49:00Z</time>
      </trkpt>
      <trkpt lat="48.25753" lon="2.43503">
        <ele>63.58</ele>
        <time>2011-01-30T07:49:01Z</time>
      </trkpt>
      <trkpt lat="48.25754" lon="2.4351">
        <ele>63.1</ele>
        <time>2011-01-30T07:49:02Z</time>
      </trkpt>
      <trkpt lat="48.25756" lon="2.43516">
        <ele>63.58</ele>
        <time>2011-01-30T07:49:03Z</time>
      </trkpt>
      <trkpt lat="48.2576" lon="2.43535">
        <ele>64.55</ele>
        <time>2011-01-30T07:49:07Z</time>
      </trkpt>
      <trkpt lat="48.2576" lon="2.43537">
        <ele>64.55</ele>
        <time>2011-01-30T07:49:08Z</time>
      </trkpt>
      <trkpt lat="48.25759" lon="2.43539">
        <ele>64.55</ele>
        <time>2011-01-30T07:49:09Z</time>
      </trkpt>
      <trkpt lat="48.25758" lon="2.43542">
        <ele>64.55</ele>
        <time>2011-01-30T07:49:10Z</time>
      </trkpt>
      <trkpt lat="48.25755" lon="2.43543">
        <ele>64.55</ele>
        <time>2011-01-30T07:49:11Z</time>
      </trkpt>
      <trkpt lat="48.25752" lon="2.43545">
        <ele>64.55</ele>
        <time>2011-01-30T07:49:12Z</time>
      </trkpt>
      <trkpt lat="48.25701" lon="2.43571">
        <ele>62.62</ele>
        <time>2011-01-30T07:49:24Z</time>
      </trkpt>
      <trkpt lat="48.25688" lon="2.43578">
        <ele>62.62</ele>
        <time>2011-01-30T07:49:27Z</time>
      </trkpt>
      <trkpt lat="48.25683" lon="2.43581">
        <ele>62.62</ele>
        <time>2011-01-30T07:49:28Z</time>
      </trkpt>
      <trkpt lat="48.25604" lon="2.43623">
        <ele>62.14</ele>
        <time>2011-01-30T07:49:44Z</time>
      </trkpt>
      <trkpt lat="48.25594" lon="2.43627">
        <ele>62.62</ele>
        <time>2011-01-30T07:49:46Z</time>
      </trkpt>
      <trkpt lat="48.25589" lon="2.4363">
        <ele>62.14</ele>
        <time>2011-01-30T07:49:47Z</time>
      </trkpt>
      <trkpt lat="48.25506" lon="2.43675">
        <ele>62.14</ele>
        <time>2011-01-30T07:50:03Z</time>
      </trkpt>
      <trkpt lat="48.25478" lon="2.43691">
        <ele>62.62</ele>
        <time>2011-01-30T07:50:09Z</time>
      </trkpt>
      <trkpt lat="48.25476" lon="2.43696">
        <ele>62.62</ele>
        <time>2011-01-30T07:50:10Z</time>
      </trkpt>
      <trkpt lat="48.25475" lon="2.43702">
        <ele>62.62</ele>
        <time>2011-01-30T07:50:11Z</time>
      </trkpt>
      <trkpt lat="48.25476" lon="2.43709">
        <ele>62.14</ele>
        <time>2011-01-30T07:50:12Z</time>
      </trkpt>
      <trkpt lat="48.25477" lon="2.43715">
        <ele>62.14</ele>
        <time>2011-01-30T07:50:13Z</time>
      </trkpt>
      <trkpt lat="48.25479" lon="2.43722">
        <ele>61.66</ele>
        <time>2011-01-30T07:50:14Z</time>
      </trkpt>
      <trkpt lat="48.25486" lon="2.43751">
        <ele>62.14</ele>
        <time>2011-01-30T07:50:18Z</time>
      </trkpt>
      <trkpt lat="48.25489" lon="2.43766">
        <ele>62.62</ele>
        <time>2011-01-30T07:50:20Z</time>
      </trkpt>
      <trkpt lat="48.25489" lon="2.43773">
        <ele>62.14</ele>
        <time>2011-01-30T07:50:21Z</time>
      </trkpt>
      <trkpt lat="48.2549" lon="2.43786">
        <ele>61.66</ele>
        <time>2011-01-30T07:50:23Z</time>
      </trkpt>
      <trkpt lat="48.25491" lon="2.43793">
        <ele>62.14</ele>
        <time>2011-01-30T07:50:24Z</time>
      </trkpt>
      <trkpt lat="48.2549" lon="2.43801">
        <ele>61.66</ele>
        <time>2011-01-30T07:50:25Z</time>
      </trkpt>
      <trkpt lat="48.2549" lon="2.43808">
        <ele>61.66</ele>
        <time>2011-01-30T07:50:26Z</time>
      </trkpt>
      <trkpt lat="48.25489" lon="2.43814">
        <ele>61.66</ele>
        <time>2011-01-30T07:50:27Z</time>
      </trkpt>
      <trkpt lat="48.25489" lon="2.43821">
        <ele>62.14</ele>
        <time>2011-01-30T07:50:28Z</time>
      </trkpt>
      <trkpt lat="48.25489" lon="2.43828">
        <ele>61.66</ele>
        <time>2011-01-30T07:50:29Z</time>
      </trkpt>
      <trkpt lat="48.25489" lon="2.43835">
        <ele>61.66</ele>
        <time>2011-01-30T07:50:30Z</time>
      </trkpt>
      <trkpt lat="48.25487" lon="2.43848">
        <ele>61.66</ele>
        <time>2011-01-30T07:50:32Z</time>
      </trkpt>
      <trkpt lat="48.25486" lon="2.43855">
        <ele>61.66</ele>
        <time>2011-01-30T07:50:33Z</time>
      </trkpt>
      <trkpt lat="48.25483" lon="2.4386">
        <ele>61.18</ele>
        <time>2011-01-30T07:50:34Z</time>
      </trkpt>
      <trkpt lat="48.25481" lon="2.43866">
        <ele>61.66</ele>
        <time>2011-01-30T07:50:35Z</time>
      </trkpt>
      <trkpt lat="48.25478" lon="2.4387">
        <ele>62.14</ele>
        <time>2011-01-30T07:50:36Z</time>
      </trkpt>
      <trkpt lat="48.25474" lon="2.43874">
        <ele>61.66</ele>
        <time>2011-01-30T07:50:37Z</time>
      </trkpt>
      <trkpt lat="48.2547" lon="2.43878">
        <ele>62.14</ele>
        <time>2011-01-30T07:50:38Z</time>
      </trkpt>
      <trkpt lat="48.25466" lon="2.43881">
        <ele>62.14</ele>
        <time>2011-01-30T07:50:39Z</time>
      </trkpt>
      <trkpt lat="48.25448" lon="2.439">
        <ele>62.14</ele>
        <time>2011-01-30T07:50:44Z</time>
      </trkpt>
      <trkpt lat="48.25441" lon="2.43912">
        <ele>61.66</ele>
        <time>2011-01-30T07:50:46Z</time>
      </trkpt>
      <trkpt lat="48.25437" lon="2.43916">
        <ele>61.66</ele>
        <time>2011-01-30T07:50:47Z</time>
      </trkpt>
      <trkpt lat="48.25419" lon="2.43941">
        <ele>61.66</ele>
        <time>2011-01-30T07:50:52Z</time>
      </trkpt>
      <trkpt lat="48.25401" lon="2.43996">
        <ele>61.18</ele>
        <time>2011-01-30T07:51:01Z</time>
      </trkpt>
      <trkpt lat="48.25401" lon="2.44003">
        <ele>61.18</ele>
        <time>2011-01-30T07:51:02Z</time>
      </trkpt>
      <trkpt lat="48.25402" lon="2.4401">
        <ele>61.18</ele>
        <time>2011-01-30T07:51:03Z</time>
      </trkpt>
      <trkpt lat="48.25403" lon="2.44016">
        <ele>61.18</ele>
        <time>2011-01-30T07:51:04Z</time>
      </trkpt>
      <trkpt lat="48.25419" lon="2.44073">
        <ele>61.66</ele>
        <time>2011-01-30T07:51:14Z</time>
      </trkpt>
      <trkpt lat="48.25428" lon="2.44104">
        <ele>62.14</ele>
        <time>2011-01-30T07:51:19Z</time>
      </trkpt>
      <trkpt lat="48.25444" lon="2.44138">
        <ele>61.66</ele>
        <time>2011-01-30T07:51:25Z</time>
      </trkpt>
      <trkpt lat="48.25454" lon="2.44167">
        <ele>61.66</ele>
        <time>2011-01-30T07:51:30Z</time>
      </trkpt>
      <trkpt lat="48.25455" lon="2.44179">
        <ele>61.66</ele>
        <time>2011-01-30T07:51:32Z</time>
      </trkpt>
      <trkpt lat="48.25444" lon="2.44207">
        <ele>61.66</ele>
        <time>2011-01-30T07:51:38Z</time>
      </trkpt>
      <trkpt lat="48.25439" lon="2.44226">
        <ele>61.66</ele>
        <time>2011-01-30T07:51:50Z</time>
      </trkpt>
      <trkpt lat="48.25442" lon="2.44262">
        <ele>62.62</ele>
        <time>2011-01-30T07:52:01Z</time>
      </trkpt>
      <trkpt lat="48.25446" lon="2.4431">
        <ele>63.58</ele>
        <time>2011-01-30T07:52:12Z</time>
      </trkpt>
      <trkpt lat="48.2545" lon="2.44321">
        <ele>63.58</ele>
        <time>2011-01-30T07:52:15Z</time>
      </trkpt>
      <trkpt lat="48.25452" lon="2.44335">
        <ele>64.55</ele>
        <time>2011-01-30T07:52:20Z</time>
      </trkpt>
      <trkpt lat="48.25451" lon="2.44344">
        <ele>66.95</ele>
        <time>2011-01-30T07:52:24Z</time>
      </trkpt>
      <trkpt lat="48.25451" lon="2.44375">
        <ele>69.83</ele>
        <time>2011-01-30T07:52:37Z</time>
      </trkpt>
      <trkpt lat="48.25454" lon="2.44389">
        <ele>71.27</ele>
        <time>2011-01-30T07:52:44Z</time>
      </trkpt>
      <trkpt lat="48.25454" lon="2.44403">
        <ele>72.72</ele>
        <time>2011-01-30T07:52:50Z</time>
      </trkpt>
      <trkpt lat="48.25459" lon="2.44434">
        <ele>75.6</ele>
        <time>2011-01-30T07:53:05Z</time>
      </trkpt>
      <trkpt lat="48.25462" lon="2.44465">
        <ele>78.48</ele>
        <time>2011-01-30T07:53:19Z</time>
      </trkpt>
      <trkpt lat="48.25463" lon="2.44467">
        <ele>78.97</ele>
        <time>2011-01-30T07:53:20Z</time>
      </trkpt>
      <trkpt lat="48.25466" lon="2.44495">
        <ele>82.33</ele>
        <time>2011-01-30T07:53:33Z</time>
      </trkpt>
      <trkpt lat="48.25476" lon="2.44515">
        <ele>85.69</ele>
        <time>2011-01-30T07:53:46Z</time>
      </trkpt>
      <trkpt lat="48.25491" lon="2.44534">
        <ele>89.06</ele>
        <time>2011-01-30T07:54:00Z</time>
      </trkpt>
      <trkpt lat="48.25496" lon="2.44544">
        <ele>89.54</ele>
        <time>2011-01-30T07:54:05Z</time>
      </trkpt>
      <trkpt lat="48.25508" lon="2.44571">
        <ele>92.9</ele>
        <time>2011-01-30T07:54:19Z</time>
      </trkpt>
      <trkpt lat="48.25525" lon="2.44613">
        <ele>94.83</ele>
        <time>2011-01-30T07:54:36Z</time>
      </trkpt>
      <trkpt lat="48.25544" lon="2.44619">
        <ele>95.79</ele>
        <time>2011-01-30T07:54:45Z</time>
      </trkpt>
      <trkpt lat="48.25573" lon="2.44587">
        <ele>95.79</ele>
        <time>2011-01-30T07:54:57Z</time>
      </trkpt>
      <trkpt lat="48.25607" lon="2.44548">
        <ele>97.71</ele>
        <time>2011-01-30T07:55:10Z</time>
      </trkpt>
      <trkpt lat="48.25651" lon="2.44499">
        <ele>95.79</ele>
        <time>2011-01-30T07:55:23Z</time>
      </trkpt>
      <trkpt lat="48.25707" lon="2.44449">
        <ele>92.42</ele>
        <time>2011-01-30T07:55:36Z</time>
      </trkpt>
      <trkpt lat="48.25712" lon="2.44445">
        <ele>92.42</ele>
        <time>2011-01-30T07:55:37Z</time>
      </trkpt>
      <trkpt lat="48.25737" lon="2.44415">
        <ele>89.54</ele>
        <time>2011-01-30T07:55:42Z</time>
      </trkpt>
      <trkpt lat="48.25812" lon="2.44329">
        <ele>88.58</ele>
        <time>2011-01-30T07:55:55Z</time>
      </trkpt>
      <trkpt lat="48.25822" lon="2.44317">
        <ele>89.54</ele>
        <time>2011-01-30T07:55:57Z</time>
      </trkpt>
      <trkpt lat="48.25829" lon="2.44305">
        <ele>90.5</ele>
        <time>2011-01-30T07:55:59Z</time>
      </trkpt>
      <trkpt lat="48.25831" lon="2.44298">
        <ele>90.98</ele>
        <time>2011-01-30T07:56:00Z</time>
      </trkpt>
      <trkpt lat="48.25836" lon="2.44284">
        <ele>90.98</ele>
        <time>2011-01-30T07:56:02Z</time>
      </trkpt>
      <trkpt lat="48.25857" lon="2.44151">
        <ele>90.02</ele>
        <time>2011-01-30T07:56:19Z</time>
      </trkpt>
      <trkpt lat="48.25864" lon="2.44082">
        <ele>88.1</ele>
        <time>2011-01-30T07:56:27Z</time>
      </trkpt>
      <trkpt lat="48.25865" lon="2.44074">
        <ele>88.1</ele>
        <time>2011-01-30T07:56:28Z</time>
      </trkpt>
      <trkpt lat="48.25872" lon="2.44014">
        <ele>86.18</ele>
        <time>2011-01-30T07:56:37Z</time>
      </trkpt>
      <trkpt lat="48.25876" lon="2.44">
        <ele>85.69</ele>
        <time>2011-01-30T07:56:39Z</time>
      </trkpt>
      <trkpt lat="48.2589" lon="2.43957">
        <ele>81.85</ele>
        <time>2011-01-30T07:56:44Z</time>
      </trkpt>
      <trkpt lat="48.25904" lon="2.43915">
        <ele>78.48</ele>
        <time>2011-01-30T07:56:49Z</time>
      </trkpt>
      <trkpt lat="48.25904" lon="2.43909">
        <ele>78</ele>
        <time>2011-01-30T07:56:50Z</time>
      </trkpt>
      <trkpt lat="48.25902" lon="2.43902">
        <ele>77.52</ele>
        <time>2011-01-30T07:56:51Z</time>
      </trkpt>
      <trkpt lat="48.25891" lon="2.4385">
        <ele>74.16</ele>
        <time>2011-01-30T07:56:57Z</time>
      </trkpt>
      <trkpt lat="48.2589" lon="2.4384">
        <ele>73.68</ele>
        <time>2011-01-30T07:56:58Z</time>
      </trkpt>
      <trkpt lat="48.25889" lon="2.43829">
        <ele>73.2</ele>
        <time>2011-01-30T07:56:59Z</time>
      </trkpt>
      <trkpt lat="48.25889" lon="2.43818">
        <ele>72.72</ele>
        <time>2011-01-30T07:57:00Z</time>
      </trkpt>
      <trkpt lat="48.25891" lon="2.43755">
        <ele>72.24</ele>
        <time>2011-01-30T07:57:06Z</time>
      </trkpt>
      <trkpt lat="48.2589" lon="2.43746">
        <ele>72.24</ele>
        <time>2011-01-30T07:57:07Z</time>
      </trkpt>
      <trkpt lat="48.25885" lon="2.43724">
        <ele>73.2</ele>
        <time>2011-01-30T07:57:10Z</time>
      </trkpt>
      <trkpt lat="48.25883" lon="2.43718">
        <ele>73.2</ele>
        <time>2011-01-30T07:57:11Z</time>
      </trkpt>
      <trkpt lat="48.25881" lon="2.43711">
        <ele>72.72</ele>
        <time>2011-01-30T07:57:12Z</time>
      </trkpt>
      <trkpt lat="48.25879" lon="2.43705">
        <ele>72.24</ele>
        <time>2011-01-30T07:57:13Z</time>
      </trkpt>
      <trkpt lat="48.25878" lon="2.43698">
        <ele>73.2</ele>
        <time>2011-01-30T07:57:14Z</time>
      </trkpt>
      <trkpt lat="48.25879" lon="2.43692">
        <ele>72.24</ele>
        <time>2011-01-30T07:57:15Z</time>
      </trkpt>
      <trkpt lat="48.25879" lon="2.43686">
        <ele>73.68</ele>
        <time>2011-01-30T07:57:16Z</time>
      </trkpt>
      <trkpt lat="48.25887" lon="2.43643">
        <ele>76.08</ele>
        <time>2011-01-30T07:57:27Z</time>
      </trkpt>
      <trkpt lat="48.25885" lon="2.43611">
        <ele>77.04</ele>
        <time>2011-01-30T07:57:34Z</time>
      </trkpt>
      <trkpt lat="48.25887" lon="2.43607">
        <ele>77.04</ele>
        <time>2011-01-30T07:57:35Z</time>
      </trkpt>
      <trkpt lat="48.2589" lon="2.43604">
        <ele>77.04</ele>
        <time>2011-01-30T07:57:36Z</time>
      </trkpt>
      <trkpt lat="48.25898" lon="2.43594">
        <ele>78.48</ele>
        <time>2011-01-30T07:57:40Z</time>
      </trkpt>
      <trkpt lat="48.25911" lon="2.43585">
        <ele>80.41</ele>
        <time>2011-01-30T07:57:46Z</time>
      </trkpt>
      <trkpt lat="48.2592" lon="2.43581">
        <ele>82.33</ele>
        <time>2011-01-30T07:57:51Z</time>
      </trkpt>
      <trkpt lat="48.25946" lon="2.43573">
        <ele>85.21</ele>
        <time>2011-01-30T07:58:05Z</time>
      </trkpt>
      <trkpt lat="48.2597" lon="2.43565">
        <ele>88.1</ele>
        <time>2011-01-30T07:58:17Z</time>
      </trkpt>
      <trkpt lat="48.25979" lon="2.43561">
        <ele>89.54</ele>
        <time>2011-01-30T07:58:22Z</time>
      </trkpt>
      <trkpt lat="48.25981" lon="2.4356">
        <ele>90.02</ele>
        <time>2011-01-30T07:58:23Z</time>
      </trkpt>
      <trkpt lat="48.25984" lon="2.43559">
        <ele>90.5</ele>
        <time>2011-01-30T07:58:24Z</time>
      </trkpt>
      <trkpt lat="48.25997" lon="2.43554">
        <ele>91.94</ele>
        <time>2011-01-30T07:58:31Z</time>
      </trkpt>
      <trkpt lat="48.25999" lon="2.43554">
        <ele>91.94</ele>
        <time>2011-01-30T07:58:32Z</time>
      </trkpt>
      <trkpt lat="48.26029" lon="2.43543">
        <ele>94.35</ele>
        <time>2011-01-30T07:58:48Z</time>
      </trkpt>
      <trkpt lat="48.26063" lon="2.4351">
        <ele>96.27</ele>
        <time>2011-01-30T07:59:03Z</time>
      </trkpt>
      <trkpt lat="48.26099" lon="2.43498">
        <ele>96.75</ele>
        <time>2011-01-30T07:59:16Z</time>
      </trkpt>
      <trkpt lat="48.26133" lon="2.43488">
        <ele>97.23</ele>
        <time>2011-01-30T07:59:28Z</time>
      </trkpt>
      <trkpt lat="48.26184" lon="2.43467">
        <ele>97.71</ele>
        <time>2011-01-30T07:59:44Z</time>
      </trkpt>
      <trkpt lat="48.26234" lon="2.43445">
        <ele>99.15</ele>
        <time>2011-01-30T07:59:59Z</time>
      </trkpt>
      <trkpt lat="48.26265" lon="2.43418">
        <ele>100.6</ele>
        <time>2011-01-30T08:00:10Z</time>
      </trkpt>
      <trkpt lat="48.26248" lon="2.43366">
        <ele>99.15</ele>
        <time>2011-01-30T08:00:20Z</time>
      </trkpt>
      <trkpt lat="48.26246" lon="2.4336">
        <ele>99.15</ele>
        <time>2011-01-30T08:00:21Z</time>
      </trkpt>
      <trkpt lat="48.26218" lon="2.43286">
        <ele>98.19</ele>
        <time>2011-01-30T08:00:34Z</time>
      </trkpt>
      <trkpt lat="48.26194" lon="2.43234">
        <ele>97.71</ele>
        <time>2011-01-30T08:00:42Z</time>
      </trkpt>
      <trkpt lat="48.26192" lon="2.43228">
        <ele>97.23</ele>
        <time>2011-01-30T08:00:43Z</time>
      </trkpt>
      <trkpt lat="48.26189" lon="2.43221">
        <ele>97.23</ele>
        <time>2011-01-30T08:00:44Z</time>
      </trkpt>
      <trkpt lat="48.26187" lon="2.43215">
        <ele>97.71</ele>
        <time>2011-01-30T08:00:45Z</time>
      </trkpt>
      <trkpt lat="48.26185" lon="2.4321">
        <ele>97.23</ele>
        <time>2011-01-30T08:00:46Z</time>
      </trkpt>
      <trkpt lat="48.26166" lon="2.43165">
        <ele>97.23</ele>
        <time>2011-01-30T08:00:54Z</time>
      </trkpt>
      <trkpt lat="48.26159" lon="2.43147">
        <ele>97.23</ele>
        <time>2011-01-30T08:00:57Z</time>
      </trkpt>
      <trkpt lat="48.26149" lon="2.43124">
        <ele>96.75</ele>
        <time>2011-01-30T08:01:01Z</time>
      </trkpt>
      <trkpt lat="48.26147" lon="2.43118">
        <ele>96.27</ele>
        <time>2011-01-30T08:01:02Z</time>
      </trkpt>
      <trkpt lat="48.26139" lon="2.431">
        <ele>95.79</ele>
        <time>2011-01-30T08:01:05Z</time>
      </trkpt>
      <trkpt lat="48.26133" lon="2.43088">
        <ele>95.79</ele>
        <time>2011-01-30T08:01:07Z</time>
      </trkpt>
      <trkpt lat="48.26126" lon="2.43068">
        <ele>95.31</ele>
        <time>2011-01-30T08:01:10Z</time>
      </trkpt>
      <trkpt lat="48.26123" lon="2.43061">
        <ele>94.35</ele>
        <time>2011-01-30T08:01:11Z</time>
      </trkpt>
      <trkpt lat="48.26102" lon="2.43014">
        <ele>92.9</ele>
        <time>2011-01-30T08:01:18Z</time>
      </trkpt>
      <trkpt lat="48.26101" lon="2.43007">
        <ele>92.9</ele>
        <time>2011-01-30T08:01:19Z</time>
      </trkpt>
      <trkpt lat="48.26102" lon="2.42999">
        <ele>92.42</ele>
        <time>2011-01-30T08:01:20Z</time>
      </trkpt>
      <trkpt lat="48.26107" lon="2.42949">
        <ele>89.06</ele>
        <time>2011-01-30T08:01:26Z</time>
      </trkpt>
      <trkpt lat="48.26106" lon="2.42939">
        <ele>87.62</ele>
        <time>2011-01-30T08:01:27Z</time>
      </trkpt>
      <trkpt lat="48.26105" lon="2.42929">
        <ele>86.66</ele>
        <time>2011-01-30T08:01:28Z</time>
      </trkpt>
      <trkpt lat="48.26102" lon="2.42919">
        <ele>86.18</ele>
        <time>2011-01-30T08:01:29Z</time>
      </trkpt>
      <trkpt lat="48.26098" lon="2.4291">
        <ele>85.21</ele>
        <time>2011-01-30T08:01:30Z</time>
      </trkpt>
      <trkpt lat="48.26096" lon="2.429">
        <ele>84.25</ele>
        <time>2011-01-30T08:01:31Z</time>
      </trkpt>
      <trkpt lat="48.26094" lon="2.42892">
        <ele>83.77</ele>
        <time>2011-01-30T08:01:32Z</time>
      </trkpt>
      <trkpt lat="48.26094" lon="2.42884">
        <ele>82.81</ele>
        <time>2011-01-30T08:01:33Z</time>
      </trkpt>
      <trkpt lat="48.26094" lon="2.42877">
        <ele>82.33</ele>
        <time>2011-01-30T08:01:34Z</time>
      </trkpt>
      <trkpt lat="48.26094" lon="2.42867">
        <ele>79.93</ele>
        <time>2011-01-30T08:01:36Z</time>
      </trkpt>
      <trkpt lat="48.26091" lon="2.42864">
        <ele>78.48</ele>
        <time>2011-01-30T08:01:37Z</time>
      </trkpt>
      <trkpt lat="48.26086" lon="2.42861">
        <ele>77.04</ele>
        <time>2011-01-30T08:01:38Z</time>
      </trkpt>
      <trkpt lat="48.26074" lon="2.42855">
        <ele>75.12</ele>
        <time>2011-01-30T08:01:41Z</time>
      </trkpt>
      <trkpt lat="48.26071" lon="2.4285">
        <ele>73.68</ele>
        <time>2011-01-30T08:01:42Z</time>
      </trkpt>
      <trkpt lat="48.26068" lon="2.42835">
        <ele>71.76</ele>
        <time>2011-01-30T08:01:45Z</time>
      </trkpt>
      <trkpt lat="48.26069" lon="2.4283">
        <ele>70.79</ele>
        <time>2011-01-30T08:01:46Z</time>
      </trkpt>
      <trkpt lat="48.26072" lon="2.42827">
        <ele>71.27</ele>
        <time>2011-01-30T08:01:47Z</time>
      </trkpt>
      <trkpt lat="48.26075" lon="2.42825">
        <ele>71.27</ele>
        <time>2011-01-30T08:01:48Z</time>
      </trkpt>
      <trkpt lat="48.26078" lon="2.42822">
        <ele>71.27</ele>
        <time>2011-01-30T08:01:49Z</time>
      </trkpt>
      <trkpt lat="48.26082" lon="2.4282">
        <ele>71.27</ele>
        <time>2011-01-30T08:01:50Z</time>
      </trkpt>
      <trkpt lat="48.26085" lon="2.42817">
        <ele>71.27</ele>
        <time>2011-01-30T08:01:51Z</time>
      </trkpt>
      <trkpt lat="48.26127" lon="2.42796">
        <ele>71.76</ele>
        <time>2011-01-30T08:02:03Z</time>
      </trkpt>
      <trkpt lat="48.26145" lon="2.42776">
        <ele>71.27</ele>
        <time>2011-01-30T08:02:09Z</time>
      </trkpt>
      <trkpt lat="48.2618" lon="2.42704">
        <ele>71.76</ele>
        <time>2011-01-30T08:02:24Z</time>
      </trkpt>
      <trkpt lat="48.26187" lon="2.42683">
        <ele>70.79</ele>
        <time>2011-01-30T08:02:28Z</time>
      </trkpt>
      <trkpt lat="48.26197" lon="2.42654">
        <ele>69.83</ele>
        <time>2011-01-30T08:02:33Z</time>
      </trkpt>
      <trkpt lat="48.26204" lon="2.42636">
        <ele>68.87</ele>
        <time>2011-01-30T08:02:36Z</time>
      </trkpt>
      <trkpt lat="48.26207" lon="2.4263">
        <ele>68.39</ele>
        <time>2011-01-30T08:02:37Z</time>
      </trkpt>
      <trkpt lat="48.26216" lon="2.42609">
        <ele>67.43</ele>
        <time>2011-01-30T08:02:40Z</time>
      </trkpt>
      <trkpt lat="48.26223" lon="2.42593">
        <ele>66.47</ele>
        <time>2011-01-30T08:02:42Z</time>
      </trkpt>
      <trkpt lat="48.2627" lon="2.42517">
        <ele>66.47</ele>
        <time>2011-01-30T08:02:55Z</time>
      </trkpt>
      <trkpt lat="48.26337" lon="2.42445">
        <ele>65.99</ele>
        <time>2011-01-30T08:03:11Z</time>
      </trkpt>
      <trkpt lat="48.26418" lon="2.42352">
        <ele>65.51</ele>
        <time>2011-01-30T08:03:29Z</time>
      </trkpt>
      <trkpt lat="48.26488" lon="2.42295">
        <ele>64.55</ele>
        <time>2011-01-30T08:03:43Z</time>
      </trkpt>
      <trkpt lat="48.26563" lon="2.4224">
        <ele>64.55</ele>
        <time>2011-01-30T08:04:00Z</time>
      </trkpt>
      <trkpt lat="48.26644" lon="2.42198">
        <ele>63.1</ele>
        <time>2011-01-30T08:04:17Z</time>
      </trkpt>
      <trkpt lat="48.26665" lon="2.42188">
        <ele>62.62</ele>
        <time>2011-01-30T08:04:21Z</time>
      </trkpt>
      <trkpt lat="48.26739" lon="2.42177">
        <ele>62.62</ele>
        <time>2011-01-30T08:04:35Z</time>
      </trkpt>
      <trkpt lat="48.26812" lon="2.42173">
        <ele>61.18</ele>
        <time>2011-01-30T08:04:50Z</time>
      </trkpt>
      <trkpt lat="48.26848" lon="2.42173">
        <ele>61.18</ele>
        <time>2011-01-30T08:04:58Z</time>
      </trkpt>
      <trkpt lat="48.26917" lon="2.42188">
        <ele>61.66</ele>
        <time>2011-01-30T08:05:13Z</time>
      </trkpt>
      <trkpt lat="48.26922" lon="2.42189">
        <ele>61.66</ele>
        <time>2011-01-30T08:05:14Z</time>
      </trkpt>
      <trkpt lat="48.26989" lon="2.42186">
        <ele>61.66</ele>
        <time>2011-01-30T08:05:26Z</time>
      </trkpt>
      <trkpt lat="48.26999" lon="2.42187">
        <ele>61.66</ele>
        <time>2011-01-30T08:05:28Z</time>
      </trkpt>
      <trkpt lat="48.27004" lon="2.42189">
        <ele>61.66</ele>
        <time>2011-01-30T08:05:29Z</time>
      </trkpt>
      <trkpt lat="48.27009" lon="2.4219">
        <ele>62.14</ele>
        <time>2011-01-30T08:05:30Z</time>
      </trkpt>
      <trkpt lat="48.27014" lon="2.42192">
        <ele>62.14</ele>
        <time>2011-01-30T08:05:31Z</time>
      </trkpt>
      <trkpt lat="48.27019" lon="2.42194">
        <ele>62.14</ele>
        <time>2011-01-30T08:05:32Z</time>
      </trkpt>
      <trkpt lat="48.27023" lon="2.42196">
        <ele>61.66</ele>
        <time>2011-01-30T08:05:33Z</time>
      </trkpt>
      <trkpt lat="48.27087" lon="2.42245">
        <ele>64.07</ele>
        <time>2011-01-30T08:05:46Z</time>
      </trkpt>
      <trkpt lat="48.27097" lon="2.42254">
        <ele>64.55</ele>
        <time>2011-01-30T08:05:48Z</time>
      </trkpt>
      <trkpt lat="48.27102" lon="2.42259">
        <ele>65.03</ele>
        <time>2011-01-30T08:05:49Z</time>
      </trkpt>
      <trkpt lat="48.27126" lon="2.42277">
        <ele>65.99</ele>
        <time>2011-01-30T08:05:54Z</time>
      </trkpt>
      <trkpt lat="48.27132" lon="2.4228">
        <ele>65.99</ele>
        <time>2011-01-30T08:05:55Z</time>
      </trkpt>
      <trkpt lat="48.27188" lon="2.42292">
        <ele>65.99</ele>
        <time>2011-01-30T08:06:06Z</time>
      </trkpt>
      <trkpt lat="48.27245" lon="2.42304">
        <ele>65.99</ele>
        <time>2011-01-30T08:06:17Z</time>
      </trkpt>
      <trkpt lat="48.27255" lon="2.42304">
        <ele>65.99</ele>
        <time>2011-01-30T08:06:19Z</time>
      </trkpt>
      <trkpt lat="48.2726" lon="2.42305">
        <ele>65.99</ele>
        <time>2011-01-30T08:06:20Z</time>
      </trkpt>
      <trkpt lat="48.27331" lon="2.42335">
        <ele>65.03</ele>
        <time>2011-01-30T08:06:35Z</time>
      </trkpt>
      <trkpt lat="48.27363" lon="2.42355">
        <ele>65.51</ele>
        <time>2011-01-30T08:06:42Z</time>
      </trkpt>
      <trkpt lat="48.27371" lon="2.42362">
        <ele>65.99</ele>
        <time>2011-01-30T08:06:44Z</time>
      </trkpt>
      <trkpt lat="48.27382" lon="2.42374">
        <ele>66.47</ele>
        <time>2011-01-30T08:06:47Z</time>
      </trkpt>
      <trkpt lat="48.27385" lon="2.42379">
        <ele>66.47</ele>
        <time>2011-01-30T08:06:48Z</time>
      </trkpt>
      <trkpt lat="48.27418" lon="2.4244">
        <ele>65.99</ele>
        <time>2011-01-30T08:06:59Z</time>
      </trkpt>
      <trkpt lat="48.27432" lon="2.42457">
        <ele>65.99</ele>
        <time>2011-01-30T08:07:03Z</time>
      </trkpt>
      <trkpt lat="48.27491" lon="2.42497">
        <ele>64.55</ele>
        <time>2011-01-30T08:07:16Z</time>
      </trkpt>
      <trkpt lat="48.275" lon="2.42503">
        <ele>64.07</ele>
        <time>2011-01-30T08:07:18Z</time>
      </trkpt>
      <trkpt lat="48.27522" lon="2.42515">
        <ele>65.03</ele>
        <time>2011-01-30T08:07:23Z</time>
      </trkpt>
      <trkpt lat="48.27526" lon="2.42512">
        <ele>64.55</ele>
        <time>2011-01-30T08:07:24Z</time>
      </trkpt>
      <trkpt lat="48.27529" lon="2.42508">
        <ele>64.55</ele>
        <time>2011-01-30T08:07:25Z</time>
      </trkpt>
      <trkpt lat="48.27532" lon="2.42503">
        <ele>63.1</ele>
        <time>2011-01-30T08:07:26Z</time>
      </trkpt>
      <trkpt lat="48.27534" lon="2.42497">
        <ele>62.62</ele>
        <time>2011-01-30T08:07:27Z</time>
      </trkpt>
      <trkpt lat="48.27535" lon="2.4249">
        <ele>62.14</ele>
        <time>2011-01-30T08:07:28Z</time>
      </trkpt>
      <trkpt lat="48.27537" lon="2.42482">
        <ele>62.14</ele>
        <time>2011-01-30T08:07:29Z</time>
      </trkpt>
      <trkpt lat="48.27542" lon="2.42458">
        <ele>61.66</ele>
        <time>2011-01-30T08:07:32Z</time>
      </trkpt>
      <trkpt lat="48.27552" lon="2.42387">
        <ele>60.7</ele>
        <time>2011-01-30T08:07:42Z</time>
      </trkpt>
      <trkpt lat="48.27551" lon="2.42381">
        <ele>60.7</ele>
        <time>2011-01-30T08:07:43Z</time>
      </trkpt>
      <trkpt lat="48.2755" lon="2.42375">
        <ele>60.7</ele>
        <time>2011-01-30T08:07:44Z</time>
      </trkpt>
      <trkpt lat="48.2755" lon="2.42369">
        <ele>60.7</ele>
        <time>2011-01-30T08:07:45Z</time>
      </trkpt>
      <trkpt lat="48.2755" lon="2.42363">
        <ele>60.7</ele>
        <time>2011-01-30T08:07:46Z</time>
      </trkpt>
      <trkpt lat="48.27551" lon="2.42356">
        <ele>60.7</ele>
        <time>2011-01-30T08:07:47Z</time>
      </trkpt>
      <trkpt lat="48.27552" lon="2.4235">
        <ele>60.22</ele>
        <time>2011-01-30T08:07:48Z</time>
      </trkpt>
      <trkpt lat="48.27553" lon="2.42343">
        <ele>61.18</ele>
        <time>2011-01-30T08:07:49Z</time>
      </trkpt>
      <trkpt lat="48.27554" lon="2.42337">
        <ele>61.18</ele>
        <time>2011-01-30T08:07:50Z</time>
      </trkpt>
      <trkpt lat="48.27556" lon="2.42332">
        <ele>61.18</ele>
        <time>2011-01-30T08:07:51Z</time>
      </trkpt>
      <trkpt lat="48.27557" lon="2.42326">
        <ele>61.66</ele>
        <time>2011-01-30T08:07:52Z</time>
      </trkpt>
      <trkpt lat="48.27557" lon="2.4232">
        <ele>61.66</ele>
        <time>2011-01-30T08:07:53Z</time>
      </trkpt>
      <trkpt lat="48.27563" lon="2.4225">
        <ele>62.14</ele>
        <time>2011-01-30T08:08:05Z</time>
      </trkpt>
      <trkpt lat="48.27565" lon="2.42189">
        <ele>62.14</ele>
        <time>2011-01-30T08:08:16Z</time>
      </trkpt>
      <trkpt lat="48.27566" lon="2.42162">
        <ele>62.14</ele>
        <time>2011-01-30T08:08:20Z</time>
      </trkpt>
      <trkpt lat="48.27567" lon="2.42156">
        <ele>62.14</ele>
        <time>2011-01-30T08:08:21Z</time>
      </trkpt>
      <trkpt lat="48.27568" lon="2.42149">
        <ele>61.66</ele>
        <time>2011-01-30T08:08:22Z</time>
      </trkpt>
      <trkpt lat="48.27582" lon="2.42075">
        <ele>62.14</ele>
        <time>2011-01-30T08:08:34Z</time>
      </trkpt>
      <trkpt lat="48.27595" lon="2.42029">
        <ele>59.26</ele>
        <time>2011-01-30T08:08:42Z</time>
      </trkpt>
      <trkpt lat="48.27599" lon="2.42022">
        <ele>59.26</ele>
        <time>2011-01-30T08:08:43Z</time>
      </trkpt>
      <trkpt lat="48.27603" lon="2.42018">
        <ele>58.78</ele>
        <time>2011-01-30T08:08:44Z</time>
      </trkpt>
      <trkpt lat="48.27607" lon="2.42015">
        <ele>59.26</ele>
        <time>2011-01-30T08:08:45Z</time>
      </trkpt>
      <trkpt lat="48.27611" lon="2.42014">
        <ele>58.78</ele>
        <time>2011-01-30T08:08:46Z</time>
      </trkpt>
      <trkpt lat="48.27615" lon="2.42014">
        <ele>59.26</ele>
        <time>2011-01-30T08:08:47Z</time>
      </trkpt>
      <trkpt lat="48.27631" lon="2.42011">
        <ele>59.26</ele>
        <time>2011-01-30T08:08:51Z</time>
      </trkpt>
      <trkpt lat="48.27636" lon="2.4201">
        <ele>59.26</ele>
        <time>2011-01-30T08:08:52Z</time>
      </trkpt>
      <trkpt lat="48.27641" lon="2.4201">
        <ele>59.26</ele>
        <time>2011-01-30T08:08:53Z</time>
      </trkpt>
      <trkpt lat="48.27645" lon="2.4201">
        <ele>59.26</ele>
        <time>2011-01-30T08:08:54Z</time>
      </trkpt>
      <trkpt lat="48.2765" lon="2.42009">
        <ele>58.78</ele>
        <time>2011-01-30T08:08:55Z</time>
      </trkpt>
      <trkpt lat="48.27654" lon="2.4201">
        <ele>59.26</ele>
        <time>2011-01-30T08:08:56Z</time>
      </trkpt>
      <trkpt lat="48.27657" lon="2.42011">
        <ele>59.26</ele>
        <time>2011-01-30T08:08:57Z</time>
      </trkpt>
      <trkpt lat="48.2766" lon="2.42012">
        <ele>59.26</ele>
        <time>2011-01-30T08:08:58Z</time>
      </trkpt>
      <trkpt lat="48.27662" lon="2.42011">
        <ele>59.26</ele>
        <time>2011-01-30T08:08:59Z</time>
      </trkpt>
      <trkpt lat="48.27663" lon="2.4201">
        <ele>59.26</ele>
        <time>2011-01-30T08:09:00Z</time>
      </trkpt>
      <trkpt lat="48.27693" lon="2.42007">
        <ele>59.26</ele>
        <time>2011-01-30T08:09:11Z</time>
      </trkpt>
      <trkpt lat="48.27731" lon="2.42004">
        <ele>59.26</ele>
        <time>2011-01-30T08:09:22Z</time>
      </trkpt>
      <trkpt lat="48.27773" lon="2.42002">
        <ele>59.26</ele>
        <time>2011-01-30T08:09:34Z</time>
      </trkpt>
      <trkpt lat="48.2781" lon="2.41999">
        <ele>60.22</ele>
        <time>2011-01-30T08:09:45Z</time>
      </trkpt>
      <trkpt lat="48.27822" lon="2.42005">
        <ele>61.18</ele>
        <time>2011-01-30T08:09:48Z</time>
      </trkpt>
      <trkpt lat="48.27824" lon="2.42008">
        <ele>61.18</ele>
        <time>2011-01-30T08:09:49Z</time>
      </trkpt>
      <trkpt lat="48.27825" lon="2.42013">
        <ele>61.18</ele>
        <time>2011-01-30T08:09:50Z</time>
      </trkpt>
      <trkpt lat="48.27818" lon="2.42086">
        <ele>61.18</ele>
        <time>2011-01-30T08:10:03Z</time>
      </trkpt>
      <trkpt lat="48.27809" lon="2.42162">
        <ele>60.7</ele>
        <time>2011-01-30T08:10:16Z</time>
      </trkpt>
      <trkpt lat="48.27799" lon="2.42246">
        <ele>61.18</ele>
        <time>2011-01-30T08:10:30Z</time>
      </trkpt>
      <trkpt lat="48.27791" lon="2.4231">
        <ele>60.7</ele>
        <time>2011-01-30T08:10:40Z</time>
      </trkpt>
      <trkpt lat="48.2779" lon="2.42316">
        <ele>60.7</ele>
        <time>2011-01-30T08:10:41Z</time>
      </trkpt>
      <trkpt lat="48.27788" lon="2.42322">
        <ele>60.7</ele>
        <time>2011-01-30T08:10:42Z</time>
      </trkpt>
      <trkpt lat="48.27788" lon="2.42328">
        <ele>60.22</ele>
        <time>2011-01-30T08:10:43Z</time>
      </trkpt>
      <trkpt lat="48.27788" lon="2.42334">
        <ele>60.7</ele>
        <time>2011-01-30T08:10:44Z</time>
      </trkpt>
      <trkpt lat="48.27781" lon="2.42402">
        <ele>60.22</ele>
        <time>2011-01-30T08:10:56Z</time>
      </trkpt>
      <trkpt lat="48.27776" lon="2.42456">
        <ele>61.18</ele>
        <time>2011-01-30T08:11:05Z</time>
      </trkpt>
      <trkpt lat="48.27775" lon="2.42463">
        <ele>60.7</ele>
        <time>2011-01-30T08:11:06Z</time>
      </trkpt>
      <trkpt lat="48.27774" lon="2.42469">
        <ele>61.18</ele>
        <time>2011-01-30T08:11:07Z</time>
      </trkpt>
      <trkpt lat="48.27759" lon="2.42562">
        <ele>61.66</ele>
        <time>2011-01-30T08:11:22Z</time>
      </trkpt>
      <trkpt lat="48.27749" lon="2.42612">
        <ele>61.66</ele>
        <time>2011-01-30T08:11:30Z</time>
      </trkpt>
      <trkpt lat="48.27749" lon="2.42618">
        <ele>61.66</ele>
        <time>2011-01-30T08:11:31Z</time>
      </trkpt>
      <trkpt lat="48.2775" lon="2.42625">
        <ele>61.66</ele>
        <time>2011-01-30T08:11:32Z</time>
      </trkpt>
      <trkpt lat="48.27752" lon="2.4263">
        <ele>61.66</ele>
        <time>2011-01-30T08:11:33Z</time>
      </trkpt>
      <trkpt lat="48.27754" lon="2.42636">
        <ele>61.66</ele>
        <time>2011-01-30T08:11:34Z</time>
      </trkpt>
      <trkpt lat="48.27756" lon="2.4264">
        <ele>61.66</ele>
        <time>2011-01-30T08:11:35Z</time>
      </trkpt>
      <trkpt lat="48.27759" lon="2.42646">
        <ele>61.18</ele>
        <time>2011-01-30T08:11:36Z</time>
      </trkpt>
      <trkpt lat="48.2776" lon="2.42652">
        <ele>61.66</ele>
        <time>2011-01-30T08:11:37Z</time>
      </trkpt>
      <trkpt lat="48.27759" lon="2.42658">
        <ele>61.66</ele>
        <time>2011-01-30T08:11:38Z</time>
      </trkpt>
      <trkpt lat="48.27756" lon="2.42663">
        <ele>61.66</ele>
        <time>2011-01-30T08:11:39Z</time>
      </trkpt>
      <trkpt lat="48.27753" lon="2.42667">
        <ele>61.18</ele>
        <time>2011-01-30T08:11:40Z</time>
      </trkpt>
      <trkpt lat="48.2775" lon="2.4267">
        <ele>61.66</ele>
        <time>2011-01-30T08:11:41Z</time>
      </trkpt>
      <trkpt lat="48.27747" lon="2.42674">
        <ele>61.66</ele>
        <time>2011-01-30T08:11:42Z</time>
      </trkpt>
      <trkpt lat="48.27708" lon="2.42751">
        <ele>61.66</ele>
        <time>2011-01-30T08:11:57Z</time>
      </trkpt>
      <trkpt lat="48.27664" lon="2.42837">
        <ele>63.58</ele>
        <time>2011-01-30T08:12:14Z</time>
      </trkpt>
      <trkpt lat="48.27654" lon="2.42857">
        <ele>63.58</ele>
        <time>2011-01-30T08:12:18Z</time>
      </trkpt>
      <trkpt lat="48.27614" lon="2.42929">
        <ele>64.07</ele>
        <time>2011-01-30T08:12:33Z</time>
      </trkpt>
      <trkpt lat="48.27612" lon="2.42936">
        <ele>64.07</ele>
        <time>2011-01-30T08:12:34Z</time>
      </trkpt>
      <trkpt lat="48.2761" lon="2.42942">
        <ele>63.58</ele>
        <time>2011-01-30T08:12:35Z</time>
      </trkpt>
      <trkpt lat="48.2761" lon="2.42949">
        <ele>63.58</ele>
        <time>2011-01-30T08:12:36Z</time>
      </trkpt>
      <trkpt lat="48.27609" lon="2.42955">
        <ele>63.58</ele>
        <time>2011-01-30T08:12:37Z</time>
      </trkpt>
      <trkpt lat="48.27609" lon="2.42962">
        <ele>63.58</ele>
        <time>2011-01-30T08:12:38Z</time>
      </trkpt>
      <trkpt lat="48.27623" lon="2.43048">
        <ele>64.55</ele>
        <time>2011-01-30T08:12:52Z</time>
      </trkpt>
      <trkpt lat="48.27631" lon="2.43056">
        <ele>65.99</ele>
        <time>2011-01-30T08:12:55Z</time>
      </trkpt>
      <trkpt lat="48.27672" lon="2.43089">
        <ele>68.87</ele>
        <time>2011-01-30T08:13:10Z</time>
      </trkpt>
      <trkpt lat="48.27703" lon="2.43071">
        <ele>69.83</ele>
        <time>2011-01-30T08:13:21Z</time>
      </trkpt>
      <trkpt lat="48.27719" lon="2.43053">
        <ele>69.35</ele>
        <time>2011-01-30T08:13:27Z</time>
      </trkpt>
      <trkpt lat="48.27722" lon="2.4305">
        <ele>69.35</ele>
        <time>2011-01-30T08:13:28Z</time>
      </trkpt>
      <trkpt lat="48.27761" lon="2.43013">
        <ele>69.35</ele>
        <time>2011-01-30T08:13:40Z</time>
      </trkpt>
      <trkpt lat="48.2779" lon="2.4297">
        <ele>69.35</ele>
        <time>2011-01-30T08:13:51Z</time>
      </trkpt>
      <trkpt lat="48.27809" lon="2.42908">
        <ele>69.83</ele>
        <time>2011-01-30T08:14:04Z</time>
      </trkpt>
      <trkpt lat="48.27811" lon="2.42897">
        <ele>69.35</ele>
        <time>2011-01-30T08:14:06Z</time>
      </trkpt>
      <trkpt lat="48.27811" lon="2.42851">
        <ele>67.43</ele>
        <time>2011-01-30T08:14:12Z</time>
      </trkpt>
      <trkpt lat="48.27815" lon="2.42787">
        <ele>63.58</ele>
        <time>2011-01-30T08:14:19Z</time>
      </trkpt>
      <trkpt lat="48.2782" lon="2.42743">
        <ele>61.18</ele>
        <time>2011-01-30T08:14:23Z</time>
      </trkpt>
      <trkpt lat="48.27823" lon="2.42733">
        <ele>61.18</ele>
        <time>2011-01-30T08:14:24Z</time>
      </trkpt>
      <trkpt lat="48.27834" lon="2.42698">
        <ele>62.14</ele>
        <time>2011-01-30T08:14:28Z</time>
      </trkpt>
      <trkpt lat="48.27835" lon="2.42691">
        <ele>62.62</ele>
        <time>2011-01-30T08:14:29Z</time>
      </trkpt>
      <trkpt lat="48.27841" lon="2.42666">
        <ele>63.1</ele>
        <time>2011-01-30T08:14:34Z</time>
      </trkpt>
      <trkpt lat="48.27844" lon="2.42664">
        <ele>63.58</ele>
        <time>2011-01-30T08:14:35Z</time>
      </trkpt>
      <trkpt lat="48.2787" lon="2.42651">
        <ele>65.03</ele>
        <time>2011-01-30T08:14:42Z</time>
      </trkpt>
      <trkpt lat="48.27874" lon="2.42649">
        <ele>65.03</ele>
        <time>2011-01-30T08:14:43Z</time>
      </trkpt>
      <trkpt lat="48.27878" lon="2.42649">
        <ele>65.03</ele>
        <time>2011-01-30T08:14:44Z</time>
      </trkpt>
      <trkpt lat="48.27881" lon="2.42648">
        <ele>65.51</ele>
        <time>2011-01-30T08:14:45Z</time>
      </trkpt>
      <trkpt lat="48.27885" lon="2.42648">
        <ele>65.99</ele>
        <time>2011-01-30T08:14:46Z</time>
      </trkpt>
      <trkpt lat="48.27888" lon="2.42649">
        <ele>65.99</ele>
        <time>2011-01-30T08:14:47Z</time>
      </trkpt>
      <trkpt lat="48.27891" lon="2.42651">
        <ele>65.99</ele>
        <time>2011-01-30T08:14:48Z</time>
      </trkpt>
      <trkpt lat="48.27894" lon="2.42653">
        <ele>66.47</ele>
        <time>2011-01-30T08:14:49Z</time>
      </trkpt>
      <trkpt lat="48.27896" lon="2.42656">
        <ele>66.95</ele>
        <time>2011-01-30T08:14:50Z</time>
      </trkpt>
      <trkpt lat="48.27901" lon="2.42659">
        <ele>67.91</ele>
        <time>2011-01-30T08:14:52Z</time>
      </trkpt>
      <trkpt lat="48.27927" lon="2.42673">
        <ele>70.79</ele>
        <time>2011-01-30T08:15:02Z</time>
      </trkpt>
      <trkpt lat="48.27938" lon="2.42684">
        <ele>72.72</ele>
        <time>2011-01-30T08:15:07Z</time>
      </trkpt>
      <trkpt lat="48.27951" lon="2.42712">
        <ele>76.08</ele>
        <time>2011-01-30T08:15:17Z</time>
      </trkpt>
      <trkpt lat="48.27958" lon="2.42739">
        <ele>78.97</ele>
        <time>2011-01-30T08:15:28Z</time>
      </trkpt>
      <trkpt lat="48.27961" lon="2.42744">
        <ele>79.45</ele>
        <time>2011-01-30T08:15:32Z</time>
      </trkpt>
      <trkpt lat="48.27962" lon="2.42744">
        <ele>79.93</ele>
        <time>2011-01-30T08:15:33Z</time>
      </trkpt>
      <trkpt lat="48.27963" lon="2.42745">
        <ele>79.93</ele>
        <time>2011-01-30T08:15:34Z</time>
      </trkpt>
      <trkpt lat="48.27967" lon="2.42747">
        <ele>81.85</ele>
        <time>2011-01-30T08:15:37Z</time>
      </trkpt>
      <trkpt lat="48.27972" lon="2.42749">
        <ele>81.85</ele>
        <time>2011-01-30T08:15:40Z</time>
      </trkpt>
      <trkpt lat="48.27974" lon="2.42749">
        <ele>82.33</ele>
        <time>2011-01-30T08:15:41Z</time>
      </trkpt>
      <trkpt lat="48.27976" lon="2.42748">
        <ele>82.33</ele>
        <time>2011-01-30T08:15:42Z</time>
      </trkpt>
      <trkpt lat="48.27977" lon="2.42747">
        <ele>82.33</ele>
        <time>2011-01-30T08:15:43Z</time>
      </trkpt>
      <trkpt lat="48.27978" lon="2.42745">
        <ele>82.33</ele>
        <time>2011-01-30T08:15:44Z</time>
      </trkpt>
      <trkpt lat="48.27979" lon="2.42743">
        <ele>82.81</ele>
        <time>2011-01-30T08:15:45Z</time>
      </trkpt>
      <trkpt lat="48.27998" lon="2.42714">
        <ele>83.77</ele>
        <time>2011-01-30T08:15:58Z</time>
      </trkpt>
      <trkpt lat="48.28012" lon="2.42695">
        <ele>84.73</ele>
        <time>2011-01-30T08:16:07Z</time>
      </trkpt>
      <trkpt lat="48.28013" lon="2.42691">
        <ele>84.25</ele>
        <time>2011-01-30T08:16:08Z</time>
      </trkpt>
      <trkpt lat="48.28014" lon="2.42687">
        <ele>83.77</ele>
        <time>2011-01-30T08:16:09Z</time>
      </trkpt>
      <trkpt lat="48.28015" lon="2.42682">
        <ele>83.77</ele>
        <time>2011-01-30T08:16:10Z</time>
      </trkpt>
      <trkpt lat="48.28016" lon="2.42677">
        <ele>83.77</ele>
        <time>2011-01-30T08:16:11Z</time>
      </trkpt>
      <trkpt lat="48.28016" lon="2.42672">
        <ele>82.81</ele>
        <time>2011-01-30T08:16:12Z</time>
      </trkpt>
      <trkpt lat="48.28018" lon="2.42668">
        <ele>83.29</ele>
        <time>2011-01-30T08:16:13Z</time>
      </trkpt>
      <trkpt lat="48.2802" lon="2.42664">
        <ele>83.29</ele>
        <time>2011-01-30T08:16:14Z</time>
      </trkpt>
      <trkpt lat="48.28021" lon="2.42662">
        <ele>83.29</ele>
        <time>2011-01-30T08:16:15Z</time>
      </trkpt>
      <trkpt lat="48.28023" lon="2.4266">
        <ele>83.77</ele>
        <time>2011-01-30T08:16:16Z</time>
      </trkpt>
      <trkpt lat="48.28037" lon="2.42648">
        <ele>83.29</ele>
        <time>2011-01-30T08:16:23Z</time>
      </trkpt>
      <trkpt lat="48.2804" lon="2.42646">
        <ele>82.33</ele>
        <time>2011-01-30T08:16:24Z</time>
      </trkpt>
      <trkpt lat="48.28043" lon="2.42643">
        <ele>82.33</ele>
        <time>2011-01-30T08:16:25Z</time>
      </trkpt>
      <trkpt lat="48.28046" lon="2.42639">
        <ele>81.85</ele>
        <time>2011-01-30T08:16:26Z</time>
      </trkpt>
      <trkpt lat="48.28049" lon="2.42636">
        <ele>81.85</ele>
        <time>2011-01-30T08:16:27Z</time>
      </trkpt>
      <trkpt lat="48.28052" lon="2.42632">
        <ele>82.33</ele>
        <time>2011-01-30T08:16:28Z</time>
      </trkpt>
      <trkpt lat="48.28086" lon="2.42631">
        <ele>82.33</ele>
        <time>2011-01-30T08:16:38Z</time>
      </trkpt>
      <trkpt lat="48.28115" lon="2.42651">
        <ele>84.25</ele>
        <time>2011-01-30T08:16:47Z</time>
      </trkpt>
      <trkpt lat="48.28148" lon="2.4268">
        <ele>84.25</ele>
        <time>2011-01-30T08:16:58Z</time>
      </trkpt>
      <trkpt lat="48.28154" lon="2.42685">
        <ele>83.77</ele>
        <time>2011-01-30T08:17:00Z</time>
      </trkpt>
      <trkpt lat="48.28185" lon="2.42711">
        <ele>82.81</ele>
        <time>2011-01-30T08:17:09Z</time>
      </trkpt>
      <trkpt lat="48.28198" lon="2.42721">
        <ele>81.85</ele>
        <time>2011-01-30T08:17:13Z</time>
      </trkpt>
      <trkpt lat="48.28201" lon="2.42724">
        <ele>81.37</ele>
        <time>2011-01-30T08:17:14Z</time>
      </trkpt>
      <trkpt lat="48.28207" lon="2.42735">
        <ele>80.41</ele>
        <time>2011-01-30T08:17:16Z</time>
      </trkpt>
      <trkpt lat="48.28209" lon="2.4274">
        <ele>80.41</ele>
        <time>2011-01-30T08:17:17Z</time>
      </trkpt>
      <trkpt lat="48.28213" lon="2.42744">
        <ele>79.93</ele>
        <time>2011-01-30T08:17:18Z</time>
      </trkpt>
      <trkpt lat="48.28216" lon="2.42746">
        <ele>78.97</ele>
        <time>2011-01-30T08:17:19Z</time>
      </trkpt>
      <trkpt lat="48.28221" lon="2.42749">
        <ele>78</ele>
        <time>2011-01-30T08:17:20Z</time>
      </trkpt>
      <trkpt lat="48.28225" lon="2.42751">
        <ele>77.52</ele>
        <time>2011-01-30T08:17:21Z</time>
      </trkpt>
      <trkpt lat="48.28228" lon="2.42754">
        <ele>77.04</ele>
        <time>2011-01-30T08:17:22Z</time>
      </trkpt>
      <trkpt lat="48.28233" lon="2.42756">
        <ele>76.56</ele>
        <time>2011-01-30T08:17:23Z</time>
      </trkpt>
      <trkpt lat="48.28258" lon="2.42776">
        <ele>75.12</ele>
        <time>2011-01-30T08:17:31Z</time>
      </trkpt>
      <trkpt lat="48.28263" lon="2.4279">
        <ele>76.56</ele>
        <time>2011-01-30T08:17:41Z</time>
      </trkpt>
      <trkpt lat="48.28266" lon="2.42792">
        <ele>75.6</ele>
        <time>2011-01-30T08:17:44Z</time>
      </trkpt>
      <trkpt lat="48.28267" lon="2.42795">
        <ele>75.6</ele>
        <time>2011-01-30T08:17:45Z</time>
      </trkpt>
      <trkpt lat="48.28268" lon="2.42798">
        <ele>75.12</ele>
        <time>2011-01-30T08:17:46Z</time>
      </trkpt>
      <trkpt lat="48.2827" lon="2.42802">
        <ele>74.64</ele>
        <time>2011-01-30T08:17:47Z</time>
      </trkpt>
      <trkpt lat="48.28271" lon="2.42806">
        <ele>74.16</ele>
        <time>2011-01-30T08:17:48Z</time>
      </trkpt>
      <trkpt lat="48.28273" lon="2.4281">
        <ele>74.16</ele>
        <time>2011-01-30T08:17:49Z</time>
      </trkpt>
      <trkpt lat="48.28273" lon="2.42814">
        <ele>74.16</ele>
        <time>2011-01-30T08:17:50Z</time>
      </trkpt>
      <trkpt lat="48.28273" lon="2.42817">
        <ele>74.64</ele>
        <time>2011-01-30T08:17:51Z</time>
      </trkpt>
      <trkpt lat="48.28275" lon="2.42841">
        <ele>77.52</ele>
        <time>2011-01-30T08:18:00Z</time>
      </trkpt>
      <trkpt lat="48.28272" lon="2.42879">
        <ele>79.45</ele>
        <time>2011-01-30T08:18:11Z</time>
      </trkpt>
      <trkpt lat="48.28275" lon="2.42892">
        <ele>80.41</ele>
        <time>2011-01-30T08:18:15Z</time>
      </trkpt>
      <trkpt lat="48.28276" lon="2.42895">
        <ele>80.89</ele>
        <time>2011-01-30T08:18:16Z</time>
      </trkpt>
      <trkpt lat="48.28277" lon="2.42898">
        <ele>80.89</ele>
        <time>2011-01-30T08:18:17Z</time>
      </trkpt>
      <trkpt lat="48.28278" lon="2.42901">
        <ele>80.89</ele>
        <time>2011-01-30T08:18:18Z</time>
      </trkpt>
      <trkpt lat="48.28278" lon="2.42904">
        <ele>81.37</ele>
        <time>2011-01-30T08:18:19Z</time>
      </trkpt>
      <trkpt lat="48.28278" lon="2.42907">
        <ele>81.37</ele>
        <time>2011-01-30T08:18:20Z</time>
      </trkpt>
      <trkpt lat="48.28278" lon="2.4291">
        <ele>81.37</ele>
        <time>2011-01-30T08:18:21Z</time>
      </trkpt>
      <trkpt lat="48.28277" lon="2.42914">
        <ele>81.85</ele>
        <time>2011-01-30T08:18:22Z</time>
      </trkpt>
      <trkpt lat="48.28276" lon="2.42918">
        <ele>81.85</ele>
        <time>2011-01-30T08:18:23Z</time>
      </trkpt>
      <trkpt lat="48.28275" lon="2.42922">
        <ele>81.85</ele>
        <time>2011-01-30T08:18:24Z</time>
      </trkpt>
      <trkpt lat="48.28274" lon="2.42925">
        <ele>82.33</ele>
        <time>2011-01-30T08:18:25Z</time>
      </trkpt>
      <trkpt lat="48.28274" lon="2.42929">
        <ele>82.33</ele>
        <time>2011-01-30T08:18:26Z</time>
      </trkpt>
      <trkpt lat="48.28274" lon="2.42932">
        <ele>82.33</ele>
        <time>2011-01-30T08:18:27Z</time>
      </trkpt>
      <trkpt lat="48.28273" lon="2.42936">
        <ele>82.81</ele>
        <time>2011-01-30T08:18:28Z</time>
      </trkpt>
      <trkpt lat="48.28271" lon="2.42959">
        <ele>83.77</ele>
        <time>2011-01-30T08:18:35Z</time>
      </trkpt>
      <trkpt lat="48.2827" lon="2.42962">
        <ele>83.77</ele>
        <time>2011-01-30T08:18:36Z</time>
      </trkpt>
      <trkpt lat="48.2827" lon="2.42965">
        <ele>84.25</ele>
        <time>2011-01-30T08:18:37Z</time>
      </trkpt>
      <trkpt lat="48.28259" lon="2.43013">
        <ele>85.21</ele>
        <time>2011-01-30T08:18:51Z</time>
      </trkpt>
      <trkpt lat="48.28246" lon="2.43054">
        <ele>87.62</ele>
        <time>2011-01-30T08:19:04Z</time>
      </trkpt>
      <trkpt lat="48.28231" lon="2.43102">
        <ele>89.06</ele>
        <time>2011-01-30T08:19:18Z</time>
      </trkpt>
      <trkpt lat="48.2823" lon="2.43105">
        <ele>89.54</ele>
        <time>2011-01-30T08:19:19Z</time>
      </trkpt>
      <trkpt lat="48.28229" lon="2.43107">
        <ele>89.06</ele>
        <time>2011-01-30T08:19:20Z</time>
      </trkpt>
      <trkpt lat="48.28228" lon="2.4311">
        <ele>89.06</ele>
        <time>2011-01-30T08:19:21Z</time>
      </trkpt>
      <trkpt lat="48.28221" lon="2.43125">
        <ele>89.54</ele>
        <time>2011-01-30T08:19:27Z</time>
      </trkpt>
      <trkpt lat="48.28216" lon="2.4314">
        <ele>90.98</ele>
        <time>2011-01-30T08:19:33Z</time>
      </trkpt>
      <trkpt lat="48.28217" lon="2.43142">
        <ele>90.98</ele>
        <time>2011-01-30T08:19:34Z</time>
      </trkpt>
      <trkpt lat="48.28218" lon="2.43144">
        <ele>91.46</ele>
        <time>2011-01-30T08:19:35Z</time>
      </trkpt>
      <trkpt lat="48.28237" lon="2.43169">
        <ele>92.42</ele>
        <time>2011-01-30T08:19:51Z</time>
      </trkpt>
      <trkpt lat="48.28256" lon="2.43195">
        <ele>95.31</ele>
        <time>2011-01-30T08:20:06Z</time>
      </trkpt>
      <trkpt lat="48.28275" lon="2.43218">
        <ele>97.71</ele>
        <time>2011-01-30T08:20:20Z</time>
      </trkpt>
      <trkpt lat="48.28302" lon="2.43242">
        <ele>99.15</ele>
        <time>2011-01-30T08:20:35Z</time>
      </trkpt>
      <trkpt lat="48.28345" lon="2.43269">
        <ele>100.6</ele>
        <time>2011-01-30T08:20:50Z</time>
      </trkpt>
      <trkpt lat="48.28382" lon="2.43299">
        <ele>101.08</ele>
        <time>2011-01-30T08:21:05Z</time>
      </trkpt>
      <trkpt lat="48.28422" lon="2.43328">
        <ele>101.56</ele>
        <time>2011-01-30T08:21:19Z</time>
      </trkpt>
      <trkpt lat="48.28472" lon="2.43365">
        <ele>101.08</ele>
        <time>2011-01-30T08:21:34Z</time>
      </trkpt>
      <trkpt lat="48.2853" lon="2.43409">
        <ele>101.56</ele>
        <time>2011-01-30T08:21:51Z</time>
      </trkpt>
      <trkpt lat="48.28584" lon="2.43447">
        <ele>99.15</ele>
        <time>2011-01-30T08:22:05Z</time>
      </trkpt>
      <trkpt lat="48.28648" lon="2.43492">
        <ele>97.71</ele>
        <time>2011-01-30T08:22:21Z</time>
      </trkpt>
      <trkpt lat="48.28695" lon="2.43507">
        <ele>96.27</ele>
        <time>2011-01-30T08:22:31Z</time>
      </trkpt>
      <trkpt lat="48.287" lon="2.43505">
        <ele>95.31</ele>
        <time>2011-01-30T08:22:32Z</time>
      </trkpt>
      <trkpt lat="48.28705" lon="2.43502">
        <ele>94.83</ele>
        <time>2011-01-30T08:22:33Z</time>
      </trkpt>
      <trkpt lat="48.28711" lon="2.43499">
        <ele>95.31</ele>
        <time>2011-01-30T08:22:34Z</time>
      </trkpt>
      <trkpt lat="48.28716" lon="2.43497">
        <ele>94.83</ele>
        <time>2011-01-30T08:22:35Z</time>
      </trkpt>
      <trkpt lat="48.28721" lon="2.43496">
        <ele>95.31</ele>
        <time>2011-01-30T08:22:36Z</time>
      </trkpt>
      <trkpt lat="48.28735" lon="2.43496">
        <ele>96.75</ele>
        <time>2011-01-30T08:22:39Z</time>
      </trkpt>
      <trkpt lat="48.28756" lon="2.43496">
        <ele>95.79</ele>
        <time>2011-01-30T08:22:44Z</time>
      </trkpt>
      <trkpt lat="48.28771" lon="2.43495">
        <ele>94.35</ele>
        <time>2011-01-30T08:22:47Z</time>
      </trkpt>
      <trkpt lat="48.28831" lon="2.43497">
        <ele>92.9</ele>
        <time>2011-01-30T08:22:59Z</time>
      </trkpt>
      <trkpt lat="48.28836" lon="2.43497">
        <ele>92.42</ele>
        <time>2011-01-30T08:23:00Z</time>
      </trkpt>
      <trkpt lat="48.28848" lon="2.43497">
        <ele>91.94</ele>
        <time>2011-01-30T08:23:02Z</time>
      </trkpt>
      <trkpt lat="48.28867" lon="2.43497">
        <ele>91.46</ele>
        <time>2011-01-30T08:23:05Z</time>
      </trkpt>
      <trkpt lat="48.28881" lon="2.435">
        <ele>92.42</ele>
        <time>2011-01-30T08:23:07Z</time>
      </trkpt>
      <trkpt lat="48.28886" lon="2.435">
        <ele>93.87</ele>
        <time>2011-01-30T08:23:08Z</time>
      </trkpt>
      <trkpt lat="48.28891" lon="2.43499">
        <ele>93.87</ele>
        <time>2011-01-30T08:23:09Z</time>
      </trkpt>
      <trkpt lat="48.28895" lon="2.43496">
        <ele>93.87</ele>
        <time>2011-01-30T08:23:10Z</time>
      </trkpt>
      <trkpt lat="48.28899" lon="2.43493">
        <ele>93.87</ele>
        <time>2011-01-30T08:23:11Z</time>
      </trkpt>
      <trkpt lat="48.28901" lon="2.43488">
        <ele>93.87</ele>
        <time>2011-01-30T08:23:12Z</time>
      </trkpt>
      <trkpt lat="48.28904" lon="2.43482">
        <ele>93.87</ele>
        <time>2011-01-30T08:23:13Z</time>
      </trkpt>
      <trkpt lat="48.28906" lon="2.43476">
        <ele>93.87</ele>
        <time>2011-01-30T08:23:14Z</time>
      </trkpt>
      <trkpt lat="48.28907" lon="2.4347">
        <ele>93.39</ele>
        <time>2011-01-30T08:23:15Z</time>
      </trkpt>
      <trkpt lat="48.28908" lon="2.43464">
        <ele>93.39</ele>
        <time>2011-01-30T08:23:16Z</time>
      </trkpt>
      <trkpt lat="48.28911" lon="2.43388">
        <ele>93.39</ele>
        <time>2011-01-30T08:23:28Z</time>
      </trkpt>
      <trkpt lat="48.28911" lon="2.43382">
        <ele>92.9</ele>
        <time>2011-01-30T08:23:29Z</time>
      </trkpt>
      <trkpt lat="48.28913" lon="2.43376">
        <ele>92.9</ele>
        <time>2011-01-30T08:23:30Z</time>
      </trkpt>
      <trkpt lat="48.28914" lon="2.4337">
        <ele>92.9</ele>
        <time>2011-01-30T08:23:31Z</time>
      </trkpt>
      <trkpt lat="48.28916" lon="2.43365">
        <ele>93.39</ele>
        <time>2011-01-30T08:23:32Z</time>
      </trkpt>
      <trkpt lat="48.28918" lon="2.43361">
        <ele>93.39</ele>
        <time>2011-01-30T08:23:33Z</time>
      </trkpt>
      <trkpt lat="48.2892" lon="2.43357">
        <ele>93.39</ele>
        <time>2011-01-30T08:23:34Z</time>
      </trkpt>
      <trkpt lat="48.28921" lon="2.43353">
        <ele>93.39</ele>
        <time>2011-01-30T08:23:35Z</time>
      </trkpt>
      <trkpt lat="48.28922" lon="2.43348">
        <ele>93.39</ele>
        <time>2011-01-30T08:23:36Z</time>
      </trkpt>
      <trkpt lat="48.28922" lon="2.43343">
        <ele>93.39</ele>
        <time>2011-01-30T08:23:37Z</time>
      </trkpt>
      <trkpt lat="48.28923" lon="2.43337">
        <ele>93.39</ele>
        <time>2011-01-30T08:23:38Z</time>
      </trkpt>
      <trkpt lat="48.28924" lon="2.43324">
        <ele>93.39</ele>
        <time>2011-01-30T08:23:40Z</time>
      </trkpt>
      <trkpt lat="48.28924" lon="2.43318">
        <ele>92.9</ele>
        <time>2011-01-30T08:23:41Z</time>
      </trkpt>
      <trkpt lat="48.28925" lon="2.43297">
        <ele>92.9</ele>
        <time>2011-01-30T08:23:45Z</time>
      </trkpt>
      <trkpt lat="48.28927" lon="2.43292">
        <ele>92.9</ele>
        <time>2011-01-30T08:23:46Z</time>
      </trkpt>
      <trkpt lat="48.28929" lon="2.43286">
        <ele>92.9</ele>
        <time>2011-01-30T08:23:47Z</time>
      </trkpt>
      <trkpt lat="48.28929" lon="2.4328">
        <ele>92.42</ele>
        <time>2011-01-30T08:23:48Z</time>
      </trkpt>
      <trkpt lat="48.28929" lon="2.43273">
        <ele>92.42</ele>
        <time>2011-01-30T08:23:49Z</time>
      </trkpt>
      <trkpt lat="48.28929" lon="2.43267">
        <ele>92.42</ele>
        <time>2011-01-30T08:23:50Z</time>
      </trkpt>
      <trkpt lat="48.2893" lon="2.43261">
        <ele>92.42</ele>
        <time>2011-01-30T08:23:51Z</time>
      </trkpt>
      <trkpt lat="48.28932" lon="2.43255">
        <ele>92.42</ele>
        <time>2011-01-30T08:23:52Z</time>
      </trkpt>
      <trkpt lat="48.28933" lon="2.43249">
        <ele>91.94</ele>
        <time>2011-01-30T08:23:53Z</time>
      </trkpt>
      <trkpt lat="48.28933" lon="2.43243">
        <ele>91.94</ele>
        <time>2011-01-30T08:23:54Z</time>
      </trkpt>
      <trkpt lat="48.28932" lon="2.43237">
        <ele>91.94</ele>
        <time>2011-01-30T08:23:55Z</time>
      </trkpt>
      <trkpt lat="48.28931" lon="2.43231">
        <ele>91.46</ele>
        <time>2011-01-30T08:23:56Z</time>
      </trkpt>
      <trkpt lat="48.2893" lon="2.43224">
        <ele>91.46</ele>
        <time>2011-01-30T08:23:57Z</time>
      </trkpt>
      <trkpt lat="48.28931" lon="2.43218">
        <ele>90.98</ele>
        <time>2011-01-30T08:23:58Z</time>
      </trkpt>
      <trkpt lat="48.28933" lon="2.43214">
        <ele>90.98</ele>
        <time>2011-01-30T08:23:59Z</time>
      </trkpt>
      <trkpt lat="48.28936" lon="2.43209">
        <ele>90.98</ele>
        <time>2011-01-30T08:24:00Z</time>
      </trkpt>
      <trkpt lat="48.28939" lon="2.43207">
        <ele>90.98</ele>
        <time>2011-01-30T08:24:01Z</time>
      </trkpt>
      <trkpt lat="48.28942" lon="2.43206">
        <ele>90.98</ele>
        <time>2011-01-30T08:24:02Z</time>
      </trkpt>
      <trkpt lat="48.28946" lon="2.43206">
        <ele>91.46</ele>
        <time>2011-01-30T08:24:03Z</time>
      </trkpt>
      <trkpt lat="48.28949" lon="2.43207">
        <ele>90.98</ele>
        <time>2011-01-30T08:24:04Z</time>
      </trkpt>
      <trkpt lat="48.28954" lon="2.43208">
        <ele>90.02</ele>
        <time>2011-01-30T08:24:05Z</time>
      </trkpt>
      <trkpt lat="48.28959" lon="2.4321">
        <ele>89.54</ele>
        <time>2011-01-30T08:24:06Z</time>
      </trkpt>
      <trkpt lat="48.28964" lon="2.43214">
        <ele>89.06</ele>
        <time>2011-01-30T08:24:07Z</time>
      </trkpt>
      <trkpt lat="48.28975" lon="2.43222">
        <ele>88.58</ele>
        <time>2011-01-30T08:24:09Z</time>
      </trkpt>
      <trkpt lat="48.28993" lon="2.43229">
        <ele>86.66</ele>
        <time>2011-01-30T08:24:13Z</time>
      </trkpt>
      <trkpt lat="48.28996" lon="2.43233">
        <ele>86.18</ele>
        <time>2011-01-30T08:24:14Z</time>
      </trkpt>
      <trkpt lat="48.29" lon="2.43236">
        <ele>85.69</ele>
        <time>2011-01-30T08:24:15Z</time>
      </trkpt>
      <trkpt lat="48.29005" lon="2.43239">
        <ele>85.21</ele>
        <time>2011-01-30T08:24:16Z</time>
      </trkpt>
      <trkpt lat="48.29009" lon="2.43241">
        <ele>84.73</ele>
        <time>2011-01-30T08:24:17Z</time>
      </trkpt>
      <trkpt lat="48.29014" lon="2.43244">
        <ele>83.77</ele>
        <time>2011-01-30T08:24:18Z</time>
      </trkpt>
      <trkpt lat="48.29019" lon="2.43248">
        <ele>82.81</ele>
        <time>2011-01-30T08:24:19Z</time>
      </trkpt>
      <trkpt lat="48.29023" lon="2.43254">
        <ele>82.33</ele>
        <time>2011-01-30T08:24:20Z</time>
      </trkpt>
      <trkpt lat="48.29027" lon="2.4326">
        <ele>81.85</ele>
        <time>2011-01-30T08:24:21Z</time>
      </trkpt>
      <trkpt lat="48.29031" lon="2.43267">
        <ele>81.37</ele>
        <time>2011-01-30T08:24:22Z</time>
      </trkpt>
      <trkpt lat="48.29036" lon="2.43271">
        <ele>80.89</ele>
        <time>2011-01-30T08:24:23Z</time>
      </trkpt>
      <trkpt lat="48.29048" lon="2.43277">
        <ele>78.48</ele>
        <time>2011-01-30T08:24:25Z</time>
      </trkpt>
      <trkpt lat="48.29054" lon="2.4328">
        <ele>78</ele>
        <time>2011-01-30T08:24:26Z</time>
      </trkpt>
      <trkpt lat="48.29058" lon="2.43282">
        <ele>77.52</ele>
        <time>2011-01-30T08:24:27Z</time>
      </trkpt>
      <trkpt lat="48.29061" lon="2.43281">
        <ele>76.56</ele>
        <time>2011-01-30T08:24:28Z</time>
      </trkpt>
      <trkpt lat="48.29064" lon="2.43281">
        <ele>76.08</ele>
        <time>2011-01-30T08:24:29Z</time>
      </trkpt>
      <trkpt lat="48.29067" lon="2.43281">
        <ele>74.64</ele>
        <time>2011-01-30T08:24:30Z</time>
      </trkpt>
      <trkpt lat="48.29071" lon="2.43283">
        <ele>73.68</ele>
        <time>2011-01-30T08:24:31Z</time>
      </trkpt>
      <trkpt lat="48.29075" lon="2.43287">
        <ele>72.24</ele>
        <time>2011-01-30T08:24:32Z</time>
      </trkpt>
      <trkpt lat="48.2908" lon="2.4329">
        <ele>71.27</ele>
        <time>2011-01-30T08:24:33Z</time>
      </trkpt>
      <trkpt lat="48.29084" lon="2.43294">
        <ele>70.79</ele>
        <time>2011-01-30T08:24:34Z</time>
      </trkpt>
      <trkpt lat="48.29089" lon="2.43298">
        <ele>69.83</ele>
        <time>2011-01-30T08:24:35Z</time>
      </trkpt>
      <trkpt lat="48.29093" lon="2.43302">
        <ele>68.39</ele>
        <time>2011-01-30T08:24:36Z</time>
      </trkpt>
      <trkpt lat="48.29096" lon="2.43307">
        <ele>67.91</ele>
        <time>2011-01-30T08:24:37Z</time>
      </trkpt>
      <trkpt lat="48.291" lon="2.43312">
        <ele>67.91</ele>
        <time>2011-01-30T08:24:38Z</time>
      </trkpt>
      <trkpt lat="48.29111" lon="2.43329">
        <ele>65.51</ele>
        <time>2011-01-30T08:24:41Z</time>
      </trkpt>
      <trkpt lat="48.29115" lon="2.43335">
        <ele>65.51</ele>
        <time>2011-01-30T08:24:42Z</time>
      </trkpt>
      <trkpt lat="48.2912" lon="2.4334">
        <ele>65.51</ele>
        <time>2011-01-30T08:24:43Z</time>
      </trkpt>
      <trkpt lat="48.29125" lon="2.43343">
        <ele>65.03</ele>
        <time>2011-01-30T08:24:44Z</time>
      </trkpt>
      <trkpt lat="48.29131" lon="2.43347">
        <ele>65.51</ele>
        <time>2011-01-30T08:24:45Z</time>
      </trkpt>
      <trkpt lat="48.29161" lon="2.43369">
        <ele>65.99</ele>
        <time>2011-01-30T08:24:53Z</time>
      </trkpt>
      <trkpt lat="48.29165" lon="2.4337">
        <ele>65.51</ele>
        <time>2011-01-30T08:24:54Z</time>
      </trkpt>
      <trkpt lat="48.29169" lon="2.4337">
        <ele>65.99</ele>
        <time>2011-01-30T08:24:55Z</time>
      </trkpt>
      <trkpt lat="48.29174" lon="2.4337">
        <ele>65.03</ele>
        <time>2011-01-30T08:24:56Z</time>
      </trkpt>
      <trkpt lat="48.29179" lon="2.43369">
        <ele>65.03</ele>
        <time>2011-01-30T08:24:57Z</time>
      </trkpt>
      <trkpt lat="48.29184" lon="2.43368">
        <ele>65.03</ele>
        <time>2011-01-30T08:24:58Z</time>
      </trkpt>
      <trkpt lat="48.29189" lon="2.43367">
        <ele>64.55</ele>
        <time>2011-01-30T08:24:59Z</time>
      </trkpt>
      <trkpt lat="48.29194" lon="2.43366">
        <ele>64.55</ele>
        <time>2011-01-30T08:25:00Z</time>
      </trkpt>
      <trkpt lat="48.2922" lon="2.43366">
        <ele>63.58</ele>
        <time>2011-01-30T08:25:05Z</time>
      </trkpt>
      <trkpt lat="48.29225" lon="2.43367">
        <ele>63.1</ele>
        <time>2011-01-30T08:25:06Z</time>
      </trkpt>
      <trkpt lat="48.29238" lon="2.43372">
        <ele>63.1</ele>
        <time>2011-01-30T08:25:09Z</time>
      </trkpt>
      <trkpt lat="48.29243" lon="2.43372">
        <ele>62.62</ele>
        <time>2011-01-30T08:25:10Z</time>
      </trkpt>
      <trkpt lat="48.29258" lon="2.43372">
        <ele>62.14</ele>
        <time>2011-01-30T08:25:13Z</time>
      </trkpt>
      <trkpt lat="48.29263" lon="2.43374">
        <ele>62.14</ele>
        <time>2011-01-30T08:25:14Z</time>
      </trkpt>
      <trkpt lat="48.29266" lon="2.43377">
        <ele>62.14</ele>
        <time>2011-01-30T08:25:15Z</time>
      </trkpt>
      <trkpt lat="48.2927" lon="2.43381">
        <ele>62.14</ele>
        <time>2011-01-30T08:25:16Z</time>
      </trkpt>
      <trkpt lat="48.29273" lon="2.43385">
        <ele>61.66</ele>
        <time>2011-01-30T08:25:17Z</time>
      </trkpt>
      <trkpt lat="48.29298" lon="2.43398">
        <ele>60.22</ele>
        <time>2011-01-30T08:25:25Z</time>
      </trkpt>
      <trkpt lat="48.293" lon="2.43401">
        <ele>60.22</ele>
        <time>2011-01-30T08:25:26Z</time>
      </trkpt>
      <trkpt lat="48.29326" lon="2.43466">
        <ele>60.22</ele>
        <time>2011-01-30T08:25:40Z</time>
      </trkpt>
      <trkpt lat="48.29355" lon="2.43543">
        <ele>60.7</ele>
        <time>2011-01-30T08:25:55Z</time>
      </trkpt>
      <trkpt lat="48.29372" lon="2.43578">
        <ele>60.7</ele>
        <time>2011-01-30T08:26:03Z</time>
      </trkpt>
      <trkpt lat="48.29375" lon="2.43579">
        <ele>60.7</ele>
        <time>2011-01-30T08:26:04Z</time>
      </trkpt>
      <trkpt lat="48.29378" lon="2.43579">
        <ele>60.7</ele>
        <time>2011-01-30T08:26:05Z</time>
      </trkpt>
      <trkpt lat="48.29402" lon="2.43583">
        <ele>61.18</ele>
        <time>2011-01-30T08:26:16Z</time>
      </trkpt>
      <trkpt lat="48.29405" lon="2.43591">
        <ele>61.18</ele>
        <time>2011-01-30T08:26:28Z</time>
      </trkpt>
      <trkpt lat="48.29406" lon="2.43592">
        <ele>61.18</ele>
        <time>2011-01-30T08:26:40Z</time>
      </trkpt>
      <trkpt lat="48.29406" lon="2.43592">
        <ele>60.7</ele>
        <time>2011-01-30T08:27:12Z</time>
      </trkpt>
      <trkpt lat="48.29407" lon="2.43592">
        <ele>61.18</ele>
        <time>2011-01-30T08:27:46Z</time>
      </trkpt>
      <trkpt lat="48.29407" lon="2.43592">
        <ele>61.18</ele>
        <time>2011-01-30T08:28:15Z</time>
      </trkpt>
      <trkpt lat="48.29407" lon="2.43592">
        <ele>61.18</ele>
        <time>2011-01-30T08:28:50Z</time>
      </trkpt>
      <trkpt lat="48.29407" lon="2.43592">
        <ele>61.18</ele>
        <time>2011-01-30T08:29:24Z</time>
      </trkpt>
      <trkpt lat="48.29406" lon="2.43593">
        <ele>60.7</ele>
        <time>2011-01-30T08:29:58Z</time>
      </trkpt>
      <trkpt lat="48.29406" lon="2.43593">
        <ele>61.18</ele>
        <time>2011-01-30T08:30:32Z</time>
      </trkpt>
      <trkpt lat="48.29406" lon="2.43594">
        <ele>61.18</ele>
        <time>2011-01-30T08:31:03Z</time>
      </trkpt>
      <trkpt lat="48.29407" lon="2.43593">
        <ele>60.7</ele>
        <time>2011-01-30T08:31:26Z</time>
      </trkpt>
      <trkpt lat="48.29406" lon="2.43593">
        <ele>61.18</ele>
        <time>2011-01-30T08:31:54Z</time>
      </trkpt>
      <trkpt lat="48.29406" lon="2.43593">
        <ele>60.7</ele>
        <time>2011-01-30T08:32:21Z</time>
      </trkpt>
      <trkpt lat="48.29406" lon="2.43593">
        <ele>61.18</ele>
        <time>2011-01-30T08:32:42Z</time>
      </trkpt>
      <trkpt lat="48.29406" lon="2.43593">
        <ele>61.18</ele>
        <time>2011-01-30T08:33:11Z</time>
      </trkpt>
      <trkpt lat="48.29406" lon="2.43593">
        <ele>60.7</ele>
        <time>2011-01-30T08:33:36Z</time>
      </trkpt>
      <trkpt lat="48.29406" lon="2.43591">
        <ele>60.7</ele>
        <time>2011-01-30T08:34:02Z</time>
      </trkpt>
      <trkpt lat="48.29387" lon="2.43589">
        <ele>60.7</ele>
        <time>2011-01-30T08:34:11Z</time>
      </trkpt>
      <trkpt lat="48.29352" lon="2.43606">
        <ele>60.7</ele>
        <time>2011-01-30T08:34:22Z</time>
      </trkpt>
      <trkpt lat="48.29318" lon="2.43587">
        <ele>61.18</ele>
        <time>2011-01-30T08:34:32Z</time>
      </trkpt>
      <trkpt lat="48.29278" lon="2.4356">
        <ele>61.66</ele>
        <time>2011-01-30T08:34:43Z</time>
      </trkpt>
      <trkpt lat="48.29276" lon="2.43556">
        <ele>61.66</ele>
        <time>2011-01-30T08:34:44Z</time>
      </trkpt>
      <trkpt lat="48.29244" lon="2.43522">
        <ele>63.1</ele>
        <time>2011-01-30T08:34:55Z</time>
      </trkpt>
      <trkpt lat="48.29241" lon="2.43518">
        <ele>63.1</ele>
        <time>2011-01-30T08:34:56Z</time>
      </trkpt>
      <trkpt lat="48.29193" lon="2.43486">
        <ele>65.51</ele>
        <time>2011-01-30T08:35:09Z</time>
      </trkpt>
      <trkpt lat="48.2916" lon="2.43515">
        <ele>68.39</ele>
        <time>2011-01-30T08:35:22Z</time>
      </trkpt>
      <trkpt lat="48.2914" lon="2.43564">
        <ele>70.31</ele>
        <time>2011-01-30T08:35:36Z</time>
      </trkpt>
      <trkpt lat="48.29139" lon="2.43622">
        <ele>71.76</ele>
        <time>2011-01-30T08:35:49Z</time>
      </trkpt>
      <trkpt lat="48.29145" lon="2.43685">
        <ele>73.2</ele>
        <time>2011-01-30T08:36:03Z</time>
      </trkpt>
      <trkpt lat="48.29153" lon="2.43731">
        <ele>75.12</ele>
        <time>2011-01-30T08:36:15Z</time>
      </trkpt>
      <trkpt lat="48.29151" lon="2.43734">
        <ele>75.6</ele>
        <time>2011-01-30T08:36:16Z</time>
      </trkpt>
      <trkpt lat="48.29135" lon="2.43749">
        <ele>77.52</ele>
        <time>2011-01-30T08:36:24Z</time>
      </trkpt>
      <trkpt lat="48.29123" lon="2.43728">
        <ele>80.89</ele>
        <time>2011-01-30T08:36:33Z</time>
      </trkpt>
      <trkpt lat="48.29113" lon="2.4369">
        <ele>82.33</ele>
        <time>2011-01-30T08:36:46Z</time>
      </trkpt>
      <trkpt lat="48.29114" lon="2.4366">
        <ele>81.85</ele>
        <time>2011-01-30T08:36:54Z</time>
      </trkpt>
      <trkpt lat="48.29108" lon="2.43645">
        <ele>83.77</ele>
        <time>2011-01-30T08:36:59Z</time>
      </trkpt>
      <trkpt lat="48.29105" lon="2.43644">
        <ele>84.73</ele>
        <time>2011-01-30T08:37:09Z</time>
      </trkpt>
      <trkpt lat="48.29097" lon="2.43638">
        <ele>86.18</ele>
        <time>2011-01-30T08:37:14Z</time>
      </trkpt>
      <trkpt lat="48.2909" lon="2.43624">
        <ele>87.14</ele>
        <time>2011-01-30T08:37:20Z</time>
      </trkpt>
      <trkpt lat="48.29087" lon="2.43619">
        <ele>87.14</ele>
        <time>2011-01-30T08:37:22Z</time>
      </trkpt>
      <trkpt lat="48.2907" lon="2.43591">
        <ele>89.06</ele>
        <time>2011-01-30T08:37:32Z</time>
      </trkpt>
      <trkpt lat="48.29064" lon="2.43577">
        <ele>88.58</ele>
        <time>2011-01-30T08:37:36Z</time>
      </trkpt>
      <trkpt lat="48.29047" lon="2.43545">
        <ele>90.02</ele>
        <time>2011-01-30T08:37:47Z</time>
      </trkpt>
      <trkpt lat="48.29045" lon="2.43542">
        <ele>89.54</ele>
        <time>2011-01-30T08:37:48Z</time>
      </trkpt>
      <trkpt lat="48.29033" lon="2.43525">
        <ele>91.46</ele>
        <time>2011-01-30T08:37:55Z</time>
      </trkpt>
      <trkpt lat="48.29008" lon="2.43501">
        <ele>94.35</ele>
        <time>2011-01-30T08:38:07Z</time>
      </trkpt>
      <trkpt lat="48.29006" lon="2.435">
        <ele>94.35</ele>
        <time>2011-01-30T08:38:08Z</time>
      </trkpt>
      <trkpt lat="48.28993" lon="2.43497">
        <ele>95.79</ele>
        <time>2011-01-30T08:38:14Z</time>
      </trkpt>
      <trkpt lat="48.2898" lon="2.43494">
        <ele>96.27</ele>
        <time>2011-01-30T08:38:19Z</time>
      </trkpt>
      <trkpt lat="48.28972" lon="2.43502">
        <ele>97.23</ele>
        <time>2011-01-30T08:38:24Z</time>
      </trkpt>
      <trkpt lat="48.28965" lon="2.43576">
        <ele>96.75</ele>
        <time>2011-01-30T08:38:39Z</time>
      </trkpt>
      <trkpt lat="48.28958" lon="2.43635">
        <ele>98.67</ele>
        <time>2011-01-30T08:38:51Z</time>
      </trkpt>
      <trkpt lat="48.28952" lon="2.43691">
        <ele>98.67</ele>
        <time>2011-01-30T08:39:02Z</time>
      </trkpt>
      <trkpt lat="48.28948" lon="2.43758">
        <ele>98.67</ele>
        <time>2011-01-30T08:39:14Z</time>
      </trkpt>
      <trkpt lat="48.28943" lon="2.4381">
        <ele>98.67</ele>
        <time>2011-01-30T08:39:23Z</time>
      </trkpt>
      <trkpt lat="48.28943" lon="2.43816">
        <ele>98.67</ele>
        <time>2011-01-30T08:39:24Z</time>
      </trkpt>
      <trkpt lat="48.28942" lon="2.43822">
        <ele>98.67</ele>
        <time>2011-01-30T08:39:25Z</time>
      </trkpt>
      <trkpt lat="48.28942" lon="2.43835">
        <ele>98.67</ele>
        <time>2011-01-30T08:39:27Z</time>
      </trkpt>
      <trkpt lat="48.28942" lon="2.43853">
        <ele>98.67</ele>
        <time>2011-01-30T08:39:30Z</time>
      </trkpt>
      <trkpt lat="48.28942" lon="2.43859">
        <ele>98.19</ele>
        <time>2011-01-30T08:39:31Z</time>
      </trkpt>
      <trkpt lat="48.28942" lon="2.43866">
        <ele>98.67</ele>
        <time>2011-01-30T08:39:32Z</time>
      </trkpt>
      <trkpt lat="48.28942" lon="2.43872">
        <ele>98.67</ele>
        <time>2011-01-30T08:39:33Z</time>
      </trkpt>
      <trkpt lat="48.28942" lon="2.43878">
        <ele>98.19</ele>
        <time>2011-01-30T08:39:34Z</time>
      </trkpt>
      <trkpt lat="48.28943" lon="2.43885">
        <ele>98.19</ele>
        <time>2011-01-30T08:39:35Z</time>
      </trkpt>
      <trkpt lat="48.28943" lon="2.43891">
        <ele>97.71</ele>
        <time>2011-01-30T08:39:36Z</time>
      </trkpt>
      <trkpt lat="48.28943" lon="2.4391">
        <ele>97.71</ele>
        <time>2011-01-30T08:39:39Z</time>
      </trkpt>
      <trkpt lat="48.28943" lon="2.43916">
        <ele>97.71</ele>
        <time>2011-01-30T08:39:40Z</time>
      </trkpt>
      <trkpt lat="48.28943" lon="2.43923">
        <ele>97.23</ele>
        <time>2011-01-30T08:39:41Z</time>
      </trkpt>
      <trkpt lat="48.28943" lon="2.43929">
        <ele>96.75</ele>
        <time>2011-01-30T08:39:42Z</time>
      </trkpt>
      <trkpt lat="48.28943" lon="2.43935">
        <ele>96.75</ele>
        <time>2011-01-30T08:39:43Z</time>
      </trkpt>
      <trkpt lat="48.28944" lon="2.44002">
        <ele>95.79</ele>
        <time>2011-01-30T08:39:54Z</time>
      </trkpt>
      <trkpt lat="48.28944" lon="2.44016">
        <ele>95.31</ele>
        <time>2011-01-30T08:39:56Z</time>
      </trkpt>
      <trkpt lat="48.28944" lon="2.44023">
        <ele>94.83</ele>
        <time>2011-01-30T08:39:57Z</time>
      </trkpt>
      <trkpt lat="48.28951" lon="2.44102">
        <ele>91.46</ele>
        <time>2011-01-30T08:40:07Z</time>
      </trkpt>
      <trkpt lat="48.28954" lon="2.44112">
        <ele>90.98</ele>
        <time>2011-01-30T08:40:08Z</time>
      </trkpt>
      <trkpt lat="48.2896" lon="2.44131">
        <ele>89.54</ele>
        <time>2011-01-30T08:40:10Z</time>
      </trkpt>
      <trkpt lat="48.2897" lon="2.4416">
        <ele>85.69</ele>
        <time>2011-01-30T08:40:13Z</time>
      </trkpt>
      <trkpt lat="48.28974" lon="2.44172">
        <ele>84.73</ele>
        <time>2011-01-30T08:40:14Z</time>
      </trkpt>
      <trkpt lat="48.28978" lon="2.44185">
        <ele>84.25</ele>
        <time>2011-01-30T08:40:15Z</time>
      </trkpt>
      <trkpt lat="48.29004" lon="2.44268">
        <ele>82.33</ele>
        <time>2011-01-30T08:40:23Z</time>
      </trkpt>
      <trkpt lat="48.29007" lon="2.4427">
        <ele>82.81</ele>
        <time>2011-01-30T08:40:24Z</time>
      </trkpt>
      <trkpt lat="48.29029" lon="2.44264">
        <ele>82.81</ele>
        <time>2011-01-30T08:40:35Z</time>
      </trkpt>
      <trkpt lat="48.29058" lon="2.4423">
        <ele>79.93</ele>
        <time>2011-01-30T08:40:45Z</time>
      </trkpt>
      <trkpt lat="48.29094" lon="2.44199">
        <ele>78</ele>
        <time>2011-01-30T08:40:55Z</time>
      </trkpt>
      <trkpt lat="48.29114" lon="2.44182">
        <ele>77.52</ele>
        <time>2011-01-30T08:41:02Z</time>
      </trkpt>
      <trkpt lat="48.29129" lon="2.44188">
        <ele>78.97</ele>
        <time>2011-01-30T08:41:07Z</time>
      </trkpt>
      <trkpt lat="48.29134" lon="2.44191">
        <ele>79.93</ele>
        <time>2011-01-30T08:41:09Z</time>
      </trkpt>
      <trkpt lat="48.29142" lon="2.44204">
        <ele>83.77</ele>
        <time>2011-01-30T08:41:17Z</time>
      </trkpt>
      <trkpt lat="48.2915" lon="2.44206">
        <ele>85.21</ele>
        <time>2011-01-30T08:41:22Z</time>
      </trkpt>
      <trkpt lat="48.29159" lon="2.44196">
        <ele>86.18</ele>
        <time>2011-01-30T08:41:28Z</time>
      </trkpt>
      <trkpt lat="48.2917" lon="2.44179">
        <ele>85.69</ele>
        <time>2011-01-30T08:41:35Z</time>
      </trkpt>
      <trkpt lat="48.29177" lon="2.44176">
        <ele>87.14</ele>
        <time>2011-01-30T08:41:38Z</time>
      </trkpt>
      <trkpt lat="48.29182" lon="2.44175">
        <ele>88.1</ele>
        <time>2011-01-30T08:41:40Z</time>
      </trkpt>
      <trkpt lat="48.29186" lon="2.44175">
        <ele>89.06</ele>
        <time>2011-01-30T08:41:42Z</time>
      </trkpt>
      <trkpt lat="48.29195" lon="2.4417">
        <ele>89.54</ele>
        <time>2011-01-30T08:41:47Z</time>
      </trkpt>
      <trkpt lat="48.29204" lon="2.44174">
        <ele>89.54</ele>
        <time>2011-01-30T08:41:51Z</time>
      </trkpt>
      <trkpt lat="48.29215" lon="2.44174">
        <ele>89.54</ele>
        <time>2011-01-30T08:41:55Z</time>
      </trkpt>
      <trkpt lat="48.29242" lon="2.44165">
        <ele>91.46</ele>
        <time>2011-01-30T08:42:08Z</time>
      </trkpt>
      <trkpt lat="48.29258" lon="2.44135">
        <ele>90.98</ele>
        <time>2011-01-30T08:42:19Z</time>
      </trkpt>
      <trkpt lat="48.29265" lon="2.44122">
        <ele>90.98</ele>
        <time>2011-01-30T08:42:22Z</time>
      </trkpt>
      <trkpt lat="48.29289" lon="2.44081">
        <ele>91.46</ele>
        <time>2011-01-30T08:42:34Z</time>
      </trkpt>
      <trkpt lat="48.29298" lon="2.44062">
        <ele>90.02</ele>
        <time>2011-01-30T08:42:38Z</time>
      </trkpt>
      <trkpt lat="48.29308" lon="2.44069">
        <ele>90.98</ele>
        <time>2011-01-30T08:42:44Z</time>
      </trkpt>
      <trkpt lat="48.29302" lon="2.44112">
        <ele>94.35</ele>
        <time>2011-01-30T08:42:56Z</time>
      </trkpt>
      <trkpt lat="48.29297" lon="2.44154">
        <ele>96.27</ele>
        <time>2011-01-30T08:43:09Z</time>
      </trkpt>
      <trkpt lat="48.2929" lon="2.44201">
        <ele>99.15</ele>
        <time>2011-01-30T08:43:23Z</time>
      </trkpt>
      <trkpt lat="48.29284" lon="2.44249">
        <ele>100.6</ele>
        <time>2011-01-30T08:43:36Z</time>
      </trkpt>
      <trkpt lat="48.29275" lon="2.44302">
        <ele>101.08</ele>
        <time>2011-01-30T08:43:50Z</time>
      </trkpt>
      <trkpt lat="48.29269" lon="2.44351">
        <ele>101.08</ele>
        <time>2011-01-30T08:44:02Z</time>
      </trkpt>
      <trkpt lat="48.2926" lon="2.44408">
        <ele>100.6</ele>
        <time>2011-01-30T08:44:14Z</time>
      </trkpt>
      <trkpt lat="48.29251" lon="2.44481">
        <ele>101.56</ele>
        <time>2011-01-30T08:44:29Z</time>
      </trkpt>
      <trkpt lat="48.29242" lon="2.44538">
        <ele>101.56</ele>
        <time>2011-01-30T08:44:41Z</time>
      </trkpt>
      <trkpt lat="48.29239" lon="2.4457">
        <ele>101.08</ele>
        <time>2011-01-30T08:44:48Z</time>
      </trkpt>
      <trkpt lat="48.29245" lon="2.44584">
        <ele>101.08</ele>
        <time>2011-01-30T08:44:52Z</time>
      </trkpt>
      <trkpt lat="48.29284" lon="2.44603">
        <ele>101.56</ele>
        <time>2011-01-30T08:45:05Z</time>
      </trkpt>
      <trkpt lat="48.29319" lon="2.44625">
        <ele>101.08</ele>
        <time>2011-01-30T08:45:16Z</time>
      </trkpt>
      <trkpt lat="48.29371" lon="2.44653">
        <ele>100.11</ele>
        <time>2011-01-30T08:45:30Z</time>
      </trkpt>
      <trkpt lat="48.29382" lon="2.44658">
        <ele>99.63</ele>
        <time>2011-01-30T08:45:32Z</time>
      </trkpt>
      <trkpt lat="48.29388" lon="2.4466">
        <ele>99.15</ele>
        <time>2011-01-30T08:45:33Z</time>
      </trkpt>
      <trkpt lat="48.29395" lon="2.44663">
        <ele>98.19</ele>
        <time>2011-01-30T08:45:34Z</time>
      </trkpt>
      <trkpt lat="48.29402" lon="2.44667">
        <ele>97.71</ele>
        <time>2011-01-30T08:45:35Z</time>
      </trkpt>
      <trkpt lat="48.29408" lon="2.44674">
        <ele>97.23</ele>
        <time>2011-01-30T08:45:36Z</time>
      </trkpt>
      <trkpt lat="48.29415" lon="2.44682">
        <ele>96.75</ele>
        <time>2011-01-30T08:45:37Z</time>
      </trkpt>
      <trkpt lat="48.2942" lon="2.44689">
        <ele>96.27</ele>
        <time>2011-01-30T08:45:38Z</time>
      </trkpt>
      <trkpt lat="48.29425" lon="2.44696">
        <ele>96.27</ele>
        <time>2011-01-30T08:45:39Z</time>
      </trkpt>
      <trkpt lat="48.2943" lon="2.447">
        <ele>95.79</ele>
        <time>2011-01-30T08:45:40Z</time>
      </trkpt>
      <trkpt lat="48.29434" lon="2.44701">
        <ele>95.31</ele>
        <time>2011-01-30T08:45:41Z</time>
      </trkpt>
      <trkpt lat="48.29437" lon="2.44699">
        <ele>94.35</ele>
        <time>2011-01-30T08:45:42Z</time>
      </trkpt>
      <trkpt lat="48.29439" lon="2.44697">
        <ele>93.87</ele>
        <time>2011-01-30T08:45:43Z</time>
      </trkpt>
      <trkpt lat="48.29442" lon="2.44694">
        <ele>92.9</ele>
        <time>2011-01-30T08:45:44Z</time>
      </trkpt>
      <trkpt lat="48.29446" lon="2.44692">
        <ele>91.94</ele>
        <time>2011-01-30T08:45:45Z</time>
      </trkpt>
      <trkpt lat="48.29451" lon="2.44691">
        <ele>90.98</ele>
        <time>2011-01-30T08:45:46Z</time>
      </trkpt>
      <trkpt lat="48.29458" lon="2.44688">
        <ele>90.02</ele>
        <time>2011-01-30T08:45:48Z</time>
      </trkpt>
      <trkpt lat="48.2946" lon="2.44684">
        <ele>89.06</ele>
        <time>2011-01-30T08:45:49Z</time>
      </trkpt>
      <trkpt lat="48.29461" lon="2.44681">
        <ele>89.06</ele>
        <time>2011-01-30T08:45:50Z</time>
      </trkpt>
      <trkpt lat="48.29462" lon="2.44677">
        <ele>89.06</ele>
        <time>2011-01-30T08:45:51Z</time>
      </trkpt>
      <trkpt lat="48.29462" lon="2.44672">
        <ele>88.58</ele>
        <time>2011-01-30T08:45:52Z</time>
      </trkpt>
      <trkpt lat="48.29463" lon="2.44667">
        <ele>88.58</ele>
        <time>2011-01-30T08:45:53Z</time>
      </trkpt>
      <trkpt lat="48.29466" lon="2.44654">
        <ele>85.69</ele>
        <time>2011-01-30T08:45:55Z</time>
      </trkpt>
      <trkpt lat="48.29467" lon="2.44646">
        <ele>84.73</ele>
        <time>2011-01-30T08:45:56Z</time>
      </trkpt>
      <trkpt lat="48.29468" lon="2.44638">
        <ele>84.25</ele>
        <time>2011-01-30T08:45:57Z</time>
      </trkpt>
      <trkpt lat="48.2947" lon="2.44622">
        <ele>82.33</ele>
        <time>2011-01-30T08:45:59Z</time>
      </trkpt>
      <trkpt lat="48.29473" lon="2.4461">
        <ele>81.37</ele>
        <time>2011-01-30T08:46:01Z</time>
      </trkpt>
      <trkpt lat="48.29484" lon="2.44607">
        <ele>78.48</ele>
        <time>2011-01-30T08:46:04Z</time>
      </trkpt>
      <trkpt lat="48.29488" lon="2.44605">
        <ele>77.04</ele>
        <time>2011-01-30T08:46:05Z</time>
      </trkpt>
      <trkpt lat="48.29492" lon="2.44602">
        <ele>76.56</ele>
        <time>2011-01-30T08:46:06Z</time>
      </trkpt>
      <trkpt lat="48.295" lon="2.44583">
        <ele>75.6</ele>
        <time>2011-01-30T08:46:09Z</time>
      </trkpt>
      <trkpt lat="48.29501" lon="2.44574">
        <ele>75.6</ele>
        <time>2011-01-30T08:46:10Z</time>
      </trkpt>
      <trkpt lat="48.29501" lon="2.44567">
        <ele>75.12</ele>
        <time>2011-01-30T08:46:11Z</time>
      </trkpt>
      <trkpt lat="48.29501" lon="2.44561">
        <ele>75.12</ele>
        <time>2011-01-30T08:46:12Z</time>
      </trkpt>
      <trkpt lat="48.29501" lon="2.44554">
        <ele>74.64</ele>
        <time>2011-01-30T08:46:13Z</time>
      </trkpt>
      <trkpt lat="48.29508" lon="2.44513">
        <ele>76.08</ele>
        <time>2011-01-30T08:46:20Z</time>
      </trkpt>
      <trkpt lat="48.29511" lon="2.44508">
        <ele>75.6</ele>
        <time>2011-01-30T08:46:21Z</time>
      </trkpt>
      <trkpt lat="48.29514" lon="2.44504">
        <ele>76.08</ele>
        <time>2011-01-30T08:46:22Z</time>
      </trkpt>
      <trkpt lat="48.29516" lon="2.44499">
        <ele>76.08</ele>
        <time>2011-01-30T08:46:23Z</time>
      </trkpt>
      <trkpt lat="48.29519" lon="2.44494">
        <ele>76.08</ele>
        <time>2011-01-30T08:46:24Z</time>
      </trkpt>
      <trkpt lat="48.29521" lon="2.4449">
        <ele>76.56</ele>
        <time>2011-01-30T08:46:25Z</time>
      </trkpt>
      <trkpt lat="48.29523" lon="2.44487">
        <ele>77.04</ele>
        <time>2011-01-30T08:46:26Z</time>
      </trkpt>
      <trkpt lat="48.29527" lon="2.44477">
        <ele>75.12</ele>
        <time>2011-01-30T08:46:35Z</time>
      </trkpt>
      <trkpt lat="48.29529" lon="2.44473">
        <ele>74.16</ele>
        <time>2011-01-30T08:46:40Z</time>
      </trkpt>
      <trkpt lat="48.2953" lon="2.4447">
        <ele>73.2</ele>
        <time>2011-01-30T08:46:41Z</time>
      </trkpt>
      <trkpt lat="48.29531" lon="2.44467">
        <ele>72.72</ele>
        <time>2011-01-30T08:46:42Z</time>
      </trkpt>
      <trkpt lat="48.29532" lon="2.44465">
        <ele>72.72</ele>
        <time>2011-01-30T08:46:43Z</time>
      </trkpt>
      <trkpt lat="48.29533" lon="2.44463">
        <ele>71.76</ele>
        <time>2011-01-30T08:46:44Z</time>
      </trkpt>
      <trkpt lat="48.29537" lon="2.4445">
        <ele>69.83</ele>
        <time>2011-01-30T08:46:47Z</time>
      </trkpt>
      <trkpt lat="48.29539" lon="2.44443">
        <ele>69.35</ele>
        <time>2011-01-30T08:46:48Z</time>
      </trkpt>
      <trkpt lat="48.29542" lon="2.44429">
        <ele>69.35</ele>
        <time>2011-01-30T08:46:50Z</time>
      </trkpt>
      <trkpt lat="48.29543" lon="2.44422">
        <ele>68.87</ele>
        <time>2011-01-30T08:46:51Z</time>
      </trkpt>
      <trkpt lat="48.29544" lon="2.44416">
        <ele>68.87</ele>
        <time>2011-01-30T08:46:52Z</time>
      </trkpt>
      <trkpt lat="48.29545" lon="2.44409">
        <ele>68.39</ele>
        <time>2011-01-30T08:46:53Z</time>
      </trkpt>
      <trkpt lat="48.29546" lon="2.44401">
        <ele>67.91</ele>
        <time>2011-01-30T08:46:54Z</time>
      </trkpt>
      <trkpt lat="48.29547" lon="2.44393">
        <ele>68.39</ele>
        <time>2011-01-30T08:46:55Z</time>
      </trkpt>
      <trkpt lat="48.29548" lon="2.44377">
        <ele>67.91</ele>
        <time>2011-01-30T08:46:57Z</time>
      </trkpt>
      <trkpt lat="48.29549" lon="2.44352">
        <ele>67.91</ele>
        <time>2011-01-30T08:47:01Z</time>
      </trkpt>
      <trkpt lat="48.29549" lon="2.44338">
        <ele>67.43</ele>
        <time>2011-01-30T08:47:03Z</time>
      </trkpt>
      <trkpt lat="48.29549" lon="2.4433">
        <ele>67.91</ele>
        <time>2011-01-30T08:47:04Z</time>
      </trkpt>
      <trkpt lat="48.29547" lon="2.44277">
        <ele>66.47</ele>
        <time>2011-01-30T08:47:10Z</time>
      </trkpt>
      <trkpt lat="48.29545" lon="2.44268">
        <ele>66.47</ele>
        <time>2011-01-30T08:47:11Z</time>
      </trkpt>
      <trkpt lat="48.29542" lon="2.4425">
        <ele>66.47</ele>
        <time>2011-01-30T08:47:13Z</time>
      </trkpt>
      <trkpt lat="48.29537" lon="2.44203">
        <ele>65.51</ele>
        <time>2011-01-30T08:47:18Z</time>
      </trkpt>
      <trkpt lat="48.29532" lon="2.44176">
        <ele>65.03</ele>
        <time>2011-01-30T08:47:21Z</time>
      </trkpt>
      <trkpt lat="48.29532" lon="2.44167">
        <ele>65.03</ele>
        <time>2011-01-30T08:47:22Z</time>
      </trkpt>
      <trkpt lat="48.29531" lon="2.4415">
        <ele>65.03</ele>
        <time>2011-01-30T08:47:24Z</time>
      </trkpt>
      <trkpt lat="48.29532" lon="2.44141">
        <ele>64.55</ele>
        <time>2011-01-30T08:47:25Z</time>
      </trkpt>
      <trkpt lat="48.29535" lon="2.44125">
        <ele>64.07</ele>
        <time>2011-01-30T08:47:27Z</time>
      </trkpt>
      <trkpt lat="48.29538" lon="2.4412">
        <ele>64.55</ele>
        <time>2011-01-30T08:47:28Z</time>
      </trkpt>
      <trkpt lat="48.29543" lon="2.44118">
        <ele>65.03</ele>
        <time>2011-01-30T08:47:30Z</time>
      </trkpt>
      <trkpt lat="48.29548" lon="2.44124">
        <ele>65.03</ele>
        <time>2011-01-30T08:47:32Z</time>
      </trkpt>
      <trkpt lat="48.29552" lon="2.44127">
        <ele>65.03</ele>
        <time>2011-01-30T08:47:33Z</time>
      </trkpt>
      <trkpt lat="48.29556" lon="2.44129">
        <ele>64.07</ele>
        <time>2011-01-30T08:47:34Z</time>
      </trkpt>
      <trkpt lat="48.29561" lon="2.44129">
        <ele>65.51</ele>
        <time>2011-01-30T08:47:35Z</time>
      </trkpt>
      <trkpt lat="48.29564" lon="2.44128">
        <ele>65.99</ele>
        <time>2011-01-30T08:47:36Z</time>
      </trkpt>
      <trkpt lat="48.29579" lon="2.44128">
        <ele>65.99</ele>
        <time>2011-01-30T08:47:40Z</time>
      </trkpt>
      <trkpt lat="48.29583" lon="2.44131">
        <ele>65.99</ele>
        <time>2011-01-30T08:47:41Z</time>
      </trkpt>
      <trkpt lat="48.29587" lon="2.44135">
        <ele>65.99</ele>
        <time>2011-01-30T08:47:42Z</time>
      </trkpt>
      <trkpt lat="48.29591" lon="2.44138">
        <ele>65.99</ele>
        <time>2011-01-30T08:47:43Z</time>
      </trkpt>
      <trkpt lat="48.29594" lon="2.44141">
        <ele>66.47</ele>
        <time>2011-01-30T08:47:44Z</time>
      </trkpt>
      <trkpt lat="48.29596" lon="2.44144">
        <ele>66.95</ele>
        <time>2011-01-30T08:47:45Z</time>
      </trkpt>
      <trkpt lat="48.29598" lon="2.44146">
        <ele>67.43</ele>
        <time>2011-01-30T08:47:46Z</time>
      </trkpt>
      <trkpt lat="48.29599" lon="2.44148">
        <ele>67.43</ele>
        <time>2011-01-30T08:47:47Z</time>
      </trkpt>
      <trkpt lat="48.29599" lon="2.44151">
        <ele>66.95</ele>
        <time>2011-01-30T08:47:48Z</time>
      </trkpt>
      <trkpt lat="48.29601" lon="2.44154">
        <ele>66.95</ele>
        <time>2011-01-30T08:47:49Z</time>
      </trkpt>
      <trkpt lat="48.29603" lon="2.44158">
        <ele>67.43</ele>
        <time>2011-01-30T08:47:50Z</time>
      </trkpt>
      <trkpt lat="48.29604" lon="2.44163">
        <ele>67.43</ele>
        <time>2011-01-30T08:47:51Z</time>
      </trkpt>
      <trkpt lat="48.29617" lon="2.44182">
        <ele>69.83</ele>
        <time>2011-01-30T08:47:57Z</time>
      </trkpt>
      <trkpt lat="48.29619" lon="2.44183">
        <ele>70.31</ele>
        <time>2011-01-30T08:47:58Z</time>
      </trkpt>
      <trkpt lat="48.2962" lon="2.44185">
        <ele>70.31</ele>
        <time>2011-01-30T08:47:59Z</time>
      </trkpt>
      <trkpt lat="48.29624" lon="2.44188">
        <ele>70.31</ele>
        <time>2011-01-30T08:48:01Z</time>
      </trkpt>
      <trkpt lat="48.29626" lon="2.44189">
        <ele>70.31</ele>
        <time>2011-01-30T08:48:02Z</time>
      </trkpt>
      <trkpt lat="48.29637" lon="2.44196">
        <ele>71.27</ele>
        <time>2011-01-30T08:48:07Z</time>
      </trkpt>
      <trkpt lat="48.29639" lon="2.44197">
        <ele>71.27</ele>
        <time>2011-01-30T08:48:08Z</time>
      </trkpt>
      <trkpt lat="48.29641" lon="2.44198">
        <ele>71.27</ele>
        <time>2011-01-30T08:48:09Z</time>
      </trkpt>
      <trkpt lat="48.29642" lon="2.442">
        <ele>71.27</ele>
        <time>2011-01-30T08:48:10Z</time>
      </trkpt>
      <trkpt lat="48.29643" lon="2.44202">
        <ele>71.76</ele>
        <time>2011-01-30T08:48:11Z</time>
      </trkpt>
      <trkpt lat="48.29644" lon="2.44203">
        <ele>71.76</ele>
        <time>2011-01-30T08:48:12Z</time>
      </trkpt>
      <trkpt lat="48.29646" lon="2.44204">
        <ele>71.76</ele>
        <time>2011-01-30T08:48:13Z</time>
      </trkpt>
      <trkpt lat="48.29648" lon="2.44205">
        <ele>71.76</ele>
        <time>2011-01-30T08:48:14Z</time>
      </trkpt>
      <trkpt lat="48.29649" lon="2.44205">
        <ele>71.27</ele>
        <time>2011-01-30T08:48:15Z</time>
      </trkpt>
      <trkpt lat="48.29651" lon="2.44205">
        <ele>70.79</ele>
        <time>2011-01-30T08:48:16Z</time>
      </trkpt>
      <trkpt lat="48.29653" lon="2.44205">
        <ele>70.31</ele>
        <time>2011-01-30T08:48:17Z</time>
      </trkpt>
      <trkpt lat="48.29655" lon="2.44204">
        <ele>69.83</ele>
        <time>2011-01-30T08:48:18Z</time>
      </trkpt>
      <trkpt lat="48.29657" lon="2.44204">
        <ele>69.83</ele>
        <time>2011-01-30T08:48:19Z</time>
      </trkpt>
      <trkpt lat="48.29663" lon="2.44203">
        <ele>70.31</ele>
        <time>2011-01-30T08:48:29Z</time>
      </trkpt>
      <trkpt lat="48.29666" lon="2.44203">
        <ele>70.31</ele>
        <time>2011-01-30T08:48:33Z</time>
      </trkpt>
      <trkpt lat="48.2968" lon="2.44213">
        <ele>71.27</ele>
        <time>2011-01-30T08:48:44Z</time>
      </trkpt>
      <trkpt lat="48.29681" lon="2.44214">
        <ele>71.76</ele>
        <time>2011-01-30T08:48:47Z</time>
      </trkpt>
      <trkpt lat="48.29682" lon="2.44215">
        <ele>71.76</ele>
        <time>2011-01-30T08:48:48Z</time>
      </trkpt>
      <trkpt lat="48.29686" lon="2.44218">
        <ele>70.79</ele>
        <time>2011-01-30T08:48:52Z</time>
      </trkpt>
      <trkpt lat="48.29688" lon="2.4422">
        <ele>70.31</ele>
        <time>2011-01-30T08:48:53Z</time>
      </trkpt>
      <trkpt lat="48.29689" lon="2.44222">
        <ele>70.31</ele>
        <time>2011-01-30T08:48:54Z</time>
      </trkpt>
      <trkpt lat="48.29698" lon="2.44233">
        <ele>70.79</ele>
        <time>2011-01-30T08:49:00Z</time>
      </trkpt>
      <trkpt lat="48.29702" lon="2.44234">
        <ele>70.79</ele>
        <time>2011-01-30T08:49:01Z</time>
      </trkpt>
      <trkpt lat="48.29705" lon="2.44233">
        <ele>70.79</ele>
        <time>2011-01-30T08:49:02Z</time>
      </trkpt>
      <trkpt lat="48.29719" lon="2.44232">
        <ele>73.2</ele>
        <time>2011-01-30T08:49:08Z</time>
      </trkpt>
      <trkpt lat="48.29721" lon="2.44231">
        <ele>73.2</ele>
        <time>2011-01-30T08:49:09Z</time>
      </trkpt>
      <trkpt lat="48.29721" lon="2.44229">
        <ele>73.2</ele>
        <time>2011-01-30T08:49:10Z</time>
      </trkpt>
      <trkpt lat="48.29722" lon="2.44226">
        <ele>74.16</ele>
        <time>2011-01-30T08:49:11Z</time>
      </trkpt>
      <trkpt lat="48.29736" lon="2.4419">
        <ele>76.08</ele>
        <time>2011-01-30T08:49:22Z</time>
      </trkpt>
      <trkpt lat="48.29733" lon="2.44139">
        <ele>78.48</ele>
        <time>2011-01-30T08:49:35Z</time>
      </trkpt>
      <trkpt lat="48.2974" lon="2.44092">
        <ele>81.85</ele>
        <time>2011-01-30T08:49:48Z</time>
      </trkpt>
      <trkpt lat="48.29743" lon="2.44079">
        <ele>81.85</ele>
        <time>2011-01-30T08:49:52Z</time>
      </trkpt>
      <trkpt lat="48.29742" lon="2.44076">
        <ele>81.85</ele>
        <time>2011-01-30T08:49:53Z</time>
      </trkpt>
      <trkpt lat="48.2974" lon="2.44073">
        <ele>81.85</ele>
        <time>2011-01-30T08:49:54Z</time>
      </trkpt>
      <trkpt lat="48.29737" lon="2.44071">
        <ele>81.37</ele>
        <time>2011-01-30T08:49:55Z</time>
      </trkpt>
      <trkpt lat="48.29734" lon="2.44068">
        <ele>81.37</ele>
        <time>2011-01-30T08:49:56Z</time>
      </trkpt>
      <trkpt lat="48.29706" lon="2.44039">
        <ele>78.48</ele>
        <time>2011-01-30T08:50:03Z</time>
      </trkpt>
      <trkpt lat="48.29663" lon="2.43989">
        <ele>77.04</ele>
        <time>2011-01-30T08:50:12Z</time>
      </trkpt>
      <trkpt lat="48.29655" lon="2.43979">
        <ele>77.04</ele>
        <time>2011-01-30T08:50:14Z</time>
      </trkpt>
      <trkpt lat="48.29652" lon="2.43974">
        <ele>77.04</ele>
        <time>2011-01-30T08:50:15Z</time>
      </trkpt>
      <trkpt lat="48.29649" lon="2.43968">
        <ele>77.04</ele>
        <time>2011-01-30T08:50:16Z</time>
      </trkpt>
      <trkpt lat="48.29647" lon="2.43962">
        <ele>77.04</ele>
        <time>2011-01-30T08:50:17Z</time>
      </trkpt>
      <trkpt lat="48.29645" lon="2.43955">
        <ele>77.04</ele>
        <time>2011-01-30T08:50:18Z</time>
      </trkpt>
      <trkpt lat="48.29644" lon="2.43949">
        <ele>77.04</ele>
        <time>2011-01-30T08:50:19Z</time>
      </trkpt>
      <trkpt lat="48.29643" lon="2.43942">
        <ele>77.52</ele>
        <time>2011-01-30T08:50:20Z</time>
      </trkpt>
      <trkpt lat="48.29643" lon="2.43936">
        <ele>77.04</ele>
        <time>2011-01-30T08:50:21Z</time>
      </trkpt>
      <trkpt lat="48.29642" lon="2.4393">
        <ele>77.04</ele>
        <time>2011-01-30T08:50:22Z</time>
      </trkpt>
      <trkpt lat="48.29641" lon="2.43924">
        <ele>76.56</ele>
        <time>2011-01-30T08:50:23Z</time>
      </trkpt>
      <trkpt lat="48.29635" lon="2.43893">
        <ele>77.04</ele>
        <time>2011-01-30T08:50:28Z</time>
      </trkpt>
      <trkpt lat="48.29633" lon="2.43887">
        <ele>77.04</ele>
        <time>2011-01-30T08:50:29Z</time>
      </trkpt>
      <trkpt lat="48.29632" lon="2.43881">
        <ele>77.04</ele>
        <time>2011-01-30T08:50:30Z</time>
      </trkpt>
      <trkpt lat="48.29631" lon="2.43876">
        <ele>77.04</ele>
        <time>2011-01-30T08:50:31Z</time>
      </trkpt>
      <trkpt lat="48.29632" lon="2.4387">
        <ele>76.56</ele>
        <time>2011-01-30T08:50:32Z</time>
      </trkpt>
      <trkpt lat="48.29633" lon="2.43864">
        <ele>76.08</ele>
        <time>2011-01-30T08:50:33Z</time>
      </trkpt>
      <trkpt lat="48.29636" lon="2.4386">
        <ele>76.08</ele>
        <time>2011-01-30T08:50:34Z</time>
      </trkpt>
      <trkpt lat="48.29639" lon="2.43858">
        <ele>77.04</ele>
        <time>2011-01-30T08:50:35Z</time>
      </trkpt>
      <trkpt lat="48.29642" lon="2.43858">
        <ele>77.04</ele>
        <time>2011-01-30T08:50:36Z</time>
      </trkpt>
      <trkpt lat="48.29645" lon="2.43858">
        <ele>77.52</ele>
        <time>2011-01-30T08:50:37Z</time>
      </trkpt>
      <trkpt lat="48.29648" lon="2.43859">
        <ele>78.48</ele>
        <time>2011-01-30T08:50:38Z</time>
      </trkpt>
      <trkpt lat="48.29652" lon="2.4386">
        <ele>78.97</ele>
        <time>2011-01-30T08:50:40Z</time>
      </trkpt>
      <trkpt lat="48.29658" lon="2.43861">
        <ele>79.45</ele>
        <time>2011-01-30T08:50:43Z</time>
      </trkpt>
      <trkpt lat="48.29676" lon="2.43886">
        <ele>81.85</ele>
        <time>2011-01-30T08:50:55Z</time>
      </trkpt>
      <trkpt lat="48.29688" lon="2.43903">
        <ele>83.77</ele>
        <time>2011-01-30T08:51:04Z</time>
      </trkpt>
      <trkpt lat="48.29692" lon="2.43908">
        <ele>83.77</ele>
        <time>2011-01-30T08:51:07Z</time>
      </trkpt>
      <trkpt lat="48.29694" lon="2.43911">
        <ele>84.73</ele>
        <time>2011-01-30T08:51:09Z</time>
      </trkpt>
      <trkpt lat="48.29695" lon="2.43912">
        <ele>85.69</ele>
        <time>2011-01-30T08:51:10Z</time>
      </trkpt>
      <trkpt lat="48.29696" lon="2.43914">
        <ele>85.69</ele>
        <time>2011-01-30T08:51:11Z</time>
      </trkpt>
      <trkpt lat="48.29714" lon="2.43933">
        <ele>87.62</ele>
        <time>2011-01-30T08:51:23Z</time>
      </trkpt>
      <trkpt lat="48.29735" lon="2.43918">
        <ele>88.58</ele>
        <time>2011-01-30T08:51:36Z</time>
      </trkpt>
      <trkpt lat="48.29755" lon="2.43898">
        <ele>91.46</ele>
        <time>2011-01-30T08:51:49Z</time>
      </trkpt>
      <trkpt lat="48.29777" lon="2.43873">
        <ele>94.83</ele>
        <time>2011-01-30T08:52:03Z</time>
      </trkpt>
      <trkpt lat="48.29794" lon="2.43845">
        <ele>96.75</ele>
        <time>2011-01-30T08:52:16Z</time>
      </trkpt>
      <trkpt lat="48.29799" lon="2.43834">
        <ele>97.23</ele>
        <time>2011-01-30T08:52:20Z</time>
      </trkpt>
      <trkpt lat="48.298" lon="2.43832">
        <ele>97.71</ele>
        <time>2011-01-30T08:52:21Z</time>
      </trkpt>
      <trkpt lat="48.298" lon="2.43829">
        <ele>97.71</ele>
        <time>2011-01-30T08:52:22Z</time>
      </trkpt>
      <trkpt lat="48.298" lon="2.43826">
        <ele>97.71</ele>
        <time>2011-01-30T08:52:23Z</time>
      </trkpt>
      <trkpt lat="48.298" lon="2.43824">
        <ele>97.71</ele>
        <time>2011-01-30T08:52:24Z</time>
      </trkpt>
      <trkpt lat="48.29799" lon="2.43821">
        <ele>98.19</ele>
        <time>2011-01-30T08:52:25Z</time>
      </trkpt>
      <trkpt lat="48.29798" lon="2.43819">
        <ele>97.71</ele>
        <time>2011-01-30T08:52:26Z</time>
      </trkpt>
      <trkpt lat="48.29786" lon="2.43794">
        <ele>98.19</ele>
        <time>2011-01-30T08:52:35Z</time>
      </trkpt>
      <trkpt lat="48.29781" lon="2.43782">
        <ele>98.19</ele>
        <time>2011-01-30T08:52:39Z</time>
      </trkpt>
      <trkpt lat="48.29778" lon="2.43743">
        <ele>98.19</ele>
        <time>2011-01-30T08:52:47Z</time>
      </trkpt>
      <trkpt lat="48.2978" lon="2.43716">
        <ele>97.23</ele>
        <time>2011-01-30T08:52:51Z</time>
      </trkpt>
      <trkpt lat="48.29777" lon="2.43681">
        <ele>95.79</ele>
        <time>2011-01-30T08:52:56Z</time>
      </trkpt>
      <trkpt lat="48.29777" lon="2.43668">
        <ele>95.31</ele>
        <time>2011-01-30T08:52:58Z</time>
      </trkpt>
      <trkpt lat="48.29775" lon="2.43646">
        <ele>93.39</ele>
        <time>2011-01-30T08:53:01Z</time>
      </trkpt>
      <trkpt lat="48.29769" lon="2.43605">
        <ele>91.46</ele>
        <time>2011-01-30T08:53:08Z</time>
      </trkpt>
      <trkpt lat="48.29766" lon="2.43586">
        <ele>92.9</ele>
        <time>2011-01-30T08:53:13Z</time>
      </trkpt>
      <trkpt lat="48.29752" lon="2.43545">
        <ele>94.83</ele>
        <time>2011-01-30T08:53:25Z</time>
      </trkpt>
      <trkpt lat="48.29737" lon="2.43505">
        <ele>95.79</ele>
        <time>2011-01-30T08:53:37Z</time>
      </trkpt>
      <trkpt lat="48.29727" lon="2.43473">
        <ele>97.23</ele>
        <time>2011-01-30T08:53:46Z</time>
      </trkpt>
      <trkpt lat="48.29718" lon="2.43434">
        <ele>97.71</ele>
        <time>2011-01-30T08:53:57Z</time>
      </trkpt>
      <trkpt lat="48.29732" lon="2.43413">
        <ele>99.15</ele>
        <time>2011-01-30T08:54:06Z</time>
      </trkpt>
      <trkpt lat="48.29757" lon="2.43407">
        <ele>100.6</ele>
        <time>2011-01-30T08:54:19Z</time>
      </trkpt>
      <trkpt lat="48.29784" lon="2.43403">
        <ele>100.6</ele>
        <time>2011-01-30T08:54:29Z</time>
      </trkpt>
      <trkpt lat="48.29815" lon="2.43387">
        <ele>100.6</ele>
        <time>2011-01-30T08:54:39Z</time>
      </trkpt>
      <trkpt lat="48.29845" lon="2.43372">
        <ele>101.56</ele>
        <time>2011-01-30T08:54:49Z</time>
      </trkpt>
      <trkpt lat="48.2986" lon="2.43358">
        <ele>102.04</ele>
        <time>2011-01-30T08:54:54Z</time>
      </trkpt>
      <trkpt lat="48.29874" lon="2.43361">
        <ele>102.04</ele>
        <time>2011-01-30T08:54:59Z</time>
      </trkpt>
      <trkpt lat="48.29891" lon="2.43376">
        <ele>103</ele>
        <time>2011-01-30T08:55:05Z</time>
      </trkpt>
      <trkpt lat="48.29887" lon="2.43412">
        <ele>102.52</ele>
        <time>2011-01-30T08:55:13Z</time>
      </trkpt>
      <trkpt lat="48.29901" lon="2.43421">
        <ele>102.52</ele>
        <time>2011-01-30T08:55:21Z</time>
      </trkpt>
      <trkpt lat="48.29922" lon="2.43416">
        <ele>103.48</ele>
        <time>2011-01-30T08:55:29Z</time>
      </trkpt>
      <trkpt lat="48.29962" lon="2.43423">
        <ele>103.96</ele>
        <time>2011-01-30T08:55:41Z</time>
      </trkpt>
      <trkpt lat="48.3" lon="2.43449">
        <ele>103.96</ele>
        <time>2011-01-30T08:55:52Z</time>
      </trkpt>
      <trkpt lat="48.30016" lon="2.43491">
        <ele>103.96</ele>
        <time>2011-01-30T08:56:01Z</time>
      </trkpt>
      <trkpt lat="48.30018" lon="2.43496">
        <ele>103.96</ele>
        <time>2011-01-30T08:56:02Z</time>
      </trkpt>
      <trkpt lat="48.30061" lon="2.43526">
        <ele>103.96</ele>
        <time>2011-01-30T08:56:15Z</time>
      </trkpt>
      <trkpt lat="48.30085" lon="2.43533">
        <ele>102.52</ele>
        <time>2011-01-30T08:56:22Z</time>
      </trkpt>
      <trkpt lat="48.30106" lon="2.43534">
        <ele>101.56</ele>
        <time>2011-01-30T08:56:27Z</time>
      </trkpt>
      <trkpt lat="48.3013" lon="2.43533">
        <ele>98.19</ele>
        <time>2011-01-30T08:56:34Z</time>
      </trkpt>
      <trkpt lat="48.30145" lon="2.43524">
        <ele>95.79</ele>
        <time>2011-01-30T08:56:38Z</time>
      </trkpt>
      <trkpt lat="48.30158" lon="2.43513">
        <ele>93.39</ele>
        <time>2011-01-30T08:56:41Z</time>
      </trkpt>
      <trkpt lat="48.30163" lon="2.43469">
        <ele>92.9</ele>
        <time>2011-01-30T08:56:49Z</time>
      </trkpt>
      <trkpt lat="48.30154" lon="2.43426">
        <ele>92.42</ele>
        <time>2011-01-30T08:56:59Z</time>
      </trkpt>
      <trkpt lat="48.30153" lon="2.43424">
        <ele>91.94</ele>
        <time>2011-01-30T08:57:00Z</time>
      </trkpt>
      <trkpt lat="48.30153" lon="2.43412">
        <ele>91.94</ele>
        <time>2011-01-30T08:57:04Z</time>
      </trkpt>
      <trkpt lat="48.30146" lon="2.43379">
        <ele>90.5</ele>
        <time>2011-01-30T08:57:12Z</time>
      </trkpt>
      <trkpt lat="48.30142" lon="2.43372">
        <ele>90.5</ele>
        <time>2011-01-30T08:57:16Z</time>
      </trkpt>
      <trkpt lat="48.30142" lon="2.43364">
        <ele>90.02</ele>
        <time>2011-01-30T08:57:18Z</time>
      </trkpt>
      <trkpt lat="48.30139" lon="2.43343">
        <ele>86.66</ele>
        <time>2011-01-30T08:57:22Z</time>
      </trkpt>
      <trkpt lat="48.30137" lon="2.43333">
        <ele>87.14</ele>
        <time>2011-01-30T08:57:24Z</time>
      </trkpt>
      <trkpt lat="48.30116" lon="2.43309">
        <ele>89.06</ele>
        <time>2011-01-30T08:57:32Z</time>
      </trkpt>
      <trkpt lat="48.3009" lon="2.43263">
        <ele>89.06</ele>
        <time>2011-01-30T08:57:43Z</time>
      </trkpt>
      <trkpt lat="48.30081" lon="2.43244">
        <ele>89.06</ele>
        <time>2011-01-30T08:57:47Z</time>
      </trkpt>
      <trkpt lat="48.30074" lon="2.43227">
        <ele>88.1</ele>
        <time>2011-01-30T08:57:50Z</time>
      </trkpt>
      <trkpt lat="48.30071" lon="2.43221">
        <ele>88.1</ele>
        <time>2011-01-30T08:57:51Z</time>
      </trkpt>
      <trkpt lat="48.30045" lon="2.43184">
        <ele>90.02</ele>
        <time>2011-01-30T08:58:01Z</time>
      </trkpt>
      <trkpt lat="48.30035" lon="2.43174">
        <ele>90.98</ele>
        <time>2011-01-30T08:58:05Z</time>
      </trkpt>
      <trkpt lat="48.3001" lon="2.43135">
        <ele>92.9</ele>
        <time>2011-01-30T08:58:18Z</time>
      </trkpt>
      <trkpt lat="48.29993" lon="2.43109">
        <ele>94.83</ele>
        <time>2011-01-30T08:58:28Z</time>
      </trkpt>
      <trkpt lat="48.29987" lon="2.431">
        <ele>96.27</ele>
        <time>2011-01-30T08:58:33Z</time>
      </trkpt>
      <trkpt lat="48.29981" lon="2.431">
        <ele>97.71</ele>
        <time>2011-01-30T08:58:36Z</time>
      </trkpt>
      <trkpt lat="48.2998" lon="2.431">
        <ele>97.23</ele>
        <time>2011-01-30T08:58:37Z</time>
      </trkpt>
      <trkpt lat="48.29978" lon="2.43099">
        <ele>98.19</ele>
        <time>2011-01-30T08:58:38Z</time>
      </trkpt>
      <trkpt lat="48.29977" lon="2.43098">
        <ele>98.19</ele>
        <time>2011-01-30T08:58:39Z</time>
      </trkpt>
      <trkpt lat="48.29975" lon="2.43097">
        <ele>98.19</ele>
        <time>2011-01-30T08:58:40Z</time>
      </trkpt>
      <trkpt lat="48.29969" lon="2.43092">
        <ele>99.63</ele>
        <time>2011-01-30T08:58:51Z</time>
      </trkpt>
      <trkpt lat="48.29963" lon="2.43086">
        <ele>99.63</ele>
        <time>2011-01-30T08:59:08Z</time>
      </trkpt>
      <trkpt lat="48.29961" lon="2.43085">
        <ele>99.63</ele>
        <time>2011-01-30T08:59:10Z</time>
      </trkpt>
      <trkpt lat="48.29941" lon="2.43072">
        <ele>100.6</ele>
        <time>2011-01-30T08:59:23Z</time>
      </trkpt>
      <trkpt lat="48.29935" lon="2.43068">
        <ele>101.56</ele>
        <time>2011-01-30T08:59:36Z</time>
      </trkpt>
      <trkpt lat="48.29934" lon="2.43067">
        <ele>101.56</ele>
        <time>2011-01-30T08:59:38Z</time>
      </trkpt>
      <trkpt lat="48.29932" lon="2.43066">
        <ele>101.56</ele>
        <time>2011-01-30T08:59:39Z</time>
      </trkpt>
      <trkpt lat="48.29931" lon="2.43065">
        <ele>101.56</ele>
        <time>2011-01-30T08:59:40Z</time>
      </trkpt>
      <trkpt lat="48.29929" lon="2.43063">
        <ele>101.08</ele>
        <time>2011-01-30T08:59:41Z</time>
      </trkpt>
      <trkpt lat="48.29926" lon="2.43062">
        <ele>101.08</ele>
        <time>2011-01-30T08:59:42Z</time>
      </trkpt>
      <trkpt lat="48.29924" lon="2.4306">
        <ele>101.56</ele>
        <time>2011-01-30T08:59:43Z</time>
      </trkpt>
      <trkpt lat="48.29923" lon="2.43058">
        <ele>102.04</ele>
        <time>2011-01-30T08:59:44Z</time>
      </trkpt>
      <trkpt lat="48.29896" lon="2.43039">
        <ele>102.52</ele>
        <time>2011-01-30T08:59:56Z</time>
      </trkpt>
      <trkpt lat="48.29871" lon="2.4302">
        <ele>101.56</ele>
        <time>2011-01-30T09:00:07Z</time>
      </trkpt>
      <trkpt lat="48.29845" lon="2.43">
        <ele>100.6</ele>
        <time>2011-01-30T09:00:17Z</time>
      </trkpt>
      <trkpt lat="48.29829" lon="2.42987">
        <ele>100.6</ele>
        <time>2011-01-30T09:00:24Z</time>
      </trkpt>
      <trkpt lat="48.29828" lon="2.42983">
        <ele>100.6</ele>
        <time>2011-01-30T09:00:25Z</time>
      </trkpt>
      <trkpt lat="48.29827" lon="2.4298">
        <ele>100.11</ele>
        <time>2011-01-30T09:00:26Z</time>
      </trkpt>
      <trkpt lat="48.29805" lon="2.4294">
        <ele>98.67</ele>
        <time>2011-01-30T09:00:37Z</time>
      </trkpt>
      <trkpt lat="48.298" lon="2.42939">
        <ele>98.67</ele>
        <time>2011-01-30T09:00:38Z</time>
      </trkpt>
      <trkpt lat="48.29795" lon="2.4294">
        <ele>98.19</ele>
        <time>2011-01-30T09:00:39Z</time>
      </trkpt>
      <trkpt lat="48.2979" lon="2.42941">
        <ele>97.71</ele>
        <time>2011-01-30T09:00:40Z</time>
      </trkpt>
      <trkpt lat="48.29775" lon="2.42944">
        <ele>95.79</ele>
        <time>2011-01-30T09:00:43Z</time>
      </trkpt>
      <trkpt lat="48.29746" lon="2.42988">
        <ele>95.31</ele>
        <time>2011-01-30T09:00:50Z</time>
      </trkpt>
      <trkpt lat="48.29735" lon="2.42999">
        <ele>94.83</ele>
        <time>2011-01-30T09:00:52Z</time>
      </trkpt>
      <trkpt lat="48.29701" lon="2.43011">
        <ele>93.39</ele>
        <time>2011-01-30T09:00:58Z</time>
      </trkpt>
      <trkpt lat="48.29693" lon="2.43019">
        <ele>93.39</ele>
        <time>2011-01-30T09:01:00Z</time>
      </trkpt>
      <trkpt lat="48.29681" lon="2.43028">
        <ele>91.94</ele>
        <time>2011-01-30T09:01:03Z</time>
      </trkpt>
      <trkpt lat="48.29677" lon="2.43031">
        <ele>90.98</ele>
        <time>2011-01-30T09:01:04Z</time>
      </trkpt>
      <trkpt lat="48.29667" lon="2.43047">
        <ele>90.5</ele>
        <time>2011-01-30T09:01:07Z</time>
      </trkpt>
      <trkpt lat="48.29652" lon="2.43052">
        <ele>86.66</ele>
        <time>2011-01-30T09:01:12Z</time>
      </trkpt>
      <trkpt lat="48.29639" lon="2.43046">
        <ele>83.29</ele>
        <time>2011-01-30T09:01:15Z</time>
      </trkpt>
      <trkpt lat="48.29632" lon="2.43035">
        <ele>80.41</ele>
        <time>2011-01-30T09:01:17Z</time>
      </trkpt>
      <trkpt lat="48.29627" lon="2.4303">
        <ele>79.93</ele>
        <time>2011-01-30T09:01:18Z</time>
      </trkpt>
      <trkpt lat="48.29618" lon="2.43022">
        <ele>78</ele>
        <time>2011-01-30T09:01:20Z</time>
      </trkpt>
      <trkpt lat="48.29605" lon="2.43015">
        <ele>77.04</ele>
        <time>2011-01-30T09:01:23Z</time>
      </trkpt>
      <trkpt lat="48.29595" lon="2.43011">
        <ele>75.6</ele>
        <time>2011-01-30T09:01:25Z</time>
      </trkpt>
      <trkpt lat="48.29572" lon="2.42997">
        <ele>77.04</ele>
        <time>2011-01-30T09:01:32Z</time>
      </trkpt>
      <trkpt lat="48.2957" lon="2.42971">
        <ele>77.52</ele>
        <time>2011-01-30T09:01:39Z</time>
      </trkpt>
      <trkpt lat="48.29574" lon="2.42964">
        <ele>77.04</ele>
        <time>2011-01-30T09:01:43Z</time>
      </trkpt>
      <trkpt lat="48.29577" lon="2.4294">
        <ele>77.04</ele>
        <time>2011-01-30T09:01:57Z</time>
      </trkpt>
      <trkpt lat="48.29577" lon="2.4294">
        <ele>76.56</ele>
        <time>2011-01-30T09:02:05Z</time>
      </trkpt>
      <trkpt lat="48.29574" lon="2.42926">
        <ele>76.08</ele>
        <time>2011-01-30T09:02:12Z</time>
      </trkpt>
      <trkpt lat="48.29572" lon="2.42912">
        <ele>73.68</ele>
        <time>2011-01-30T09:02:15Z</time>
      </trkpt>
      <trkpt lat="48.29572" lon="2.42905">
        <ele>73.2</ele>
        <time>2011-01-30T09:02:16Z</time>
      </trkpt>
      <trkpt lat="48.2957" lon="2.42898">
        <ele>73.2</ele>
        <time>2011-01-30T09:02:17Z</time>
      </trkpt>
      <trkpt lat="48.29567" lon="2.42892">
        <ele>72.72</ele>
        <time>2011-01-30T09:02:18Z</time>
      </trkpt>
      <trkpt lat="48.29564" lon="2.42887">
        <ele>71.76</ele>
        <time>2011-01-30T09:02:19Z</time>
      </trkpt>
      <trkpt lat="48.29563" lon="2.42883">
        <ele>72.24</ele>
        <time>2011-01-30T09:02:20Z</time>
      </trkpt>
      <trkpt lat="48.29562" lon="2.42879">
        <ele>72.24</ele>
        <time>2011-01-30T09:02:21Z</time>
      </trkpt>
      <trkpt lat="48.29562" lon="2.42876">
        <ele>71.76</ele>
        <time>2011-01-30T09:02:22Z</time>
      </trkpt>
      <trkpt lat="48.29562" lon="2.42873">
        <ele>71.27</ele>
        <time>2011-01-30T09:02:23Z</time>
      </trkpt>
      <trkpt lat="48.29561" lon="2.42871">
        <ele>70.31</ele>
        <time>2011-01-30T09:02:24Z</time>
      </trkpt>
      <trkpt lat="48.29562" lon="2.42857">
        <ele>66.47</ele>
        <time>2011-01-30T09:02:27Z</time>
      </trkpt>
      <trkpt lat="48.29564" lon="2.42846">
        <ele>63.1</ele>
        <time>2011-01-30T09:02:32Z</time>
      </trkpt>
      <trkpt lat="48.29566" lon="2.42845">
        <ele>63.1</ele>
        <time>2011-01-30T09:02:33Z</time>
      </trkpt>
      <trkpt lat="48.29568" lon="2.42844">
        <ele>62.62</ele>
        <time>2011-01-30T09:02:34Z</time>
      </trkpt>
      <trkpt lat="48.29571" lon="2.42837">
        <ele>62.14</ele>
        <time>2011-01-30T09:02:37Z</time>
      </trkpt>
      <trkpt lat="48.2957" lon="2.42833">
        <ele>61.66</ele>
        <time>2011-01-30T09:02:39Z</time>
      </trkpt>
      <trkpt lat="48.2955" lon="2.42785">
        <ele>58.78</ele>
        <time>2011-01-30T09:02:50Z</time>
      </trkpt>
      <trkpt lat="48.29548" lon="2.42781">
        <ele>58.78</ele>
        <time>2011-01-30T09:02:51Z</time>
      </trkpt>
      <trkpt lat="48.29545" lon="2.42776">
        <ele>58.78</ele>
        <time>2011-01-30T09:02:52Z</time>
      </trkpt>
      <trkpt lat="48.29536" lon="2.42764">
        <ele>58.3</ele>
        <time>2011-01-30T09:02:55Z</time>
      </trkpt>
      <trkpt lat="48.2953" lon="2.42752">
        <ele>58.3</ele>
        <time>2011-01-30T09:02:58Z</time>
      </trkpt>
      <trkpt lat="48.29531" lon="2.42748">
        <ele>58.3</ele>
        <time>2011-01-30T09:02:59Z</time>
      </trkpt>
      <trkpt lat="48.29533" lon="2.42745">
        <ele>58.3</ele>
        <time>2011-01-30T09:03:00Z</time>
      </trkpt>
      <trkpt lat="48.29567" lon="2.42699">
        <ele>57.82</ele>
        <time>2011-01-30T09:03:12Z</time>
      </trkpt>
      <trkpt lat="48.2957" lon="2.42696">
        <ele>57.34</ele>
        <time>2011-01-30T09:03:13Z</time>
      </trkpt>
      <trkpt lat="48.29574" lon="2.42692">
        <ele>57.34</ele>
        <time>2011-01-30T09:03:14Z</time>
      </trkpt>
      <trkpt lat="48.29588" lon="2.42673">
        <ele>57.82</ele>
        <time>2011-01-30T09:03:18Z</time>
      </trkpt>
      <trkpt lat="48.29636" lon="2.42601">
        <ele>57.34</ele>
        <time>2011-01-30T09:03:32Z</time>
      </trkpt>
      <trkpt lat="48.29655" lon="2.42576">
        <ele>57.82</ele>
        <time>2011-01-30T09:03:37Z</time>
      </trkpt>
      <trkpt lat="48.29659" lon="2.42571">
        <ele>57.82</ele>
        <time>2011-01-30T09:03:38Z</time>
      </trkpt>
      <trkpt lat="48.2967" lon="2.42555">
        <ele>57.34</ele>
        <time>2011-01-30T09:03:41Z</time>
      </trkpt>
      <trkpt lat="48.29674" lon="2.4255">
        <ele>57.34</ele>
        <time>2011-01-30T09:03:42Z</time>
      </trkpt>
      <trkpt lat="48.29695" lon="2.42526">
        <ele>57.34</ele>
        <time>2011-01-30T09:03:47Z</time>
      </trkpt>
      <trkpt lat="48.29709" lon="2.42513">
        <ele>57.34</ele>
        <time>2011-01-30T09:03:50Z</time>
      </trkpt>
      <trkpt lat="48.2978" lon="2.42462">
        <ele>56.86</ele>
        <time>2011-01-30T09:04:06Z</time>
      </trkpt>
      <trkpt lat="48.29789" lon="2.42455">
        <ele>57.34</ele>
        <time>2011-01-30T09:04:08Z</time>
      </trkpt>
      <trkpt lat="48.29844" lon="2.42397">
        <ele>56.86</ele>
        <time>2011-01-30T09:04:22Z</time>
      </trkpt>
      <trkpt lat="48.29848" lon="2.42394">
        <ele>56.86</ele>
        <time>2011-01-30T09:04:23Z</time>
      </trkpt>
      <trkpt lat="48.29853" lon="2.42391">
        <ele>56.86</ele>
        <time>2011-01-30T09:04:24Z</time>
      </trkpt>
      <trkpt lat="48.29857" lon="2.4239">
        <ele>56.86</ele>
        <time>2011-01-30T09:04:25Z</time>
      </trkpt>
      <trkpt lat="48.29862" lon="2.42388">
        <ele>56.86</ele>
        <time>2011-01-30T09:04:26Z</time>
      </trkpt>
      <trkpt lat="48.29867" lon="2.42388">
        <ele>56.86</ele>
        <time>2011-01-30T09:04:27Z</time>
      </trkpt>
      <trkpt lat="48.29931" lon="2.42361">
        <ele>57.34</ele>
        <time>2011-01-30T09:04:41Z</time>
      </trkpt>
      <trkpt lat="48.29972" lon="2.42328">
        <ele>58.3</ele>
        <time>2011-01-30T09:04:54Z</time>
      </trkpt>
      <trkpt lat="48.29977" lon="2.42325">
        <ele>58.78</ele>
        <time>2011-01-30T09:05:11Z</time>
      </trkpt>
      <trkpt lat="48.29979" lon="2.42324">
        <ele>58.78</ele>
        <time>2011-01-30T09:05:12Z</time>
      </trkpt>
      <trkpt lat="48.29981" lon="2.42326">
        <ele>58.3</ele>
        <time>2011-01-30T09:05:13Z</time>
      </trkpt>
      <trkpt lat="48.29983" lon="2.42328">
        <ele>58.78</ele>
        <time>2011-01-30T09:05:14Z</time>
      </trkpt>
      <trkpt lat="48.30016" lon="2.42337">
        <ele>58.3</ele>
        <time>2011-01-30T09:05:25Z</time>
      </trkpt>
      <trkpt lat="48.30045" lon="2.42328">
        <ele>57.82</ele>
        <time>2011-01-30T09:05:32Z</time>
      </trkpt>
      <trkpt lat="48.30054" lon="2.42329">
        <ele>57.82</ele>
        <time>2011-01-30T09:05:34Z</time>
      </trkpt>
      <trkpt lat="48.3014" lon="2.42325">
        <ele>56.37</ele>
        <time>2011-01-30T09:05:52Z</time>
      </trkpt>
      <trkpt lat="48.30167" lon="2.42315">
        <ele>55.89</ele>
        <time>2011-01-30T09:05:58Z</time>
      </trkpt>
      <trkpt lat="48.30171" lon="2.42316">
        <ele>56.37</ele>
        <time>2011-01-30T09:05:59Z</time>
      </trkpt>
      <trkpt lat="48.30176" lon="2.42317">
        <ele>56.37</ele>
        <time>2011-01-30T09:06:00Z</time>
      </trkpt>
      <trkpt lat="48.3018" lon="2.42319">
        <ele>56.37</ele>
        <time>2011-01-30T09:06:01Z</time>
      </trkpt>
      <trkpt lat="48.30184" lon="2.42322">
        <ele>56.86</ele>
        <time>2011-01-30T09:06:02Z</time>
      </trkpt>
      <trkpt lat="48.30187" lon="2.42325">
        <ele>56.86</ele>
        <time>2011-01-30T09:06:03Z</time>
      </trkpt>
      <trkpt lat="48.30253" lon="2.42369">
        <ele>58.3</ele>
        <time>2011-01-30T09:06:20Z</time>
      </trkpt>
      <trkpt lat="48.30278" lon="2.42389">
        <ele>59.26</ele>
        <time>2011-01-30T09:06:27Z</time>
      </trkpt>
      <trkpt lat="48.30306" lon="2.42436">
        <ele>61.66</ele>
        <time>2011-01-30T09:06:39Z</time>
      </trkpt>
      <trkpt lat="48.30308" lon="2.42444">
        <ele>62.62</ele>
        <time>2011-01-30T09:06:41Z</time>
      </trkpt>
      <trkpt lat="48.30308" lon="2.42449">
        <ele>62.62</ele>
        <time>2011-01-30T09:06:42Z</time>
      </trkpt>
      <trkpt lat="48.30307" lon="2.42453">
        <ele>62.62</ele>
        <time>2011-01-30T09:06:43Z</time>
      </trkpt>
      <trkpt lat="48.30307" lon="2.42458">
        <ele>62.62</ele>
        <time>2011-01-30T09:06:44Z</time>
      </trkpt>
      <trkpt lat="48.30308" lon="2.42462">
        <ele>62.62</ele>
        <time>2011-01-30T09:06:45Z</time>
      </trkpt>
      <trkpt lat="48.30308" lon="2.42467">
        <ele>63.1</ele>
        <time>2011-01-30T09:06:46Z</time>
      </trkpt>
      <trkpt lat="48.30309" lon="2.42472">
        <ele>62.62</ele>
        <time>2011-01-30T09:06:47Z</time>
      </trkpt>
      <trkpt lat="48.30314" lon="2.42528">
        <ele>65.51</ele>
        <time>2011-01-30T09:07:01Z</time>
      </trkpt>
      <trkpt lat="48.30319" lon="2.42572">
        <ele>67.43</ele>
        <time>2011-01-30T09:07:15Z</time>
      </trkpt>
      <trkpt lat="48.30326" lon="2.42606">
        <ele>69.83</ele>
        <time>2011-01-30T09:07:27Z</time>
      </trkpt>
      <trkpt lat="48.3033" lon="2.42638">
        <ele>72.24</ele>
        <time>2011-01-30T09:07:39Z</time>
      </trkpt>
      <trkpt lat="48.30331" lon="2.42643">
        <ele>72.72</ele>
        <time>2011-01-30T09:07:41Z</time>
      </trkpt>
      <trkpt lat="48.30347" lon="2.42654">
        <ele>75.12</ele>
        <time>2011-01-30T09:07:53Z</time>
      </trkpt>
      <trkpt lat="48.30352" lon="2.42653">
        <ele>76.08</ele>
        <time>2011-01-30T09:07:57Z</time>
      </trkpt>
      <trkpt lat="48.30353" lon="2.42653">
        <ele>76.08</ele>
        <time>2011-01-30T09:07:58Z</time>
      </trkpt>
      <trkpt lat="48.30355" lon="2.42654">
        <ele>76.08</ele>
        <time>2011-01-30T09:07:59Z</time>
      </trkpt>
      <trkpt lat="48.30356" lon="2.42654">
        <ele>76.08</ele>
        <time>2011-01-30T09:08:00Z</time>
      </trkpt>
      <trkpt lat="48.30358" lon="2.42654">
        <ele>76.56</ele>
        <time>2011-01-30T09:08:01Z</time>
      </trkpt>
      <trkpt lat="48.30362" lon="2.42654">
        <ele>76.56</ele>
        <time>2011-01-30T09:08:03Z</time>
      </trkpt>
      <trkpt lat="48.30364" lon="2.42654">
        <ele>76.56</ele>
        <time>2011-01-30T09:08:04Z</time>
      </trkpt>
      <trkpt lat="48.30365" lon="2.42655">
        <ele>77.04</ele>
        <time>2011-01-30T09:08:05Z</time>
      </trkpt>
      <trkpt lat="48.30385" lon="2.42656">
        <ele>78.97</ele>
        <time>2011-01-30T09:08:18Z</time>
      </trkpt>
      <trkpt lat="48.30409" lon="2.42657">
        <ele>81.85</ele>
        <time>2011-01-30T09:08:33Z</time>
      </trkpt>
      <trkpt lat="48.3041" lon="2.42657">
        <ele>82.33</ele>
        <time>2011-01-30T09:08:34Z</time>
      </trkpt>
      <trkpt lat="48.30412" lon="2.42657">
        <ele>82.33</ele>
        <time>2011-01-30T09:08:35Z</time>
      </trkpt>
      <trkpt lat="48.30413" lon="2.42657">
        <ele>82.33</ele>
        <time>2011-01-30T09:08:36Z</time>
      </trkpt>
      <trkpt lat="48.30415" lon="2.42657">
        <ele>82.81</ele>
        <time>2011-01-30T09:08:37Z</time>
      </trkpt>
      <trkpt lat="48.30416" lon="2.42658">
        <ele>83.29</ele>
        <time>2011-01-30T09:08:38Z</time>
      </trkpt>
      <trkpt lat="48.30418" lon="2.42658">
        <ele>83.29</ele>
        <time>2011-01-30T09:08:39Z</time>
      </trkpt>
      <trkpt lat="48.3042" lon="2.42657">
        <ele>83.29</ele>
        <time>2011-01-30T09:08:40Z</time>
      </trkpt>
      <trkpt lat="48.30421" lon="2.42657">
        <ele>83.29</ele>
        <time>2011-01-30T09:08:41Z</time>
      </trkpt>
      <trkpt lat="48.30423" lon="2.42657">
        <ele>84.25</ele>
        <time>2011-01-30T09:08:42Z</time>
      </trkpt>
      <trkpt lat="48.30425" lon="2.42657">
        <ele>84.25</ele>
        <time>2011-01-30T09:08:43Z</time>
      </trkpt>
      <trkpt lat="48.30426" lon="2.42658">
        <ele>84.25</ele>
        <time>2011-01-30T09:08:44Z</time>
      </trkpt>
      <trkpt lat="48.30428" lon="2.42657">
        <ele>84.25</ele>
        <time>2011-01-30T09:08:45Z</time>
      </trkpt>
      <trkpt lat="48.30429" lon="2.42657">
        <ele>84.73</ele>
        <time>2011-01-30T09:08:46Z</time>
      </trkpt>
      <trkpt lat="48.30431" lon="2.42657">
        <ele>84.73</ele>
        <time>2011-01-30T09:08:47Z</time>
      </trkpt>
      <trkpt lat="48.30432" lon="2.42657">
        <ele>85.21</ele>
        <time>2011-01-30T09:08:48Z</time>
      </trkpt>
      <trkpt lat="48.30434" lon="2.42656">
        <ele>85.21</ele>
        <time>2011-01-30T09:08:49Z</time>
      </trkpt>
      <trkpt lat="48.30436" lon="2.42656">
        <ele>85.21</ele>
        <time>2011-01-30T09:08:50Z</time>
      </trkpt>
      <trkpt lat="48.30447" lon="2.42652">
        <ele>87.14</ele>
        <time>2011-01-30T09:08:57Z</time>
      </trkpt>
      <trkpt lat="48.30472" lon="2.4266">
        <ele>89.06</ele>
        <time>2011-01-30T09:09:11Z</time>
      </trkpt>
      <trkpt lat="48.30496" lon="2.42672">
        <ele>91.94</ele>
        <time>2011-01-30T09:09:25Z</time>
      </trkpt>
      <trkpt lat="48.30515" lon="2.42692">
        <ele>93.87</ele>
        <time>2011-01-30T09:09:38Z</time>
      </trkpt>
      <trkpt lat="48.30532" lon="2.42702">
        <ele>95.79</ele>
        <time>2011-01-30T09:09:49Z</time>
      </trkpt>
      <trkpt lat="48.3055" lon="2.42714">
        <ele>97.71</ele>
        <time>2011-01-30T09:10:00Z</time>
      </trkpt>
      <trkpt lat="48.30574" lon="2.4273">
        <ele>100.11</ele>
        <time>2011-01-30T09:10:15Z</time>
      </trkpt>
      <trkpt lat="48.306" lon="2.42745">
        <ele>102.04</ele>
        <time>2011-01-30T09:10:29Z</time>
      </trkpt>
      <trkpt lat="48.30623" lon="2.42764">
        <ele>103.96</ele>
        <time>2011-01-30T09:10:39Z</time>
      </trkpt>
      <trkpt lat="48.30656" lon="2.42786">
        <ele>104.92</ele>
        <time>2011-01-30T09:10:53Z</time>
      </trkpt>
      <trkpt lat="48.30685" lon="2.42807">
        <ele>104.92</ele>
        <time>2011-01-30T09:11:04Z</time>
      </trkpt>
      <trkpt lat="48.30721" lon="2.42832">
        <ele>105.4</ele>
        <time>2011-01-30T09:11:17Z</time>
      </trkpt>
      <trkpt lat="48.30754" lon="2.42857">
        <ele>105.4</ele>
        <time>2011-01-30T09:11:30Z</time>
      </trkpt>
      <trkpt lat="48.30779" lon="2.42875">
        <ele>106.36</ele>
        <time>2011-01-30T09:11:42Z</time>
      </trkpt>
      <trkpt lat="48.30816" lon="2.42894">
        <ele>106.36</ele>
        <time>2011-01-30T09:11:56Z</time>
      </trkpt>
      <trkpt lat="48.30853" lon="2.42908">
        <ele>106.36</ele>
        <time>2011-01-30T09:12:09Z</time>
      </trkpt>
      <trkpt lat="48.30896" lon="2.42923">
        <ele>106.36</ele>
        <time>2011-01-30T09:12:22Z</time>
      </trkpt>
      <trkpt lat="48.30952" lon="2.4294">
        <ele>106.36</ele>
        <time>2011-01-30T09:12:37Z</time>
      </trkpt>
      <trkpt lat="48.30996" lon="2.42953">
        <ele>106.36</ele>
        <time>2011-01-30T09:12:50Z</time>
      </trkpt>
      <trkpt lat="48.31047" lon="2.42961">
        <ele>106.36</ele>
        <time>2011-01-30T09:13:03Z</time>
      </trkpt>
      <trkpt lat="48.31098" lon="2.42967">
        <ele>106.36</ele>
        <time>2011-01-30T09:13:16Z</time>
      </trkpt>
      <trkpt lat="48.31149" lon="2.42972">
        <ele>106.36</ele>
        <time>2011-01-30T09:13:29Z</time>
      </trkpt>
      <trkpt lat="48.31203" lon="2.42979">
        <ele>106.84</ele>
        <time>2011-01-30T09:13:43Z</time>
      </trkpt>
      <trkpt lat="48.31257" lon="2.42986">
        <ele>106.36</ele>
        <time>2011-01-30T09:13:56Z</time>
      </trkpt>
      <trkpt lat="48.31274" lon="2.42992">
        <ele>105.88</ele>
        <time>2011-01-30T09:14:00Z</time>
      </trkpt>
      <trkpt lat="48.31279" lon="2.42994">
        <ele>105.4</ele>
        <time>2011-01-30T09:14:01Z</time>
      </trkpt>
      <trkpt lat="48.31282" lon="2.42996">
        <ele>105.4</ele>
        <time>2011-01-30T09:14:02Z</time>
      </trkpt>
      <trkpt lat="48.31287" lon="2.42998">
        <ele>105.4</ele>
        <time>2011-01-30T09:14:03Z</time>
      </trkpt>
      <trkpt lat="48.3129" lon="2.42999">
        <ele>105.4</ele>
        <time>2011-01-30T09:14:04Z</time>
      </trkpt>
      <trkpt lat="48.31294" lon="2.43">
        <ele>105.4</ele>
        <time>2011-01-30T09:14:05Z</time>
      </trkpt>
      <trkpt lat="48.31298" lon="2.43001">
        <ele>105.88</ele>
        <time>2011-01-30T09:14:06Z</time>
      </trkpt>
      <trkpt lat="48.31356" lon="2.43015">
        <ele>106.84</ele>
        <time>2011-01-30T09:14:20Z</time>
      </trkpt>
      <trkpt lat="48.31405" lon="2.43032">
        <ele>107.32</ele>
        <time>2011-01-30T09:14:33Z</time>
      </trkpt>
      <trkpt lat="48.31455" lon="2.43048">
        <ele>107.81</ele>
        <time>2011-01-30T09:14:47Z</time>
      </trkpt>
      <trkpt lat="48.31464" lon="2.43046">
        <ele>107.32</ele>
        <time>2011-01-30T09:14:50Z</time>
      </trkpt>
      <trkpt lat="48.31466" lon="2.43042">
        <ele>107.32</ele>
        <time>2011-01-30T09:14:51Z</time>
      </trkpt>
      <trkpt lat="48.31469" lon="2.43037">
        <ele>107.32</ele>
        <time>2011-01-30T09:14:52Z</time>
      </trkpt>
      <trkpt lat="48.31471" lon="2.43031">
        <ele>107.32</ele>
        <time>2011-01-30T09:14:53Z</time>
      </trkpt>
      <trkpt lat="48.31471" lon="2.43025">
        <ele>107.81</ele>
        <time>2011-01-30T09:14:54Z</time>
      </trkpt>
      <trkpt lat="48.31472" lon="2.43019">
        <ele>107.32</ele>
        <time>2011-01-30T09:14:55Z</time>
      </trkpt>
      <trkpt lat="48.31473" lon="2.43013">
        <ele>107.81</ele>
        <time>2011-01-30T09:14:56Z</time>
      </trkpt>
      <trkpt lat="48.31481" lon="2.42938">
        <ele>106.84</ele>
        <time>2011-01-30T09:15:09Z</time>
      </trkpt>
      <trkpt lat="48.3149" lon="2.42862">
        <ele>105.88</ele>
        <time>2011-01-30T09:15:22Z</time>
      </trkpt>
      <trkpt lat="48.31492" lon="2.42819">
        <ele>105.4</ele>
        <time>2011-01-30T09:15:29Z</time>
      </trkpt>
      <trkpt lat="48.31491" lon="2.42812">
        <ele>105.4</ele>
        <time>2011-01-30T09:15:30Z</time>
      </trkpt>
      <trkpt lat="48.3149" lon="2.42805">
        <ele>104.92</ele>
        <time>2011-01-30T09:15:31Z</time>
      </trkpt>
      <trkpt lat="48.31489" lon="2.42725">
        <ele>103.96</ele>
        <time>2011-01-30T09:15:40Z</time>
      </trkpt>
      <trkpt lat="48.31489" lon="2.42714">
        <ele>103</ele>
        <time>2011-01-30T09:15:41Z</time>
      </trkpt>
      <trkpt lat="48.3149" lon="2.42677">
        <ele>101.08</ele>
        <time>2011-01-30T09:15:45Z</time>
      </trkpt>
      <trkpt lat="48.31489" lon="2.42668">
        <ele>100.6</ele>
        <time>2011-01-30T09:15:46Z</time>
      </trkpt>
      <trkpt lat="48.31485" lon="2.42632">
        <ele>97.71</ele>
        <time>2011-01-30T09:15:50Z</time>
      </trkpt>
      <trkpt lat="48.31481" lon="2.42599">
        <ele>94.35</ele>
        <time>2011-01-30T09:15:53Z</time>
      </trkpt>
      <trkpt lat="48.31479" lon="2.42569">
        <ele>93.87</ele>
        <time>2011-01-30T09:15:59Z</time>
      </trkpt>
      <trkpt lat="48.31479" lon="2.42572">
        <ele>93.39</ele>
        <time>2011-01-30T09:16:01Z</time>
      </trkpt>
      <trkpt lat="48.31479" lon="2.42573">
        <ele>93.87</ele>
        <time>2011-01-30T09:16:02Z</time>
      </trkpt>
      <trkpt lat="48.31479" lon="2.42576">
        <ele>93.39</ele>
        <time>2011-01-30T09:16:03Z</time>
      </trkpt>
      <trkpt lat="48.31479" lon="2.42578">
        <ele>93.87</ele>
        <time>2011-01-30T09:16:04Z</time>
      </trkpt>
      <trkpt lat="48.3148" lon="2.4258">
        <ele>94.35</ele>
        <time>2011-01-30T09:16:05Z</time>
      </trkpt>
      <trkpt lat="48.3148" lon="2.42582">
        <ele>93.87</ele>
        <time>2011-01-30T09:16:06Z</time>
      </trkpt>
      <trkpt lat="48.31483" lon="2.42583">
        <ele>92.42</ele>
        <time>2011-01-30T09:16:10Z</time>
      </trkpt>
      <trkpt lat="48.31491" lon="2.42577">
        <ele>90.5</ele>
        <time>2011-01-30T09:16:13Z</time>
      </trkpt>
      <trkpt lat="48.31532" lon="2.42564">
        <ele>90.98</ele>
        <time>2011-01-30T09:16:23Z</time>
      </trkpt>
      <trkpt lat="48.31545" lon="2.42556">
        <ele>91.46</ele>
        <time>2011-01-30T09:16:26Z</time>
      </trkpt>
      <trkpt lat="48.31569" lon="2.42535">
        <ele>87.62</ele>
        <time>2011-01-30T09:16:31Z</time>
      </trkpt>
      <trkpt lat="48.31597" lon="2.42522">
        <ele>83.29</ele>
        <time>2011-01-30T09:16:36Z</time>
      </trkpt>
      <trkpt lat="48.31611" lon="2.42531">
        <ele>82.33</ele>
        <time>2011-01-30T09:16:39Z</time>
      </trkpt>
      <trkpt lat="48.31616" lon="2.42536">
        <ele>82.33</ele>
        <time>2011-01-30T09:16:40Z</time>
      </trkpt>
      <trkpt lat="48.3162" lon="2.42542">
        <ele>81.85</ele>
        <time>2011-01-30T09:16:41Z</time>
      </trkpt>
      <trkpt lat="48.31623" lon="2.42549">
        <ele>82.33</ele>
        <time>2011-01-30T09:16:42Z</time>
      </trkpt>
      <trkpt lat="48.31634" lon="2.4257">
        <ele>81.85</ele>
        <time>2011-01-30T09:16:45Z</time>
      </trkpt>
      <trkpt lat="48.31637" lon="2.42577">
        <ele>82.33</ele>
        <time>2011-01-30T09:16:46Z</time>
      </trkpt>
      <trkpt lat="48.31645" lon="2.42594">
        <ele>82.33</ele>
        <time>2011-01-30T09:16:49Z</time>
      </trkpt>
      <trkpt lat="48.31648" lon="2.426">
        <ele>82.33</ele>
        <time>2011-01-30T09:16:50Z</time>
      </trkpt>
      <trkpt lat="48.31667" lon="2.42631">
        <ele>82.81</ele>
        <time>2011-01-30T09:16:57Z</time>
      </trkpt>
      <trkpt lat="48.3167" lon="2.42633">
        <ele>82.33</ele>
        <time>2011-01-30T09:16:58Z</time>
      </trkpt>
      <trkpt lat="48.31674" lon="2.42633">
        <ele>81.85</ele>
        <time>2011-01-30T09:16:59Z</time>
      </trkpt>
      <trkpt lat="48.31679" lon="2.42634">
        <ele>80.89</ele>
        <time>2011-01-30T09:17:00Z</time>
      </trkpt>
      <trkpt lat="48.31684" lon="2.42635">
        <ele>80.89</ele>
        <time>2011-01-30T09:17:01Z</time>
      </trkpt>
      <trkpt lat="48.31689" lon="2.42637">
        <ele>79.93</ele>
        <time>2011-01-30T09:17:02Z</time>
      </trkpt>
      <trkpt lat="48.31694" lon="2.42639">
        <ele>79.45</ele>
        <time>2011-01-30T09:17:03Z</time>
      </trkpt>
      <trkpt lat="48.31699" lon="2.42642">
        <ele>78.48</ele>
        <time>2011-01-30T09:17:04Z</time>
      </trkpt>
      <trkpt lat="48.31703" lon="2.42642">
        <ele>78.48</ele>
        <time>2011-01-30T09:17:05Z</time>
      </trkpt>
      <trkpt lat="48.31707" lon="2.42641">
        <ele>77.52</ele>
        <time>2011-01-30T09:17:06Z</time>
      </trkpt>
      <trkpt lat="48.31712" lon="2.42628">
        <ele>76.56</ele>
        <time>2011-01-30T09:17:10Z</time>
      </trkpt>
      <trkpt lat="48.31705" lon="2.42609">
        <ele>75.12</ele>
        <time>2011-01-30T09:17:14Z</time>
      </trkpt>
      <trkpt lat="48.31703" lon="2.42603">
        <ele>75.6</ele>
        <time>2011-01-30T09:17:15Z</time>
      </trkpt>
      <trkpt lat="48.31701" lon="2.42597">
        <ele>75.12</ele>
        <time>2011-01-30T09:17:16Z</time>
      </trkpt>
      <trkpt lat="48.31698" lon="2.42591">
        <ele>75.12</ele>
        <time>2011-01-30T09:17:17Z</time>
      </trkpt>
      <trkpt lat="48.31695" lon="2.42584">
        <ele>74.64</ele>
        <time>2011-01-30T09:17:18Z</time>
      </trkpt>
      <trkpt lat="48.31693" lon="2.42577">
        <ele>74.64</ele>
        <time>2011-01-30T09:17:19Z</time>
      </trkpt>
      <trkpt lat="48.31673" lon="2.4253">
        <ele>73.68</ele>
        <time>2011-01-30T09:17:26Z</time>
      </trkpt>
      <trkpt lat="48.31642" lon="2.42456">
        <ele>72.72</ele>
        <time>2011-01-30T09:17:37Z</time>
      </trkpt>
      <trkpt lat="48.31606" lon="2.42321">
        <ele>69.83</ele>
        <time>2011-01-30T09:17:53Z</time>
      </trkpt>
      <trkpt lat="48.31585" lon="2.42219">
        <ele>66.95</ele>
        <time>2011-01-30T09:18:03Z</time>
      </trkpt>
      <trkpt lat="48.31576" lon="2.42157">
        <ele>65.99</ele>
        <time>2011-01-30T09:18:09Z</time>
      </trkpt>
      <trkpt lat="48.31576" lon="2.42147">
        <ele>65.51</ele>
        <time>2011-01-30T09:18:10Z</time>
      </trkpt>
      <trkpt lat="48.31576" lon="2.42136">
        <ele>65.51</ele>
        <time>2011-01-30T09:18:11Z</time>
      </trkpt>
      <trkpt lat="48.31578" lon="2.42126">
        <ele>65.03</ele>
        <time>2011-01-30T09:18:12Z</time>
      </trkpt>
      <trkpt lat="48.3158" lon="2.42116">
        <ele>65.03</ele>
        <time>2011-01-30T09:18:13Z</time>
      </trkpt>
      <trkpt lat="48.31606" lon="2.42016">
        <ele>63.1</ele>
        <time>2011-01-30T09:18:24Z</time>
      </trkpt>
      <trkpt lat="48.31607" lon="2.42008">
        <ele>63.1</ele>
        <time>2011-01-30T09:18:25Z</time>
      </trkpt>
      <trkpt lat="48.31607" lon="2.42">
        <ele>63.1</ele>
        <time>2011-01-30T09:18:26Z</time>
      </trkpt>
      <trkpt lat="48.31608" lon="2.41992">
        <ele>62.62</ele>
        <time>2011-01-30T09:18:27Z</time>
      </trkpt>
      <trkpt lat="48.3161" lon="2.41986">
        <ele>63.1</ele>
        <time>2011-01-30T09:18:28Z</time>
      </trkpt>
      <trkpt lat="48.31613" lon="2.41983">
        <ele>63.58</ele>
        <time>2011-01-30T09:18:29Z</time>
      </trkpt>
      <trkpt lat="48.31616" lon="2.41983">
        <ele>64.07</ele>
        <time>2011-01-30T09:18:30Z</time>
      </trkpt>
      <trkpt lat="48.31619" lon="2.41984">
        <ele>64.07</ele>
        <time>2011-01-30T09:18:31Z</time>
      </trkpt>
      <trkpt lat="48.31622" lon="2.41986">
        <ele>64.07</ele>
        <time>2011-01-30T09:18:32Z</time>
      </trkpt>
      <trkpt lat="48.31624" lon="2.41987">
        <ele>64.55</ele>
        <time>2011-01-30T09:18:33Z</time>
      </trkpt>
      <trkpt lat="48.31627" lon="2.41989">
        <ele>64.07</ele>
        <time>2011-01-30T09:18:34Z</time>
      </trkpt>
      <trkpt lat="48.31672" lon="2.42017">
        <ele>67.43</ele>
        <time>2011-01-30T09:18:48Z</time>
      </trkpt>
      <trkpt lat="48.31705" lon="2.42036">
        <ele>70.79</ele>
        <time>2011-01-30T09:19:01Z</time>
      </trkpt>
      <trkpt lat="48.31729" lon="2.42055">
        <ele>73.68</ele>
        <time>2011-01-30T09:19:13Z</time>
      </trkpt>
      <trkpt lat="48.31754" lon="2.42076">
        <ele>76.56</ele>
        <time>2011-01-30T09:19:28Z</time>
      </trkpt>
      <trkpt lat="48.31758" lon="2.42078">
        <ele>77.04</ele>
        <time>2011-01-30T09:19:31Z</time>
      </trkpt>
      <trkpt lat="48.3176" lon="2.42078">
        <ele>77.04</ele>
        <time>2011-01-30T09:19:32Z</time>
      </trkpt>
      <trkpt lat="48.31762" lon="2.42077">
        <ele>77.52</ele>
        <time>2011-01-30T09:19:33Z</time>
      </trkpt>
      <trkpt lat="48.31764" lon="2.42077">
        <ele>77.52</ele>
        <time>2011-01-30T09:19:34Z</time>
      </trkpt>
      <trkpt lat="48.31766" lon="2.42076">
        <ele>77.52</ele>
        <time>2011-01-30T09:19:35Z</time>
      </trkpt>
      <trkpt lat="48.31768" lon="2.42076">
        <ele>78</ele>
        <time>2011-01-30T09:19:36Z</time>
      </trkpt>
      <trkpt lat="48.31773" lon="2.42072">
        <ele>78.97</ele>
        <time>2011-01-30T09:19:40Z</time>
      </trkpt>
      <trkpt lat="48.31775" lon="2.42071">
        <ele>78.97</ele>
        <time>2011-01-30T09:19:41Z</time>
      </trkpt>
      <trkpt lat="48.31776" lon="2.4207">
        <ele>78.97</ele>
        <time>2011-01-30T09:19:42Z</time>
      </trkpt>
      <trkpt lat="48.31777" lon="2.42069">
        <ele>79.45</ele>
        <time>2011-01-30T09:19:43Z</time>
      </trkpt>
      <trkpt lat="48.31779" lon="2.42068">
        <ele>79.45</ele>
        <time>2011-01-30T09:19:44Z</time>
      </trkpt>
      <trkpt lat="48.31793" lon="2.42045">
        <ele>82.33</ele>
        <time>2011-01-30T09:19:58Z</time>
      </trkpt>
      <trkpt lat="48.31793" lon="2.42043">
        <ele>82.81</ele>
        <time>2011-01-30T09:19:59Z</time>
      </trkpt>
      <trkpt lat="48.31799" lon="2.4203">
        <ele>84.25</ele>
        <time>2011-01-30T09:20:07Z</time>
      </trkpt>
      <trkpt lat="48.31815" lon="2.42025">
        <ele>87.62</ele>
        <time>2011-01-30T09:20:19Z</time>
      </trkpt>
      <trkpt lat="48.31822" lon="2.42028">
        <ele>88.58</ele>
        <time>2011-01-30T09:20:25Z</time>
      </trkpt>
      <trkpt lat="48.31822" lon="2.4203">
        <ele>88.1</ele>
        <time>2011-01-30T09:20:26Z</time>
      </trkpt>
      <trkpt lat="48.31823" lon="2.42032">
        <ele>88.1</ele>
        <time>2011-01-30T09:20:27Z</time>
      </trkpt>
      <trkpt lat="48.31825" lon="2.42032">
        <ele>88.58</ele>
        <time>2011-01-30T09:20:28Z</time>
      </trkpt>
      <trkpt lat="48.31844" lon="2.42043">
        <ele>89.06</ele>
        <time>2011-01-30T09:20:40Z</time>
      </trkpt>
      <trkpt lat="48.31867" lon="2.42056">
        <ele>90.98</ele>
        <time>2011-01-30T09:20:53Z</time>
      </trkpt>
      <trkpt lat="48.31889" lon="2.42069">
        <ele>93.39</ele>
        <time>2011-01-30T09:21:05Z</time>
      </trkpt>
      <trkpt lat="48.31908" lon="2.42078">
        <ele>95.31</ele>
        <time>2011-01-30T09:21:17Z</time>
      </trkpt>
      <trkpt lat="48.31916" lon="2.4208">
        <ele>97.23</ele>
        <time>2011-01-30T09:21:22Z</time>
      </trkpt>
      <trkpt lat="48.31918" lon="2.42081">
        <ele>97.23</ele>
        <time>2011-01-30T09:21:23Z</time>
      </trkpt>
      <trkpt lat="48.31919" lon="2.42081">
        <ele>97.71</ele>
        <time>2011-01-30T09:21:24Z</time>
      </trkpt>
      <trkpt lat="48.31921" lon="2.42082">
        <ele>97.71</ele>
        <time>2011-01-30T09:21:25Z</time>
      </trkpt>
      <trkpt lat="48.31924" lon="2.42083">
        <ele>97.71</ele>
        <time>2011-01-30T09:21:26Z</time>
      </trkpt>
      <trkpt lat="48.31926" lon="2.42084">
        <ele>98.19</ele>
        <time>2011-01-30T09:21:27Z</time>
      </trkpt>
      <trkpt lat="48.31928" lon="2.42084">
        <ele>98.19</ele>
        <time>2011-01-30T09:21:28Z</time>
      </trkpt>
      <trkpt lat="48.31948" lon="2.42082">
        <ele>101.08</ele>
        <time>2011-01-30T09:21:40Z</time>
      </trkpt>
      <trkpt lat="48.31955" lon="2.42081">
        <ele>101.56</ele>
        <time>2011-01-30T09:21:44Z</time>
      </trkpt>
      <trkpt lat="48.3196" lon="2.42081">
        <ele>101.56</ele>
        <time>2011-01-30T09:21:47Z</time>
      </trkpt>
      <trkpt lat="48.31982" lon="2.42102">
        <ele>103.48</ele>
        <time>2011-01-30T09:22:02Z</time>
      </trkpt>
      <trkpt lat="48.31999" lon="2.42145">
        <ele>102.52</ele>
        <time>2011-01-30T09:22:15Z</time>
      </trkpt>
      <trkpt lat="48.3202" lon="2.42199">
        <ele>103</ele>
        <time>2011-01-30T09:22:30Z</time>
      </trkpt>
      <trkpt lat="48.32037" lon="2.4224">
        <ele>104.44</ele>
        <time>2011-01-30T09:22:45Z</time>
      </trkpt>
      <trkpt lat="48.3205" lon="2.42268">
        <ele>103.48</ele>
        <time>2011-01-30T09:22:56Z</time>
      </trkpt>
      <trkpt lat="48.3207" lon="2.42305">
        <ele>103.48</ele>
        <time>2011-01-30T09:23:10Z</time>
      </trkpt>
      <trkpt lat="48.32092" lon="2.42343">
        <ele>104.92</ele>
        <time>2011-01-30T09:23:27Z</time>
      </trkpt>
      <trkpt lat="48.32113" lon="2.4238">
        <ele>104.92</ele>
        <time>2011-01-30T09:23:40Z</time>
      </trkpt>
      <trkpt lat="48.3214" lon="2.42425">
        <ele>105.4</ele>
        <time>2011-01-30T09:23:54Z</time>
      </trkpt>
      <trkpt lat="48.32168" lon="2.42474">
        <ele>107.32</ele>
        <time>2011-01-30T09:24:09Z</time>
      </trkpt>
      <trkpt lat="48.3217" lon="2.4251">
        <ele>108.77</ele>
        <time>2011-01-30T09:24:19Z</time>
      </trkpt>
      <trkpt lat="48.32154" lon="2.42549">
        <ele>109.73</ele>
        <time>2011-01-30T09:24:31Z</time>
      </trkpt>
      <trkpt lat="48.32172" lon="2.42628">
        <ele>111.17</ele>
        <time>2011-01-30T09:24:44Z</time>
      </trkpt>
      <trkpt lat="48.32193" lon="2.4272">
        <ele>112.61</ele>
        <time>2011-01-30T09:25:00Z</time>
      </trkpt>
      <trkpt lat="48.3221" lon="2.42796">
        <ele>112.61</ele>
        <time>2011-01-30T09:25:15Z</time>
      </trkpt>
      <trkpt lat="48.32224" lon="2.42862">
        <ele>113.09</ele>
        <time>2011-01-30T09:25:29Z</time>
      </trkpt>
      <trkpt lat="48.32242" lon="2.42941">
        <ele>113.57</ele>
        <time>2011-01-30T09:25:45Z</time>
      </trkpt>
      <trkpt lat="48.32257" lon="2.43012">
        <ele>114.05</ele>
        <time>2011-01-30T09:25:59Z</time>
      </trkpt>
      <trkpt lat="48.32276" lon="2.43092">
        <ele>115.5</ele>
        <time>2011-01-30T09:26:15Z</time>
      </trkpt>
      <trkpt lat="48.32291" lon="2.43162">
        <ele>115.01</ele>
        <time>2011-01-30T09:26:29Z</time>
      </trkpt>
      <trkpt lat="48.32306" lon="2.4323">
        <ele>115.98</ele>
        <time>2011-01-30T09:26:43Z</time>
      </trkpt>
      <trkpt lat="48.32324" lon="2.43283">
        <ele>115.98</ele>
        <time>2011-01-30T09:26:56Z</time>
      </trkpt>
      <trkpt lat="48.32326" lon="2.43284">
        <ele>115.5</ele>
        <time>2011-01-30T09:26:57Z</time>
      </trkpt>
      <trkpt lat="48.32328" lon="2.43283">
        <ele>115.5</ele>
        <time>2011-01-30T09:26:58Z</time>
      </trkpt>
      <trkpt lat="48.32331" lon="2.43282">
        <ele>115.98</ele>
        <time>2011-01-30T09:26:59Z</time>
      </trkpt>
      <trkpt lat="48.32333" lon="2.4328">
        <ele>115.98</ele>
        <time>2011-01-30T09:27:00Z</time>
      </trkpt>
      <trkpt lat="48.32361" lon="2.43247">
        <ele>117.42</ele>
        <time>2011-01-30T09:27:14Z</time>
      </trkpt>
      <trkpt lat="48.32394" lon="2.4321">
        <ele>118.38</ele>
        <time>2011-01-30T09:27:30Z</time>
      </trkpt>
      <trkpt lat="48.3243" lon="2.43173">
        <ele>117.9</ele>
        <time>2011-01-30T09:27:44Z</time>
      </trkpt>
      <trkpt lat="48.32472" lon="2.43131">
        <ele>117.42</ele>
        <time>2011-01-30T09:27:59Z</time>
      </trkpt>
      <trkpt lat="48.3251" lon="2.43092">
        <ele>115.5</ele>
        <time>2011-01-30T09:28:11Z</time>
      </trkpt>
      <trkpt lat="48.32544" lon="2.43057">
        <ele>114.05</ele>
        <time>2011-01-30T09:28:21Z</time>
      </trkpt>
      <trkpt lat="48.32548" lon="2.43053">
        <ele>114.53</ele>
        <time>2011-01-30T09:28:22Z</time>
      </trkpt>
      <trkpt lat="48.32592" lon="2.4301">
        <ele>113.09</ele>
        <time>2011-01-30T09:28:34Z</time>
      </trkpt>
      <trkpt lat="48.32622" lon="2.42974">
        <ele>113.57</ele>
        <time>2011-01-30T09:28:43Z</time>
      </trkpt>
      <trkpt lat="48.32625" lon="2.42969">
        <ele>113.57</ele>
        <time>2011-01-30T09:28:44Z</time>
      </trkpt>
      <trkpt lat="48.32673" lon="2.42915">
        <ele>113.09</ele>
        <time>2011-01-30T09:28:59Z</time>
      </trkpt>
      <trkpt lat="48.32729" lon="2.4286">
        <ele>114.05</ele>
        <time>2011-01-30T09:29:17Z</time>
      </trkpt>
      <trkpt lat="48.32776" lon="2.42811">
        <ele>114.05</ele>
        <time>2011-01-30T09:29:32Z</time>
      </trkpt>
      <trkpt lat="48.32837" lon="2.4275">
        <ele>115.98</ele>
        <time>2011-01-30T09:29:51Z</time>
      </trkpt>
      <trkpt lat="48.32898" lon="2.42685">
        <ele>117.42</ele>
        <time>2011-01-30T09:30:10Z</time>
      </trkpt>
      <trkpt lat="48.3295" lon="2.42623">
        <ele>117.9</ele>
        <time>2011-01-30T09:30:27Z</time>
      </trkpt>
      <trkpt lat="48.3298" lon="2.42599">
        <ele>119.34</ele>
        <time>2011-01-30T09:30:38Z</time>
      </trkpt>
      <trkpt lat="48.32984" lon="2.42605">
        <ele>119.34</ele>
        <time>2011-01-30T09:30:50Z</time>
      </trkpt>
      <trkpt lat="48.32985" lon="2.42608">
        <ele>119.34</ele>
        <time>2011-01-30T09:30:51Z</time>
      </trkpt>
      <trkpt lat="48.32997" lon="2.42665">
        <ele>119.34</ele>
        <time>2011-01-30T09:31:05Z</time>
      </trkpt>
      <trkpt lat="48.33014" lon="2.42754">
        <ele>118.86</ele>
        <time>2011-01-30T09:31:23Z</time>
      </trkpt>
      <trkpt lat="48.33033" lon="2.42817">
        <ele>118.38</ele>
        <time>2011-01-30T09:31:36Z</time>
      </trkpt>
      <trkpt lat="48.33062" lon="2.42889">
        <ele>118.38</ele>
        <time>2011-01-30T09:31:51Z</time>
      </trkpt>
      <trkpt lat="48.33086" lon="2.42948">
        <ele>118.86</ele>
        <time>2011-01-30T09:32:04Z</time>
      </trkpt>
      <trkpt lat="48.33103" lon="2.42937">
        <ele>118.86</ele>
        <time>2011-01-30T09:32:10Z</time>
      </trkpt>
      <trkpt lat="48.33128" lon="2.42914">
        <ele>118.38</ele>
        <time>2011-01-30T09:32:19Z</time>
      </trkpt>
      <trkpt lat="48.33145" lon="2.42933">
        <ele>117.42</ele>
        <time>2011-01-30T09:32:26Z</time>
      </trkpt>
      <trkpt lat="48.3316" lon="2.43002">
        <ele>117.42</ele>
        <time>2011-01-30T09:32:41Z</time>
      </trkpt>
      <trkpt lat="48.3318" lon="2.43088">
        <ele>115.5</ele>
        <time>2011-01-30T09:32:57Z</time>
      </trkpt>
      <trkpt lat="48.33201" lon="2.43143">
        <ele>114.05</ele>
        <time>2011-01-30T09:33:09Z</time>
      </trkpt>
      <trkpt lat="48.3323" lon="2.4322">
        <ele>113.57</ele>
        <time>2011-01-30T09:33:25Z</time>
      </trkpt>
      <trkpt lat="48.33243" lon="2.43257">
        <ele>113.09</ele>
        <time>2011-01-30T09:33:32Z</time>
      </trkpt>
      <trkpt lat="48.33245" lon="2.43262">
        <ele>112.61</ele>
        <time>2011-01-30T09:33:33Z</time>
      </trkpt>
      <trkpt lat="48.33247" lon="2.43267">
        <ele>112.61</ele>
        <time>2011-01-30T09:33:34Z</time>
      </trkpt>
      <trkpt lat="48.33249" lon="2.43272">
        <ele>112.61</ele>
        <time>2011-01-30T09:33:35Z</time>
      </trkpt>
      <trkpt lat="48.33251" lon="2.43276">
        <ele>112.61</ele>
        <time>2011-01-30T09:33:36Z</time>
      </trkpt>
      <trkpt lat="48.3328" lon="2.43307">
        <ele>112.13</ele>
        <time>2011-01-30T09:33:47Z</time>
      </trkpt>
      <trkpt lat="48.33333" lon="2.43336">
        <ele>111.17</ele>
        <time>2011-01-30T09:34:02Z</time>
      </trkpt>
      <trkpt lat="48.33404" lon="2.43373">
        <ele>109.73</ele>
        <time>2011-01-30T09:34:21Z</time>
      </trkpt>
      <trkpt lat="48.33443" lon="2.43373">
        <ele>110.69</ele>
        <time>2011-01-30T09:34:33Z</time>
      </trkpt>
      <trkpt lat="48.33472" lon="2.43328">
        <ele>111.65</ele>
        <time>2011-01-30T09:34:45Z</time>
      </trkpt>
      <trkpt lat="48.33498" lon="2.43284">
        <ele>111.17</ele>
        <time>2011-01-30T09:34:55Z</time>
      </trkpt>
      <trkpt lat="48.3351" lon="2.43262">
        <ele>110.69</ele>
        <time>2011-01-30T09:34:59Z</time>
      </trkpt>
      <trkpt lat="48.33523" lon="2.43231">
        <ele>110.69</ele>
        <time>2011-01-30T09:35:04Z</time>
      </trkpt>
      <trkpt lat="48.3353" lon="2.43206">
        <ele>111.17</ele>
        <time>2011-01-30T09:35:08Z</time>
      </trkpt>
      <trkpt lat="48.33532" lon="2.432">
        <ele>111.65</ele>
        <time>2011-01-30T09:35:09Z</time>
      </trkpt>
      <trkpt lat="48.33552" lon="2.43132">
        <ele>111.17</ele>
        <time>2011-01-30T09:35:20Z</time>
      </trkpt>
      <trkpt lat="48.33553" lon="2.43126">
        <ele>111.65</ele>
        <time>2011-01-30T09:35:21Z</time>
      </trkpt>
      <trkpt lat="48.33565" lon="2.43072">
        <ele>110.69</ele>
        <time>2011-01-30T09:35:29Z</time>
      </trkpt>
      <trkpt lat="48.33568" lon="2.43067">
        <ele>111.17</ele>
        <time>2011-01-30T09:35:30Z</time>
      </trkpt>
      <trkpt lat="48.33571" lon="2.43062">
        <ele>110.69</ele>
        <time>2011-01-30T09:35:31Z</time>
      </trkpt>
      <trkpt lat="48.33574" lon="2.43057">
        <ele>111.17</ele>
        <time>2011-01-30T09:35:32Z</time>
      </trkpt>
      <trkpt lat="48.33577" lon="2.43053">
        <ele>111.17</ele>
        <time>2011-01-30T09:35:33Z</time>
      </trkpt>
      <trkpt lat="48.3358" lon="2.43048">
        <ele>111.65</ele>
        <time>2011-01-30T09:35:34Z</time>
      </trkpt>
      <trkpt lat="48.33602" lon="2.43013">
        <ele>112.13</ele>
        <time>2011-01-30T09:35:41Z</time>
      </trkpt>
      <trkpt lat="48.33609" lon="2.43004">
        <ele>112.13</ele>
        <time>2011-01-30T09:35:43Z</time>
      </trkpt>
      <trkpt lat="48.33612" lon="2.43001">
        <ele>112.13</ele>
        <time>2011-01-30T09:35:44Z</time>
      </trkpt>
      <trkpt lat="48.33621" lon="2.42996">
        <ele>112.13</ele>
        <time>2011-01-30T09:35:46Z</time>
      </trkpt>
      <trkpt lat="48.33625" lon="2.42993">
        <ele>112.13</ele>
        <time>2011-01-30T09:35:47Z</time>
      </trkpt>
      <trkpt lat="48.3369" lon="2.42944">
        <ele>113.09</ele>
        <time>2011-01-30T09:36:00Z</time>
      </trkpt>
      <trkpt lat="48.33709" lon="2.42924">
        <ele>112.13</ele>
        <time>2011-01-30T09:36:04Z</time>
      </trkpt>
      <trkpt lat="48.33718" lon="2.42912">
        <ele>111.17</ele>
        <time>2011-01-30T09:36:06Z</time>
      </trkpt>
      <trkpt lat="48.33722" lon="2.42905">
        <ele>111.17</ele>
        <time>2011-01-30T09:36:07Z</time>
      </trkpt>
      <trkpt lat="48.33757" lon="2.42861">
        <ele>108.29</ele>
        <time>2011-01-30T09:36:14Z</time>
      </trkpt>
      <trkpt lat="48.33762" lon="2.42855">
        <ele>107.81</ele>
        <time>2011-01-30T09:36:15Z</time>
      </trkpt>
      <trkpt lat="48.33767" lon="2.42848">
        <ele>108.29</ele>
        <time>2011-01-30T09:36:16Z</time>
      </trkpt>
      <trkpt lat="48.33771" lon="2.42842">
        <ele>108.29</ele>
        <time>2011-01-30T09:36:17Z</time>
      </trkpt>
      <trkpt lat="48.33775" lon="2.42836">
        <ele>108.77</ele>
        <time>2011-01-30T09:36:18Z</time>
      </trkpt>
      <trkpt lat="48.33778" lon="2.4283">
        <ele>108.29</ele>
        <time>2011-01-30T09:36:19Z</time>
      </trkpt>
      <trkpt lat="48.33787" lon="2.42818">
        <ele>108.77</ele>
        <time>2011-01-30T09:36:21Z</time>
      </trkpt>
      <trkpt lat="48.3379" lon="2.42811">
        <ele>108.77</ele>
        <time>2011-01-30T09:36:22Z</time>
      </trkpt>
      <trkpt lat="48.33792" lon="2.42803">
        <ele>108.77</ele>
        <time>2011-01-30T09:36:23Z</time>
      </trkpt>
      <trkpt lat="48.33794" lon="2.42795">
        <ele>108.77</ele>
        <time>2011-01-30T09:36:24Z</time>
      </trkpt>
      <trkpt lat="48.33796" lon="2.42788">
        <ele>109.25</ele>
        <time>2011-01-30T09:36:25Z</time>
      </trkpt>
      <trkpt lat="48.33799" lon="2.42781">
        <ele>109.73</ele>
        <time>2011-01-30T09:36:26Z</time>
      </trkpt>
      <trkpt lat="48.3382" lon="2.42721">
        <ele>111.65</ele>
        <time>2011-01-30T09:36:34Z</time>
      </trkpt>
      <trkpt lat="48.33822" lon="2.42714">
        <ele>111.17</ele>
        <time>2011-01-30T09:36:35Z</time>
      </trkpt>
      <trkpt lat="48.33825" lon="2.42707">
        <ele>111.65</ele>
        <time>2011-01-30T09:36:36Z</time>
      </trkpt>
      <trkpt lat="48.33828" lon="2.427">
        <ele>111.65</ele>
        <time>2011-01-30T09:36:37Z</time>
      </trkpt>
      <trkpt lat="48.33831" lon="2.42692">
        <ele>112.13</ele>
        <time>2011-01-30T09:36:38Z</time>
      </trkpt>
      <trkpt lat="48.33834" lon="2.42685">
        <ele>111.65</ele>
        <time>2011-01-30T09:36:39Z</time>
      </trkpt>
      <trkpt lat="48.33853" lon="2.4264">
        <ele>110.69</ele>
        <time>2011-01-30T09:36:45Z</time>
      </trkpt>
      <trkpt lat="48.33855" lon="2.42632">
        <ele>110.69</ele>
        <time>2011-01-30T09:36:46Z</time>
      </trkpt>
      <trkpt lat="48.33857" lon="2.42624">
        <ele>111.17</ele>
        <time>2011-01-30T09:36:47Z</time>
      </trkpt>
      <trkpt lat="48.33863" lon="2.42586">
        <ele>111.17</ele>
        <time>2011-01-30T09:36:52Z</time>
      </trkpt>
      <trkpt lat="48.33865" lon="2.42579">
        <ele>111.17</ele>
        <time>2011-01-30T09:36:53Z</time>
      </trkpt>
      <trkpt lat="48.3389" lon="2.42518">
        <ele>112.13</ele>
        <time>2011-01-30T09:37:03Z</time>
      </trkpt>
      <trkpt lat="48.33893" lon="2.42511">
        <ele>112.13</ele>
        <time>2011-01-30T09:37:04Z</time>
      </trkpt>
      <trkpt lat="48.33905" lon="2.4247">
        <ele>113.57</ele>
        <time>2011-01-30T09:37:11Z</time>
      </trkpt>
      <trkpt lat="48.33905" lon="2.42464">
        <ele>113.57</ele>
        <time>2011-01-30T09:37:12Z</time>
      </trkpt>
      <trkpt lat="48.33905" lon="2.42458">
        <ele>113.09</ele>
        <time>2011-01-30T09:37:13Z</time>
      </trkpt>
      <trkpt lat="48.3389" lon="2.42354">
        <ele>113.57</ele>
        <time>2011-01-30T09:37:29Z</time>
      </trkpt>
      <trkpt lat="48.3389" lon="2.42347">
        <ele>113.57</ele>
        <time>2011-01-30T09:37:30Z</time>
      </trkpt>
      <trkpt lat="48.33892" lon="2.42341">
        <ele>113.57</ele>
        <time>2011-01-30T09:37:31Z</time>
      </trkpt>
      <trkpt lat="48.33894" lon="2.42336">
        <ele>113.09</ele>
        <time>2011-01-30T09:37:32Z</time>
      </trkpt>
      <trkpt lat="48.33898" lon="2.42333">
        <ele>113.09</ele>
        <time>2011-01-30T09:37:33Z</time>
      </trkpt>
      <trkpt lat="48.33901" lon="2.42329">
        <ele>113.09</ele>
        <time>2011-01-30T09:37:34Z</time>
      </trkpt>
      <trkpt lat="48.3394" lon="2.42302">
        <ele>115.98</ele>
        <time>2011-01-30T09:37:46Z</time>
      </trkpt>
      <trkpt lat="48.3398" lon="2.42273">
        <ele>116.94</ele>
        <time>2011-01-30T09:38:00Z</time>
      </trkpt>
      <trkpt lat="48.34022" lon="2.42241">
        <ele>117.9</ele>
        <time>2011-01-30T09:38:15Z</time>
      </trkpt>
      <trkpt lat="48.34069" lon="2.42205">
        <ele>119.34</ele>
        <time>2011-01-30T09:38:32Z</time>
      </trkpt>
      <trkpt lat="48.34118" lon="2.42168">
        <ele>119.82</ele>
        <time>2011-01-30T09:38:48Z</time>
      </trkpt>
      <trkpt lat="48.34161" lon="2.42135">
        <ele>119.82</ele>
        <time>2011-01-30T09:39:01Z</time>
      </trkpt>
      <trkpt lat="48.34217" lon="2.42091">
        <ele>118.86</ele>
        <time>2011-01-30T09:39:16Z</time>
      </trkpt>
      <trkpt lat="48.3429" lon="2.42034">
        <ele>116.94</ele>
        <time>2011-01-30T09:39:33Z</time>
      </trkpt>
      <trkpt lat="48.34339" lon="2.41998">
        <ele>115.98</ele>
        <time>2011-01-30T09:39:43Z</time>
      </trkpt>
      <trkpt lat="48.34343" lon="2.41994">
        <ele>115.5</ele>
        <time>2011-01-30T09:39:44Z</time>
      </trkpt>
      <trkpt lat="48.34394" lon="2.41955">
        <ele>115.5</ele>
        <time>2011-01-30T09:39:55Z</time>
      </trkpt>
      <trkpt lat="48.34401" lon="2.41948">
        <ele>115.01</ele>
        <time>2011-01-30T09:39:57Z</time>
      </trkpt>
      <trkpt lat="48.34405" lon="2.41944">
        <ele>115.5</ele>
        <time>2011-01-30T09:39:58Z</time>
      </trkpt>
      <trkpt lat="48.34412" lon="2.41939">
        <ele>115.98</ele>
        <time>2011-01-30T09:40:05Z</time>
      </trkpt>
      <trkpt lat="48.34412" lon="2.41939">
        <ele>115.5</ele>
        <time>2011-01-30T09:40:27Z</time>
      </trkpt>
      <trkpt lat="48.34416" lon="2.41937">
        <ele>115.5</ele>
        <time>2011-01-30T09:40:50Z</time>
      </trkpt>
      <trkpt lat="48.34419" lon="2.41934">
        <ele>115.5</ele>
        <time>2011-01-30T09:40:51Z</time>
      </trkpt>
      <trkpt lat="48.34437" lon="2.41921">
        <ele>113.57</ele>
        <time>2011-01-30T09:40:55Z</time>
      </trkpt>
      <trkpt lat="48.34507" lon="2.4188">
        <ele>111.17</ele>
        <time>2011-01-30T09:41:09Z</time>
      </trkpt>
      <trkpt lat="48.34533" lon="2.41861">
        <ele>110.69</ele>
        <time>2011-01-30T09:41:14Z</time>
      </trkpt>
      <trkpt lat="48.34538" lon="2.41856">
        <ele>110.21</ele>
        <time>2011-01-30T09:41:15Z</time>
      </trkpt>
      <trkpt lat="48.34548" lon="2.41847">
        <ele>109.73</ele>
        <time>2011-01-30T09:41:17Z</time>
      </trkpt>
      <trkpt lat="48.34552" lon="2.41842">
        <ele>110.21</ele>
        <time>2011-01-30T09:41:18Z</time>
      </trkpt>
      <trkpt lat="48.34555" lon="2.41836">
        <ele>110.21</ele>
        <time>2011-01-30T09:41:19Z</time>
      </trkpt>
      <trkpt lat="48.34557" lon="2.41831">
        <ele>109.73</ele>
        <time>2011-01-30T09:41:20Z</time>
      </trkpt>
      <trkpt lat="48.34557" lon="2.41824">
        <ele>109.25</ele>
        <time>2011-01-30T09:41:21Z</time>
      </trkpt>
      <trkpt lat="48.34556" lon="2.41818">
        <ele>108.77</ele>
        <time>2011-01-30T09:41:22Z</time>
      </trkpt>
      <trkpt lat="48.34548" lon="2.41756">
        <ele>105.4</ele>
        <time>2011-01-30T09:41:29Z</time>
      </trkpt>
      <trkpt lat="48.34544" lon="2.41709">
        <ele>103.48</ele>
        <time>2011-01-30T09:41:33Z</time>
      </trkpt>
      <trkpt lat="48.34543" lon="2.41662">
        <ele>101.08</ele>
        <time>2011-01-30T09:41:37Z</time>
      </trkpt>
      <trkpt lat="48.34544" lon="2.41638">
        <ele>100.6</ele>
        <time>2011-01-30T09:41:39Z</time>
      </trkpt>
      <trkpt lat="48.34548" lon="2.4152">
        <ele>98.19</ele>
        <time>2011-01-30T09:41:50Z</time>
      </trkpt>
      <trkpt lat="48.34546" lon="2.4151">
        <ele>98.19</ele>
        <time>2011-01-30T09:41:51Z</time>
      </trkpt>
      <trkpt lat="48.34545" lon="2.415">
        <ele>98.19</ele>
        <time>2011-01-30T09:41:52Z</time>
      </trkpt>
      <trkpt lat="48.34534" lon="2.41388">
        <ele>97.71</ele>
        <time>2011-01-30T09:42:04Z</time>
      </trkpt>
      <trkpt lat="48.34533" lon="2.4138">
        <ele>97.71</ele>
        <time>2011-01-30T09:42:05Z</time>
      </trkpt>
      <trkpt lat="48.34532" lon="2.41372">
        <ele>97.71</ele>
        <time>2011-01-30T09:42:06Z</time>
      </trkpt>
      <trkpt lat="48.3453" lon="2.41367">
        <ele>97.71</ele>
        <time>2011-01-30T09:42:07Z</time>
      </trkpt>
      <trkpt lat="48.34526" lon="2.41365">
        <ele>97.23</ele>
        <time>2011-01-30T09:42:08Z</time>
      </trkpt>
      <trkpt lat="48.34522" lon="2.41363">
        <ele>96.75</ele>
        <time>2011-01-30T09:42:09Z</time>
      </trkpt>
      <trkpt lat="48.34513" lon="2.41358">
        <ele>96.75</ele>
        <time>2011-01-30T09:42:11Z</time>
      </trkpt>
      <trkpt lat="48.34509" lon="2.41353">
        <ele>97.23</ele>
        <time>2011-01-30T09:42:12Z</time>
      </trkpt>
      <trkpt lat="48.34506" lon="2.41347">
        <ele>97.23</ele>
        <time>2011-01-30T09:42:13Z</time>
      </trkpt>
      <trkpt lat="48.34505" lon="2.41341">
        <ele>97.23</ele>
        <time>2011-01-30T09:42:14Z</time>
      </trkpt>
      <trkpt lat="48.34505" lon="2.41334">
        <ele>96.75</ele>
        <time>2011-01-30T09:42:15Z</time>
      </trkpt>
      <trkpt lat="48.34506" lon="2.41327">
        <ele>96.75</ele>
        <time>2011-01-30T09:42:16Z</time>
      </trkpt>
      <trkpt lat="48.34507" lon="2.41319">
        <ele>96.27</ele>
        <time>2011-01-30T09:42:17Z</time>
      </trkpt>
      <trkpt lat="48.34508" lon="2.4131">
        <ele>96.27</ele>
        <time>2011-01-30T09:42:18Z</time>
      </trkpt>
      <trkpt lat="48.34511" lon="2.41292">
        <ele>95.31</ele>
        <time>2011-01-30T09:42:20Z</time>
      </trkpt>
      <trkpt lat="48.3451" lon="2.41283">
        <ele>94.83</ele>
        <time>2011-01-30T09:42:21Z</time>
      </trkpt>
      <trkpt lat="48.34507" lon="2.41275">
        <ele>94.35</ele>
        <time>2011-01-30T09:42:22Z</time>
      </trkpt>
      <trkpt lat="48.34502" lon="2.41269">
        <ele>92.9</ele>
        <time>2011-01-30T09:42:23Z</time>
      </trkpt>
      <trkpt lat="48.34496" lon="2.41263">
        <ele>91.46</ele>
        <time>2011-01-30T09:42:24Z</time>
      </trkpt>
      <trkpt lat="48.34488" lon="2.41259">
        <ele>89.54</ele>
        <time>2011-01-30T09:42:25Z</time>
      </trkpt>
      <trkpt lat="48.3448" lon="2.41254">
        <ele>87.14</ele>
        <time>2011-01-30T09:42:26Z</time>
      </trkpt>
      <trkpt lat="48.34473" lon="2.41247">
        <ele>86.18</ele>
        <time>2011-01-30T09:42:27Z</time>
      </trkpt>
      <trkpt lat="48.34467" lon="2.41238">
        <ele>85.21</ele>
        <time>2011-01-30T09:42:28Z</time>
      </trkpt>
      <trkpt lat="48.34463" lon="2.41225">
        <ele>83.77</ele>
        <time>2011-01-30T09:42:29Z</time>
      </trkpt>
      <trkpt lat="48.3446" lon="2.41212">
        <ele>82.81</ele>
        <time>2011-01-30T09:42:30Z</time>
      </trkpt>
      <trkpt lat="48.34458" lon="2.41199">
        <ele>81.85</ele>
        <time>2011-01-30T09:42:31Z</time>
      </trkpt>
      <trkpt lat="48.34454" lon="2.41149">
        <ele>80.89</ele>
        <time>2011-01-30T09:42:35Z</time>
      </trkpt>
      <trkpt lat="48.34442" lon="2.4106">
        <ele>79.93</ele>
        <time>2011-01-30T09:42:44Z</time>
      </trkpt>
      <trkpt lat="48.34436" lon="2.41023">
        <ele>78.48</ele>
        <time>2011-01-30T09:42:48Z</time>
      </trkpt>
      <trkpt lat="48.34434" lon="2.41014">
        <ele>78.97</ele>
        <time>2011-01-30T09:42:49Z</time>
      </trkpt>
      <trkpt lat="48.34415" lon="2.40962">
        <ele>77.52</ele>
        <time>2011-01-30T09:42:55Z</time>
      </trkpt>
      <trkpt lat="48.34406" lon="2.40944">
        <ele>77.04</ele>
        <time>2011-01-30T09:42:57Z</time>
      </trkpt>
      <trkpt lat="48.34401" lon="2.40937">
        <ele>76.56</ele>
        <time>2011-01-30T09:42:58Z</time>
      </trkpt>
      <trkpt lat="48.34396" lon="2.40931">
        <ele>76.08</ele>
        <time>2011-01-30T09:42:59Z</time>
      </trkpt>
      <trkpt lat="48.34385" lon="2.40918">
        <ele>75.6</ele>
        <time>2011-01-30T09:43:01Z</time>
      </trkpt>
      <trkpt lat="48.34381" lon="2.4091">
        <ele>75.6</ele>
        <time>2011-01-30T09:43:02Z</time>
      </trkpt>
      <trkpt lat="48.34377" lon="2.40901">
        <ele>76.08</ele>
        <time>2011-01-30T09:43:03Z</time>
      </trkpt>
      <trkpt lat="48.34373" lon="2.40891">
        <ele>75.6</ele>
        <time>2011-01-30T09:43:04Z</time>
      </trkpt>
      <trkpt lat="48.34371" lon="2.40881">
        <ele>75.12</ele>
        <time>2011-01-30T09:43:05Z</time>
      </trkpt>
      <trkpt lat="48.34368" lon="2.40871">
        <ele>74.64</ele>
        <time>2011-01-30T09:43:06Z</time>
      </trkpt>
      <trkpt lat="48.34337" lon="2.40752">
        <ele>73.68</ele>
        <time>2011-01-30T09:43:18Z</time>
      </trkpt>
      <trkpt lat="48.34322" lon="2.40702">
        <ele>73.68</ele>
        <time>2011-01-30T09:43:24Z</time>
      </trkpt>
      <trkpt lat="48.34278" lon="2.40618">
        <ele>72.72</ele>
        <time>2011-01-30T09:43:36Z</time>
      </trkpt>
      <trkpt lat="48.3426" lon="2.40581">
        <ele>71.76</ele>
        <time>2011-01-30T09:43:41Z</time>
      </trkpt>
      <trkpt lat="48.34251" lon="2.40558">
        <ele>71.27</ele>
        <time>2011-01-30T09:43:44Z</time>
      </trkpt>
      <trkpt lat="48.34216" lon="2.40484">
        <ele>70.31</ele>
        <time>2011-01-30T09:43:54Z</time>
      </trkpt>
      <trkpt lat="48.34203" lon="2.40465">
        <ele>69.83</ele>
        <time>2011-01-30T09:43:57Z</time>
      </trkpt>
      <trkpt lat="48.342" lon="2.40458">
        <ele>69.35</ele>
        <time>2011-01-30T09:43:58Z</time>
      </trkpt>
      <trkpt lat="48.34197" lon="2.4045">
        <ele>69.35</ele>
        <time>2011-01-30T09:43:59Z</time>
      </trkpt>
      <trkpt lat="48.34188" lon="2.40426">
        <ele>69.35</ele>
        <time>2011-01-30T09:44:02Z</time>
      </trkpt>
      <trkpt lat="48.34184" lon="2.40419">
        <ele>68.87</ele>
        <time>2011-01-30T09:44:03Z</time>
      </trkpt>
      <trkpt lat="48.34142" lon="2.40343">
        <ele>67.91</ele>
        <time>2011-01-30T09:44:15Z</time>
      </trkpt>
      <trkpt lat="48.34138" lon="2.40337">
        <ele>67.43</ele>
        <time>2011-01-30T09:44:16Z</time>
      </trkpt>
      <trkpt lat="48.34133" lon="2.40331">
        <ele>67.43</ele>
        <time>2011-01-30T09:44:17Z</time>
      </trkpt>
      <trkpt lat="48.34123" lon="2.40322">
        <ele>66.95</ele>
        <time>2011-01-30T09:44:19Z</time>
      </trkpt>
      <trkpt lat="48.34113" lon="2.40313">
        <ele>66.95</ele>
        <time>2011-01-30T09:44:21Z</time>
      </trkpt>
      <trkpt lat="48.34109" lon="2.40308">
        <ele>66.47</ele>
        <time>2011-01-30T09:44:22Z</time>
      </trkpt>
      <trkpt lat="48.34104" lon="2.40302">
        <ele>66.47</ele>
        <time>2011-01-30T09:44:23Z</time>
      </trkpt>
      <trkpt lat="48.341" lon="2.40296">
        <ele>66.47</ele>
        <time>2011-01-30T09:44:24Z</time>
      </trkpt>
      <trkpt lat="48.34095" lon="2.4029">
        <ele>65.99</ele>
        <time>2011-01-30T09:44:25Z</time>
      </trkpt>
      <trkpt lat="48.34073" lon="2.40259">
        <ele>65.99</ele>
        <time>2011-01-30T09:44:30Z</time>
      </trkpt>
      <trkpt lat="48.34065" lon="2.40246">
        <ele>65.99</ele>
        <time>2011-01-30T09:44:32Z</time>
      </trkpt>
      <trkpt lat="48.34043" lon="2.40201">
        <ele>65.99</ele>
        <time>2011-01-30T09:44:39Z</time>
      </trkpt>
      <trkpt lat="48.3404" lon="2.40196">
        <ele>66.47</ele>
        <time>2011-01-30T09:44:40Z</time>
      </trkpt>
      <trkpt lat="48.33997" lon="2.40132">
        <ele>65.51</ele>
        <time>2011-01-30T09:44:53Z</time>
      </trkpt>
      <trkpt lat="48.33984" lon="2.40098">
        <ele>65.51</ele>
        <time>2011-01-30T09:44:59Z</time>
      </trkpt>
      <trkpt lat="48.33978" lon="2.4008">
        <ele>65.51</ele>
        <time>2011-01-30T09:45:02Z</time>
      </trkpt>
      <trkpt lat="48.3397" lon="2.40056">
        <ele>66.47</ele>
        <time>2011-01-30T09:45:06Z</time>
      </trkpt>
      <trkpt lat="48.33945" lon="2.40004">
        <ele>65.51</ele>
        <time>2011-01-30T09:45:17Z</time>
      </trkpt>
      <trkpt lat="48.33945" lon="2.39999">
        <ele>65.51</ele>
        <time>2011-01-30T09:45:18Z</time>
      </trkpt>
      <trkpt lat="48.33946" lon="2.39993">
        <ele>65.03</ele>
        <time>2011-01-30T09:45:19Z</time>
      </trkpt>
      <trkpt lat="48.33949" lon="2.39988">
        <ele>65.03</ele>
        <time>2011-01-30T09:45:20Z</time>
      </trkpt>
      <trkpt lat="48.33951" lon="2.39982">
        <ele>64.55</ele>
        <time>2011-01-30T09:45:21Z</time>
      </trkpt>
      <trkpt lat="48.33955" lon="2.39971">
        <ele>64.55</ele>
        <time>2011-01-30T09:45:23Z</time>
      </trkpt>
      <trkpt lat="48.33972" lon="2.39922">
        <ele>64.07</ele>
        <time>2011-01-30T09:45:31Z</time>
      </trkpt>
      <trkpt lat="48.33977" lon="2.39904">
        <ele>64.07</ele>
        <time>2011-01-30T09:45:34Z</time>
      </trkpt>
      <trkpt lat="48.33978" lon="2.39867">
        <ele>64.55</ele>
        <time>2011-01-30T09:45:40Z</time>
      </trkpt>
      <trkpt lat="48.3397" lon="2.39826">
        <ele>64.07</ele>
        <time>2011-01-30T09:45:46Z</time>
      </trkpt>
      <trkpt lat="48.33969" lon="2.39818">
        <ele>64.07</ele>
        <time>2011-01-30T09:45:47Z</time>
      </trkpt>
      <trkpt lat="48.33968" lon="2.39811">
        <ele>64.07</ele>
        <time>2011-01-30T09:45:48Z</time>
      </trkpt>
      <trkpt lat="48.33953" lon="2.39714">
        <ele>65.03</ele>
        <time>2011-01-30T09:46:02Z</time>
      </trkpt>
      <trkpt lat="48.33946" lon="2.39668">
        <ele>64.07</ele>
        <time>2011-01-30T09:46:09Z</time>
      </trkpt>
      <trkpt lat="48.33939" lon="2.39621">
        <ele>62.14</ele>
        <time>2011-01-30T09:46:16Z</time>
      </trkpt>
      <trkpt lat="48.33938" lon="2.39613">
        <ele>62.62</ele>
        <time>2011-01-30T09:46:17Z</time>
      </trkpt>
      <trkpt lat="48.33931" lon="2.39563">
        <ele>61.66</ele>
        <time>2011-01-30T09:46:24Z</time>
      </trkpt>
      <trkpt lat="48.3393" lon="2.39557">
        <ele>61.18</ele>
        <time>2011-01-30T09:46:25Z</time>
      </trkpt>
      <trkpt lat="48.33927" lon="2.39545">
        <ele>61.18</ele>
        <time>2011-01-30T09:46:27Z</time>
      </trkpt>
      <trkpt lat="48.33927" lon="2.39538">
        <ele>60.7</ele>
        <time>2011-01-30T09:46:28Z</time>
      </trkpt>
      <trkpt lat="48.33929" lon="2.39533">
        <ele>60.7</ele>
        <time>2011-01-30T09:46:29Z</time>
      </trkpt>
      <trkpt lat="48.33947" lon="2.39478">
        <ele>61.18</ele>
        <time>2011-01-30T09:46:40Z</time>
      </trkpt>
      <trkpt lat="48.33966" lon="2.39417">
        <ele>61.66</ele>
        <time>2011-01-30T09:46:53Z</time>
      </trkpt>
      <trkpt lat="48.33991" lon="2.3936">
        <ele>63.1</ele>
        <time>2011-01-30T09:47:06Z</time>
      </trkpt>
      <trkpt lat="48.34016" lon="2.39312">
        <ele>63.58</ele>
        <time>2011-01-30T09:47:18Z</time>
      </trkpt>
      <trkpt lat="48.34042" lon="2.39247">
        <ele>63.58</ele>
        <time>2011-01-30T09:47:32Z</time>
      </trkpt>
      <trkpt lat="48.34053" lon="2.39203">
        <ele>64.07</ele>
        <time>2011-01-30T09:47:42Z</time>
      </trkpt>
      <trkpt lat="48.34052" lon="2.392">
        <ele>63.58</ele>
        <time>2011-01-30T09:47:43Z</time>
      </trkpt>
      <trkpt lat="48.3405" lon="2.39198">
        <ele>63.58</ele>
        <time>2011-01-30T09:47:44Z</time>
      </trkpt>
      <trkpt lat="48.34048" lon="2.39197">
        <ele>63.58</ele>
        <time>2011-01-30T09:47:45Z</time>
      </trkpt>
      <trkpt lat="48.34046" lon="2.39197">
        <ele>63.1</ele>
        <time>2011-01-30T09:47:46Z</time>
      </trkpt>
      <trkpt lat="48.34043" lon="2.39197">
        <ele>63.1</ele>
        <time>2011-01-30T09:47:47Z</time>
      </trkpt>
      <trkpt lat="48.34022" lon="2.39196">
        <ele>61.66</ele>
        <time>2011-01-30T09:47:53Z</time>
      </trkpt>
      <trkpt lat="48.33992" lon="2.39196">
        <ele>60.7</ele>
        <time>2011-01-30T09:47:59Z</time>
      </trkpt>
      <trkpt lat="48.33987" lon="2.39196">
        <ele>60.22</ele>
        <time>2011-01-30T09:48:00Z</time>
      </trkpt>
      <trkpt lat="48.33982" lon="2.39196">
        <ele>60.22</ele>
        <time>2011-01-30T09:48:01Z</time>
      </trkpt>
      <trkpt lat="48.33962" lon="2.39197">
        <ele>60.22</ele>
        <time>2011-01-30T09:48:05Z</time>
      </trkpt>
      <trkpt lat="48.33886" lon="2.39195">
        <ele>59.26</ele>
        <time>2011-01-30T09:48:19Z</time>
      </trkpt>
      <trkpt lat="48.33803" lon="2.39194">
        <ele>59.26</ele>
        <time>2011-01-30T09:48:34Z</time>
      </trkpt>
      <trkpt lat="48.33739" lon="2.39195">
        <ele>60.22</ele>
        <time>2011-01-30T09:48:46Z</time>
      </trkpt>
      <trkpt lat="48.33703" lon="2.39211">
        <ele>60.7</ele>
        <time>2011-01-30T09:48:53Z</time>
      </trkpt>
      <trkpt lat="48.33699" lon="2.39216">
        <ele>60.7</ele>
        <time>2011-01-30T09:48:54Z</time>
      </trkpt>
      <trkpt lat="48.33695" lon="2.39219">
        <ele>60.7</ele>
        <time>2011-01-30T09:48:55Z</time>
      </trkpt>
      <trkpt lat="48.33692" lon="2.39223">
        <ele>60.22</ele>
        <time>2011-01-30T09:48:56Z</time>
      </trkpt>
      <trkpt lat="48.33688" lon="2.39226">
        <ele>60.7</ele>
        <time>2011-01-30T09:48:57Z</time>
      </trkpt>
      <trkpt lat="48.33684" lon="2.3923">
        <ele>60.7</ele>
        <time>2011-01-30T09:48:58Z</time>
      </trkpt>
      <trkpt lat="48.3368" lon="2.39233">
        <ele>60.22</ele>
        <time>2011-01-30T09:48:59Z</time>
      </trkpt>
      <trkpt lat="48.33665" lon="2.39249">
        <ele>60.22</ele>
        <time>2011-01-30T09:49:03Z</time>
      </trkpt>
      <trkpt lat="48.33662" lon="2.39253">
        <ele>60.7</ele>
        <time>2011-01-30T09:49:04Z</time>
      </trkpt>
      <trkpt lat="48.33606" lon="2.39339">
        <ele>59.74</ele>
        <time>2011-01-30T09:49:21Z</time>
      </trkpt>
      <trkpt lat="48.33561" lon="2.3941">
        <ele>60.22</ele>
        <time>2011-01-30T09:49:35Z</time>
      </trkpt>
      <trkpt lat="48.33512" lon="2.39492">
        <ele>61.18</ele>
        <time>2011-01-30T09:49:51Z</time>
      </trkpt>
      <trkpt lat="48.33456" lon="2.39559">
        <ele>60.7</ele>
        <time>2011-01-30T09:50:07Z</time>
      </trkpt>
      <trkpt lat="48.33402" lon="2.39622">
        <ele>60.7</ele>
        <time>2011-01-30T09:50:22Z</time>
      </trkpt>
      <trkpt lat="48.33399" lon="2.39627">
        <ele>60.7</ele>
        <time>2011-01-30T09:50:23Z</time>
      </trkpt>
      <trkpt lat="48.33396" lon="2.39632">
        <ele>60.7</ele>
        <time>2011-01-30T09:50:24Z</time>
      </trkpt>
      <trkpt lat="48.33365" lon="2.39697">
        <ele>60.7</ele>
        <time>2011-01-30T09:50:38Z</time>
      </trkpt>
      <trkpt lat="48.33364" lon="2.39705">
        <ele>61.18</ele>
        <time>2011-01-30T09:50:40Z</time>
      </trkpt>
      <trkpt lat="48.33364" lon="2.39708">
        <ele>61.18</ele>
        <time>2011-01-30T09:50:41Z</time>
      </trkpt>
      <trkpt lat="48.33366" lon="2.39711">
        <ele>61.18</ele>
        <time>2011-01-30T09:50:51Z</time>
      </trkpt>
      <trkpt lat="48.33366" lon="2.39711">
        <ele>61.66</ele>
        <time>2011-01-30T09:51:14Z</time>
      </trkpt>
      <trkpt lat="48.33366" lon="2.39711">
        <ele>61.66</ele>
        <time>2011-01-30T09:51:44Z</time>
      </trkpt>
      <trkpt lat="48.33366" lon="2.3971">
        <ele>61.18</ele>
        <time>2011-01-30T09:52:18Z</time>
      </trkpt>
      <trkpt lat="48.33366" lon="2.3971">
        <ele>61.66</ele>
        <time>2011-01-30T09:52:48Z</time>
      </trkpt>
      <trkpt lat="48.33366" lon="2.3971">
        <ele>61.18</ele>
        <time>2011-01-30T09:53:07Z</time>
      </trkpt>
      <trkpt lat="48.33365" lon="2.3971">
        <ele>61.66</ele>
        <time>2011-01-30T09:53:41Z</time>
      </trkpt>
      <trkpt lat="48.33365" lon="2.39711">
        <ele>62.14</ele>
        <time>2011-01-30T09:54:24Z</time>
      </trkpt>
      <trkpt lat="48.33365" lon="2.39711">
        <ele>61.66</ele>
        <time>2011-01-30T09:54:57Z</time>
      </trkpt>
      <trkpt lat="48.33365" lon="2.39711">
        <ele>62.14</ele>
        <time>2011-01-30T09:55:35Z</time>
      </trkpt>
      <trkpt lat="48.33365" lon="2.39711">
        <ele>62.14</ele>
        <time>2011-01-30T09:56:15Z</time>
      </trkpt>
      <trkpt lat="48.33364" lon="2.39713">
        <ele>62.62</ele>
        <time>2011-01-30T09:56:29Z</time>
      </trkpt>
      <trkpt lat="48.33366" lon="2.39715">
        <ele>62.14</ele>
        <time>2011-01-30T09:56:44Z</time>
      </trkpt>
      <trkpt lat="48.33366" lon="2.39715">
        <ele>62.14</ele>
        <time>2011-01-30T09:57:15Z</time>
      </trkpt>
      <trkpt lat="48.33367" lon="2.39728">
        <ele>62.62</ele>
        <time>2011-01-30T09:57:41Z</time>
      </trkpt>
      <trkpt lat="48.33366" lon="2.39731">
        <ele>63.1</ele>
        <time>2011-01-30T09:57:42Z</time>
      </trkpt>
      <trkpt lat="48.33366" lon="2.39735">
        <ele>62.62</ele>
        <time>2011-01-30T09:57:43Z</time>
      </trkpt>
      <trkpt lat="48.33366" lon="2.39738">
        <ele>63.1</ele>
        <time>2011-01-30T09:57:44Z</time>
      </trkpt>
      <trkpt lat="48.33366" lon="2.39741">
        <ele>63.1</ele>
        <time>2011-01-30T09:57:45Z</time>
      </trkpt>
      <trkpt lat="48.33366" lon="2.39745">
        <ele>63.1</ele>
        <time>2011-01-30T09:57:46Z</time>
      </trkpt>
      <trkpt lat="48.33366" lon="2.39749">
        <ele>62.62</ele>
        <time>2011-01-30T09:57:47Z</time>
      </trkpt>
      <trkpt lat="48.33365" lon="2.3977">
        <ele>63.58</ele>
        <time>2011-01-30T09:57:53Z</time>
      </trkpt>
      <trkpt lat="48.33364" lon="2.39821">
        <ele>64.07</ele>
        <time>2011-01-30T09:58:04Z</time>
      </trkpt>
      <trkpt lat="48.33355" lon="2.39904">
        <ele>64.07</ele>
        <time>2011-01-30T09:58:18Z</time>
      </trkpt>
      <trkpt lat="48.33354" lon="2.39925">
        <ele>64.07</ele>
        <time>2011-01-30T09:58:21Z</time>
      </trkpt>
      <trkpt lat="48.33351" lon="2.39944">
        <ele>64.07</ele>
        <time>2011-01-30T09:58:24Z</time>
      </trkpt>
      <trkpt lat="48.3335" lon="2.3995">
        <ele>63.58</ele>
        <time>2011-01-30T09:58:25Z</time>
      </trkpt>
      <trkpt lat="48.33338" lon="2.40001">
        <ele>63.58</ele>
        <time>2011-01-30T09:58:33Z</time>
      </trkpt>
      <trkpt lat="48.33336" lon="2.40008">
        <ele>63.58</ele>
        <time>2011-01-30T09:58:34Z</time>
      </trkpt>
      <trkpt lat="48.33333" lon="2.40014">
        <ele>63.58</ele>
        <time>2011-01-30T09:58:35Z</time>
      </trkpt>
      <trkpt lat="48.33329" lon="2.40027">
        <ele>63.1</ele>
        <time>2011-01-30T09:58:37Z</time>
      </trkpt>
      <trkpt lat="48.33315" lon="2.40061">
        <ele>63.58</ele>
        <time>2011-01-30T09:58:43Z</time>
      </trkpt>
      <trkpt lat="48.33313" lon="2.40067">
        <ele>63.1</ele>
        <time>2011-01-30T09:58:44Z</time>
      </trkpt>
      <trkpt lat="48.33312" lon="2.40074">
        <ele>63.58</ele>
        <time>2011-01-30T09:58:45Z</time>
      </trkpt>
      <trkpt lat="48.33305" lon="2.40106">
        <ele>63.1</ele>
        <time>2011-01-30T09:58:50Z</time>
      </trkpt>
      <trkpt lat="48.33297" lon="2.4019">
        <ele>64.07</ele>
        <time>2011-01-30T09:59:03Z</time>
      </trkpt>
      <trkpt lat="48.33297" lon="2.40197">
        <ele>64.07</ele>
        <time>2011-01-30T09:59:04Z</time>
      </trkpt>
      <trkpt lat="48.33297" lon="2.40203">
        <ele>64.07</ele>
        <time>2011-01-30T09:59:05Z</time>
      </trkpt>
      <trkpt lat="48.33301" lon="2.40262">
        <ele>64.55</ele>
        <time>2011-01-30T09:59:15Z</time>
      </trkpt>
      <trkpt lat="48.33302" lon="2.40268">
        <ele>65.03</ele>
        <time>2011-01-30T09:59:16Z</time>
      </trkpt>
      <trkpt lat="48.33303" lon="2.40274">
        <ele>64.07</ele>
        <time>2011-01-30T09:59:17Z</time>
      </trkpt>
      <trkpt lat="48.33305" lon="2.4028">
        <ele>64.07</ele>
        <time>2011-01-30T09:59:18Z</time>
      </trkpt>
      <trkpt lat="48.33308" lon="2.40286">
        <ele>64.55</ele>
        <time>2011-01-30T09:59:19Z</time>
      </trkpt>
      <trkpt lat="48.33354" lon="2.40397">
        <ele>65.51</ele>
        <time>2011-01-30T09:59:39Z</time>
      </trkpt>
      <trkpt lat="48.33361" lon="2.40412">
        <ele>65.51</ele>
        <time>2011-01-30T09:59:42Z</time>
      </trkpt>
      <trkpt lat="48.33388" lon="2.40451">
        <ele>66.95</ele>
        <time>2011-01-30T09:59:53Z</time>
      </trkpt>
      <trkpt lat="48.33425" lon="2.40505">
        <ele>67.43</ele>
        <time>2011-01-30T10:00:09Z</time>
      </trkpt>
      <trkpt lat="48.33455" lon="2.40578">
        <ele>69.35</ele>
        <time>2011-01-30T10:00:27Z</time>
      </trkpt>
      <trkpt lat="48.33483" lon="2.40628">
        <ele>69.35</ele>
        <time>2011-01-30T10:00:40Z</time>
      </trkpt>
      <trkpt lat="48.33514" lon="2.40686">
        <ele>69.83</ele>
        <time>2011-01-30T10:00:55Z</time>
      </trkpt>
      <trkpt lat="48.33546" lon="2.40746">
        <ele>70.79</ele>
        <time>2011-01-30T10:01:09Z</time>
      </trkpt>
      <trkpt lat="48.33563" lon="2.40827">
        <ele>71.76</ele>
        <time>2011-01-30T10:01:24Z</time>
      </trkpt>
      <trkpt lat="48.33581" lon="2.40912">
        <ele>72.24</ele>
        <time>2011-01-30T10:01:39Z</time>
      </trkpt>
      <trkpt lat="48.33611" lon="2.4099">
        <ele>73.68</ele>
        <time>2011-01-30T10:01:55Z</time>
      </trkpt>
      <trkpt lat="48.33628" lon="2.41054">
        <ele>74.64</ele>
        <time>2011-01-30T10:02:07Z</time>
      </trkpt>
      <trkpt lat="48.33627" lon="2.4106">
        <ele>75.12</ele>
        <time>2011-01-30T10:02:08Z</time>
      </trkpt>
      <trkpt lat="48.33625" lon="2.41064">
        <ele>75.6</ele>
        <time>2011-01-30T10:02:09Z</time>
      </trkpt>
      <trkpt lat="48.33622" lon="2.41068">
        <ele>75.6</ele>
        <time>2011-01-30T10:02:10Z</time>
      </trkpt>
      <trkpt lat="48.33617" lon="2.41069">
        <ele>75.6</ele>
        <time>2011-01-30T10:02:11Z</time>
      </trkpt>
      <trkpt lat="48.33612" lon="2.41068">
        <ele>76.56</ele>
        <time>2011-01-30T10:02:12Z</time>
      </trkpt>
      <trkpt lat="48.33608" lon="2.41068">
        <ele>76.56</ele>
        <time>2011-01-30T10:02:13Z</time>
      </trkpt>
      <trkpt lat="48.33603" lon="2.41069">
        <ele>76.56</ele>
        <time>2011-01-30T10:02:14Z</time>
      </trkpt>
      <trkpt lat="48.33599" lon="2.41069">
        <ele>76.56</ele>
        <time>2011-01-30T10:02:15Z</time>
      </trkpt>
      <trkpt lat="48.33576" lon="2.41072">
        <ele>79.45</ele>
        <time>2011-01-30T10:02:21Z</time>
      </trkpt>
      <trkpt lat="48.33544" lon="2.41075">
        <ele>82.81</ele>
        <time>2011-01-30T10:02:33Z</time>
      </trkpt>
      <trkpt lat="48.33519" lon="2.41077">
        <ele>83.77</ele>
        <time>2011-01-30T10:02:45Z</time>
      </trkpt>
      <trkpt lat="48.3349" lon="2.41078">
        <ele>86.18</ele>
        <time>2011-01-30T10:02:57Z</time>
      </trkpt>
      <trkpt lat="48.33487" lon="2.41077">
        <ele>86.18</ele>
        <time>2011-01-30T10:02:59Z</time>
      </trkpt>
      <trkpt lat="48.33485" lon="2.41077">
        <ele>86.66</ele>
        <time>2011-01-30T10:03:00Z</time>
      </trkpt>
      <trkpt lat="48.33483" lon="2.41078">
        <ele>86.66</ele>
        <time>2011-01-30T10:03:01Z</time>
      </trkpt>
      <trkpt lat="48.33481" lon="2.41078">
        <ele>86.66</ele>
        <time>2011-01-30T10:03:02Z</time>
      </trkpt>
      <trkpt lat="48.33479" lon="2.41078">
        <ele>86.66</ele>
        <time>2011-01-30T10:03:03Z</time>
      </trkpt>
      <trkpt lat="48.33477" lon="2.41078">
        <ele>87.14</ele>
        <time>2011-01-30T10:03:04Z</time>
      </trkpt>
      <trkpt lat="48.33454" lon="2.41076">
        <ele>90.02</ele>
        <time>2011-01-30T10:03:16Z</time>
      </trkpt>
      <trkpt lat="48.33432" lon="2.41073">
        <ele>92.9</ele>
        <time>2011-01-30T10:03:28Z</time>
      </trkpt>
      <trkpt lat="48.33411" lon="2.41067">
        <ele>95.79</ele>
        <time>2011-01-30T10:03:41Z</time>
      </trkpt>
      <trkpt lat="48.33409" lon="2.41067">
        <ele>96.75</ele>
        <time>2011-01-30T10:03:43Z</time>
      </trkpt>
      <trkpt lat="48.33402" lon="2.41065">
        <ele>97.23</ele>
        <time>2011-01-30T10:03:47Z</time>
      </trkpt>
      <trkpt lat="48.33401" lon="2.41064">
        <ele>97.23</ele>
        <time>2011-01-30T10:03:48Z</time>
      </trkpt>
      <trkpt lat="48.33399" lon="2.41064">
        <ele>98.19</ele>
        <time>2011-01-30T10:03:49Z</time>
      </trkpt>
      <trkpt lat="48.33398" lon="2.41064">
        <ele>98.19</ele>
        <time>2011-01-30T10:03:50Z</time>
      </trkpt>
      <trkpt lat="48.33397" lon="2.41063">
        <ele>98.19</ele>
        <time>2011-01-30T10:03:51Z</time>
      </trkpt>
      <trkpt lat="48.33396" lon="2.41063">
        <ele>98.67</ele>
        <time>2011-01-30T10:03:52Z</time>
      </trkpt>
      <trkpt lat="48.33394" lon="2.41062">
        <ele>99.15</ele>
        <time>2011-01-30T10:03:53Z</time>
      </trkpt>
      <trkpt lat="48.33393" lon="2.41062">
        <ele>99.63</ele>
        <time>2011-01-30T10:03:54Z</time>
      </trkpt>
      <trkpt lat="48.33391" lon="2.41062">
        <ele>100.11</ele>
        <time>2011-01-30T10:03:55Z</time>
      </trkpt>
      <trkpt lat="48.3339" lon="2.41062">
        <ele>99.63</ele>
        <time>2011-01-30T10:03:56Z</time>
      </trkpt>
      <trkpt lat="48.33388" lon="2.41061">
        <ele>100.11</ele>
        <time>2011-01-30T10:03:57Z</time>
      </trkpt>
      <trkpt lat="48.33387" lon="2.41061">
        <ele>100.11</ele>
        <time>2011-01-30T10:03:58Z</time>
      </trkpt>
      <trkpt lat="48.33385" lon="2.41061">
        <ele>100.11</ele>
        <time>2011-01-30T10:03:59Z</time>
      </trkpt>
      <trkpt lat="48.33384" lon="2.41061">
        <ele>100.6</ele>
        <time>2011-01-30T10:04:00Z</time>
      </trkpt>
      <trkpt lat="48.33382" lon="2.41062">
        <ele>101.08</ele>
        <time>2011-01-30T10:04:01Z</time>
      </trkpt>
      <trkpt lat="48.33381" lon="2.41062">
        <ele>101.08</ele>
        <time>2011-01-30T10:04:02Z</time>
      </trkpt>
      <trkpt lat="48.3336" lon="2.41068">
        <ele>103.96</ele>
        <time>2011-01-30T10:04:16Z</time>
      </trkpt>
      <trkpt lat="48.33338" lon="2.41078">
        <ele>106.84</ele>
        <time>2011-01-30T10:04:29Z</time>
      </trkpt>
      <trkpt lat="48.33317" lon="2.41091">
        <ele>109.25</ele>
        <time>2011-01-30T10:04:42Z</time>
      </trkpt>
      <trkpt lat="48.33315" lon="2.41092">
        <ele>109.25</ele>
        <time>2011-01-30T10:04:43Z</time>
      </trkpt>
      <trkpt lat="48.33314" lon="2.41092">
        <ele>109.73</ele>
        <time>2011-01-30T10:04:44Z</time>
      </trkpt>
      <trkpt lat="48.33312" lon="2.41093">
        <ele>109.73</ele>
        <time>2011-01-30T10:04:45Z</time>
      </trkpt>
      <trkpt lat="48.3331" lon="2.41095">
        <ele>109.73</ele>
        <time>2011-01-30T10:04:46Z</time>
      </trkpt>
      <trkpt lat="48.33309" lon="2.41095">
        <ele>109.73</ele>
        <time>2011-01-30T10:04:47Z</time>
      </trkpt>
      <trkpt lat="48.33307" lon="2.41096">
        <ele>110.21</ele>
        <time>2011-01-30T10:04:48Z</time>
      </trkpt>
      <trkpt lat="48.33305" lon="2.41097">
        <ele>110.21</ele>
        <time>2011-01-30T10:04:49Z</time>
      </trkpt>
      <trkpt lat="48.33299" lon="2.41101">
        <ele>111.17</ele>
        <time>2011-01-30T10:04:53Z</time>
      </trkpt>
      <trkpt lat="48.33289" lon="2.41107">
        <ele>112.13</ele>
        <time>2011-01-30T10:04:59Z</time>
      </trkpt>
      <trkpt lat="48.33259" lon="2.41116">
        <ele>113.57</ele>
        <time>2011-01-30T10:05:12Z</time>
      </trkpt>
      <trkpt lat="48.33228" lon="2.41126">
        <ele>114.53</ele>
        <time>2011-01-30T10:05:24Z</time>
      </trkpt>
      <trkpt lat="48.33202" lon="2.41145">
        <ele>115.01</ele>
        <time>2011-01-30T10:05:34Z</time>
      </trkpt>
      <trkpt lat="48.33181" lon="2.4119">
        <ele>115.98</ele>
        <time>2011-01-30T10:05:45Z</time>
      </trkpt>
      <trkpt lat="48.33177" lon="2.41196">
        <ele>116.46</ele>
        <time>2011-01-30T10:05:47Z</time>
      </trkpt>
      <trkpt lat="48.33174" lon="2.41194">
        <ele>116.94</ele>
        <time>2011-01-30T10:05:50Z</time>
      </trkpt>
      <trkpt lat="48.33173" lon="2.41186">
        <ele>116.46</ele>
        <time>2011-01-30T10:06:04Z</time>
      </trkpt>
      <trkpt lat="48.33173" lon="2.41186">
        <ele>116.94</ele>
        <time>2011-01-30T10:06:27Z</time>
      </trkpt>
      <trkpt lat="48.3317" lon="2.41152">
        <ele>116.94</ele>
        <time>2011-01-30T10:06:42Z</time>
      </trkpt>
      <trkpt lat="48.33159" lon="2.41065">
        <ele>116.46</ele>
        <time>2011-01-30T10:06:59Z</time>
      </trkpt>
      <trkpt lat="48.33147" lon="2.40972">
        <ele>115.98</ele>
        <time>2011-01-30T10:07:15Z</time>
      </trkpt>
      <trkpt lat="48.33143" lon="2.40945">
        <ele>116.46</ele>
        <time>2011-01-30T10:07:19Z</time>
      </trkpt>
      <trkpt lat="48.33139" lon="2.40911">
        <ele>115.5</ele>
        <time>2011-01-30T10:07:24Z</time>
      </trkpt>
      <trkpt lat="48.33136" lon="2.40895">
        <ele>115.98</ele>
        <time>2011-01-30T10:07:27Z</time>
      </trkpt>
      <trkpt lat="48.33133" lon="2.40892">
        <ele>116.46</ele>
        <time>2011-01-30T10:07:28Z</time>
      </trkpt>
      <trkpt lat="48.3313" lon="2.40892">
        <ele>116.46</ele>
        <time>2011-01-30T10:07:29Z</time>
      </trkpt>
      <trkpt lat="48.33075" lon="2.40887">
        <ele>116.94</ele>
        <time>2011-01-30T10:07:42Z</time>
      </trkpt>
      <trkpt lat="48.3303" lon="2.4088">
        <ele>117.42</ele>
        <time>2011-01-30T10:07:52Z</time>
      </trkpt>
      <trkpt lat="48.33026" lon="2.40877">
        <ele>117.42</ele>
        <time>2011-01-30T10:07:53Z</time>
      </trkpt>
      <trkpt lat="48.33022" lon="2.40874">
        <ele>116.94</ele>
        <time>2011-01-30T10:07:54Z</time>
      </trkpt>
      <trkpt lat="48.33019" lon="2.40869">
        <ele>117.42</ele>
        <time>2011-01-30T10:07:55Z</time>
      </trkpt>
      <trkpt lat="48.33017" lon="2.40863">
        <ele>116.94</ele>
        <time>2011-01-30T10:07:56Z</time>
      </trkpt>
      <trkpt lat="48.33016" lon="2.40857">
        <ele>117.42</ele>
        <time>2011-01-30T10:07:57Z</time>
      </trkpt>
      <trkpt lat="48.33014" lon="2.4085">
        <ele>116.94</ele>
        <time>2011-01-30T10:07:58Z</time>
      </trkpt>
      <trkpt lat="48.33001" lon="2.40736">
        <ele>115.98</ele>
        <time>2011-01-30T10:08:16Z</time>
      </trkpt>
      <trkpt lat="48.32991" lon="2.40668">
        <ele>115.01</ele>
        <time>2011-01-30T10:08:27Z</time>
      </trkpt>
      <trkpt lat="48.3299" lon="2.40662">
        <ele>115.01</ele>
        <time>2011-01-30T10:08:28Z</time>
      </trkpt>
      <trkpt lat="48.32989" lon="2.40655">
        <ele>115.01</ele>
        <time>2011-01-30T10:08:29Z</time>
      </trkpt>
      <trkpt lat="48.32974" lon="2.40537">
        <ele>114.53</ele>
        <time>2011-01-30T10:08:47Z</time>
      </trkpt>
      <trkpt lat="48.32958" lon="2.40411">
        <ele>112.61</ele>
        <time>2011-01-30T10:09:05Z</time>
      </trkpt>
      <trkpt lat="48.32941" lon="2.40313">
        <ele>111.17</ele>
        <time>2011-01-30T10:09:20Z</time>
      </trkpt>
      <trkpt lat="48.32919" lon="2.40239">
        <ele>111.17</ele>
        <time>2011-01-30T10:09:32Z</time>
      </trkpt>
      <trkpt lat="48.32903" lon="2.40198">
        <ele>109.73</ele>
        <time>2011-01-30T10:09:38Z</time>
      </trkpt>
      <trkpt lat="48.32901" lon="2.40191">
        <ele>109.73</ele>
        <time>2011-01-30T10:09:39Z</time>
      </trkpt>
      <trkpt lat="48.32894" lon="2.40171">
        <ele>109.25</ele>
        <time>2011-01-30T10:09:43Z</time>
      </trkpt>
      <trkpt lat="48.32891" lon="2.40171">
        <ele>109.25</ele>
        <time>2011-01-30T10:09:44Z</time>
      </trkpt>
      <trkpt lat="48.32887" lon="2.40172">
        <ele>108.77</ele>
        <time>2011-01-30T10:09:45Z</time>
      </trkpt>
      <trkpt lat="48.32882" lon="2.40175">
        <ele>108.29</ele>
        <time>2011-01-30T10:09:46Z</time>
      </trkpt>
      <trkpt lat="48.32877" lon="2.40177">
        <ele>107.81</ele>
        <time>2011-01-30T10:09:47Z</time>
      </trkpt>
      <trkpt lat="48.32872" lon="2.40178">
        <ele>107.81</ele>
        <time>2011-01-30T10:09:48Z</time>
      </trkpt>
      <trkpt lat="48.32854" lon="2.40183">
        <ele>108.29</ele>
        <time>2011-01-30T10:09:51Z</time>
      </trkpt>
      <trkpt lat="48.32848" lon="2.40184">
        <ele>107.81</ele>
        <time>2011-01-30T10:09:52Z</time>
      </trkpt>
      <trkpt lat="48.32781" lon="2.40204">
        <ele>110.69</ele>
        <time>2011-01-30T10:10:03Z</time>
      </trkpt>
      <trkpt lat="48.32768" lon="2.40205">
        <ele>111.17</ele>
        <time>2011-01-30T10:10:06Z</time>
      </trkpt>
      <trkpt lat="48.32764" lon="2.40206">
        <ele>111.17</ele>
        <time>2011-01-30T10:10:07Z</time>
      </trkpt>
      <trkpt lat="48.32707" lon="2.40229">
        <ele>112.13</ele>
        <time>2011-01-30T10:10:21Z</time>
      </trkpt>
      <trkpt lat="48.32703" lon="2.40231">
        <ele>112.13</ele>
        <time>2011-01-30T10:10:22Z</time>
      </trkpt>
      <trkpt lat="48.32699" lon="2.40233">
        <ele>112.13</ele>
        <time>2011-01-30T10:10:23Z</time>
      </trkpt>
      <trkpt lat="48.32695" lon="2.40235">
        <ele>112.13</ele>
        <time>2011-01-30T10:10:24Z</time>
      </trkpt>
      <trkpt lat="48.32691" lon="2.40237">
        <ele>112.13</ele>
        <time>2011-01-30T10:10:25Z</time>
      </trkpt>
      <trkpt lat="48.32687" lon="2.40239">
        <ele>112.13</ele>
        <time>2011-01-30T10:10:26Z</time>
      </trkpt>
      <trkpt lat="48.32679" lon="2.40243">
        <ele>112.13</ele>
        <time>2011-01-30T10:10:28Z</time>
      </trkpt>
      <trkpt lat="48.32671" lon="2.40246">
        <ele>112.13</ele>
        <time>2011-01-30T10:10:30Z</time>
      </trkpt>
      <trkpt lat="48.32667" lon="2.40249">
        <ele>112.13</ele>
        <time>2011-01-30T10:10:31Z</time>
      </trkpt>
      <trkpt lat="48.32622" lon="2.40282">
        <ele>112.13</ele>
        <time>2011-01-30T10:10:43Z</time>
      </trkpt>
      <trkpt lat="48.32614" lon="2.40288">
        <ele>111.65</ele>
        <time>2011-01-30T10:10:45Z</time>
      </trkpt>
      <trkpt lat="48.3261" lon="2.4029">
        <ele>111.65</ele>
        <time>2011-01-30T10:10:46Z</time>
      </trkpt>
      <trkpt lat="48.3259" lon="2.40303">
        <ele>111.17</ele>
        <time>2011-01-30T10:10:51Z</time>
      </trkpt>
      <trkpt lat="48.32576" lon="2.40323">
        <ele>110.69</ele>
        <time>2011-01-30T10:10:56Z</time>
      </trkpt>
      <trkpt lat="48.32572" lon="2.40327">
        <ele>110.21</ele>
        <time>2011-01-30T10:10:57Z</time>
      </trkpt>
      <trkpt lat="48.32569" lon="2.40331">
        <ele>109.73</ele>
        <time>2011-01-30T10:10:58Z</time>
      </trkpt>
      <trkpt lat="48.32566" lon="2.40337">
        <ele>109.25</ele>
        <time>2011-01-30T10:10:59Z</time>
      </trkpt>
      <trkpt lat="48.32563" lon="2.40343">
        <ele>108.77</ele>
        <time>2011-01-30T10:11:00Z</time>
      </trkpt>
      <trkpt lat="48.32561" lon="2.4035">
        <ele>108.29</ele>
        <time>2011-01-30T10:11:01Z</time>
      </trkpt>
      <trkpt lat="48.32558" lon="2.40356">
        <ele>108.29</ele>
        <time>2011-01-30T10:11:02Z</time>
      </trkpt>
      <trkpt lat="48.32555" lon="2.40362">
        <ele>107.81</ele>
        <time>2011-01-30T10:11:03Z</time>
      </trkpt>
      <trkpt lat="48.3255" lon="2.40369">
        <ele>106.36</ele>
        <time>2011-01-30T10:11:04Z</time>
      </trkpt>
      <trkpt lat="48.32545" lon="2.40376">
        <ele>106.36</ele>
        <time>2011-01-30T10:11:05Z</time>
      </trkpt>
      <trkpt lat="48.32515" lon="2.40418">
        <ele>103</ele>
        <time>2011-01-30T10:11:11Z</time>
      </trkpt>
      <trkpt lat="48.32483" lon="2.40467">
        <ele>101.56</ele>
        <time>2011-01-30T10:11:18Z</time>
      </trkpt>
      <trkpt lat="48.32478" lon="2.40474">
        <ele>101.56</ele>
        <time>2011-01-30T10:11:19Z</time>
      </trkpt>
      <trkpt lat="48.32468" lon="2.40493">
        <ele>101.56</ele>
        <time>2011-01-30T10:11:22Z</time>
      </trkpt>
      <trkpt lat="48.32445" lon="2.4053">
        <ele>100.11</ele>
        <time>2011-01-30T10:11:28Z</time>
      </trkpt>
      <trkpt lat="48.32441" lon="2.40536">
        <ele>100.11</ele>
        <time>2011-01-30T10:11:29Z</time>
      </trkpt>
      <trkpt lat="48.32438" lon="2.40542">
        <ele>99.63</ele>
        <time>2011-01-30T10:11:30Z</time>
      </trkpt>
      <trkpt lat="48.32434" lon="2.40548">
        <ele>99.63</ele>
        <time>2011-01-30T10:11:31Z</time>
      </trkpt>
      <trkpt lat="48.3243" lon="2.40554">
        <ele>99.15</ele>
        <time>2011-01-30T10:11:32Z</time>
      </trkpt>
      <trkpt lat="48.32426" lon="2.4056">
        <ele>99.15</ele>
        <time>2011-01-30T10:11:33Z</time>
      </trkpt>
      <trkpt lat="48.32398" lon="2.40599">
        <ele>101.08</ele>
        <time>2011-01-30T10:11:39Z</time>
      </trkpt>
      <trkpt lat="48.32383" lon="2.40627">
        <ele>104.44</ele>
        <time>2011-01-30T10:11:44Z</time>
      </trkpt>
      <trkpt lat="48.32379" lon="2.40637">
        <ele>105.88</ele>
        <time>2011-01-30T10:11:46Z</time>
      </trkpt>
      <trkpt lat="48.32369" lon="2.40675">
        <ele>109.25</ele>
        <time>2011-01-30T10:11:55Z</time>
      </trkpt>
      <trkpt lat="48.32358" lon="2.4072">
        <ele>109.73</ele>
        <time>2011-01-30T10:12:07Z</time>
      </trkpt>
      <trkpt lat="48.32334" lon="2.40753">
        <ele>110.21</ele>
        <time>2011-01-30T10:12:19Z</time>
      </trkpt>
      <trkpt lat="48.32333" lon="2.40756">
        <ele>109.73</ele>
        <time>2011-01-30T10:12:20Z</time>
      </trkpt>
      <trkpt lat="48.32332" lon="2.40759">
        <ele>109.73</ele>
        <time>2011-01-30T10:12:21Z</time>
      </trkpt>
      <trkpt lat="48.32331" lon="2.40761">
        <ele>109.73</ele>
        <time>2011-01-30T10:12:22Z</time>
      </trkpt>
      <trkpt lat="48.32329" lon="2.40764">
        <ele>109.25</ele>
        <time>2011-01-30T10:12:35Z</time>
      </trkpt>
      <trkpt lat="48.32329" lon="2.40764">
        <ele>110.21</ele>
        <time>2011-01-30T10:13:00Z</time>
      </trkpt>
      <trkpt lat="48.32326" lon="2.40769">
        <ele>110.21</ele>
        <time>2011-01-30T10:13:06Z</time>
      </trkpt>
      <trkpt lat="48.32324" lon="2.40771">
        <ele>109.73</ele>
        <time>2011-01-30T10:13:07Z</time>
      </trkpt>
      <trkpt lat="48.32323" lon="2.40773">
        <ele>110.21</ele>
        <time>2011-01-30T10:13:08Z</time>
      </trkpt>
      <trkpt lat="48.32321" lon="2.40776">
        <ele>109.73</ele>
        <time>2011-01-30T10:13:09Z</time>
      </trkpt>
      <trkpt lat="48.3232" lon="2.40779">
        <ele>110.21</ele>
        <time>2011-01-30T10:13:10Z</time>
      </trkpt>
      <trkpt lat="48.32299" lon="2.40826">
        <ele>109.73</ele>
        <time>2011-01-30T10:13:22Z</time>
      </trkpt>
      <trkpt lat="48.32266" lon="2.40867">
        <ele>109.25</ele>
        <time>2011-01-30T10:13:34Z</time>
      </trkpt>
      <trkpt lat="48.32243" lon="2.40916">
        <ele>108.29</ele>
        <time>2011-01-30T10:13:44Z</time>
      </trkpt>
      <trkpt lat="48.32234" lon="2.40934">
        <ele>106.84</ele>
        <time>2011-01-30T10:13:47Z</time>
      </trkpt>
      <trkpt lat="48.32219" lon="2.40959">
        <ele>106.36</ele>
        <time>2011-01-30T10:13:51Z</time>
      </trkpt>
      <trkpt lat="48.3216" lon="2.4103">
        <ele>108.29</ele>
        <time>2011-01-30T10:14:04Z</time>
      </trkpt>
      <trkpt lat="48.32113" lon="2.411">
        <ele>110.69</ele>
        <time>2011-01-30T10:14:16Z</time>
      </trkpt>
      <trkpt lat="48.32106" lon="2.41109">
        <ele>110.69</ele>
        <time>2011-01-30T10:14:18Z</time>
      </trkpt>
      <trkpt lat="48.32103" lon="2.41115">
        <ele>110.69</ele>
        <time>2011-01-30T10:14:19Z</time>
      </trkpt>
      <trkpt lat="48.32101" lon="2.4112">
        <ele>111.17</ele>
        <time>2011-01-30T10:14:20Z</time>
      </trkpt>
      <trkpt lat="48.32072" lon="2.41181">
        <ele>111.65</ele>
        <time>2011-01-30T10:14:34Z</time>
      </trkpt>
      <trkpt lat="48.32065" lon="2.41192">
        <ele>111.65</ele>
        <time>2011-01-30T10:14:46Z</time>
      </trkpt>
      <trkpt lat="48.32044" lon="2.41231">
        <ele>111.17</ele>
        <time>2011-01-30T10:14:58Z</time>
      </trkpt>
      <trkpt lat="48.3202" lon="2.41286">
        <ele>111.17</ele>
        <time>2011-01-30T10:15:10Z</time>
      </trkpt>
      <trkpt lat="48.32017" lon="2.41291">
        <ele>111.17</ele>
        <time>2011-01-30T10:15:11Z</time>
      </trkpt>
      <trkpt lat="48.32015" lon="2.41296">
        <ele>111.65</ele>
        <time>2011-01-30T10:15:12Z</time>
      </trkpt>
      <trkpt lat="48.32013" lon="2.41301">
        <ele>111.65</ele>
        <time>2011-01-30T10:15:13Z</time>
      </trkpt>
      <trkpt lat="48.32011" lon="2.41306">
        <ele>111.65</ele>
        <time>2011-01-30T10:15:14Z</time>
      </trkpt>
      <trkpt lat="48.31973" lon="2.41384">
        <ele>112.61</ele>
        <time>2011-01-30T10:15:31Z</time>
      </trkpt>
      <trkpt lat="48.31924" lon="2.41445">
        <ele>111.65</ele>
        <time>2011-01-30T10:15:47Z</time>
      </trkpt>
      <trkpt lat="48.31902" lon="2.41464">
        <ele>110.69</ele>
        <time>2011-01-30T10:15:53Z</time>
      </trkpt>
      <trkpt lat="48.31898" lon="2.41468">
        <ele>110.21</ele>
        <time>2011-01-30T10:15:54Z</time>
      </trkpt>
      <trkpt lat="48.3189" lon="2.41476">
        <ele>109.25</ele>
        <time>2011-01-30T10:15:56Z</time>
      </trkpt>
      <trkpt lat="48.3185" lon="2.41509">
        <ele>105.88</ele>
        <time>2011-01-30T10:16:04Z</time>
      </trkpt>
      <trkpt lat="48.31846" lon="2.41516">
        <ele>105.88</ele>
        <time>2011-01-30T10:16:05Z</time>
      </trkpt>
      <trkpt lat="48.31842" lon="2.41524">
        <ele>105.4</ele>
        <time>2011-01-30T10:16:06Z</time>
      </trkpt>
      <trkpt lat="48.31823" lon="2.41565">
        <ele>104.92</ele>
        <time>2011-01-30T10:16:15Z</time>
      </trkpt>
      <trkpt lat="48.31822" lon="2.41566">
        <ele>104.92</ele>
        <time>2011-01-30T10:16:16Z</time>
      </trkpt>
      <trkpt lat="48.31821" lon="2.41567">
        <ele>104.92</ele>
        <time>2011-01-30T10:16:17Z</time>
      </trkpt>
      <trkpt lat="48.31819" lon="2.41568">
        <ele>104.92</ele>
        <time>2011-01-30T10:16:18Z</time>
      </trkpt>
      <trkpt lat="48.31817" lon="2.41567">
        <ele>104.44</ele>
        <time>2011-01-30T10:16:19Z</time>
      </trkpt>
      <trkpt lat="48.31813" lon="2.41565">
        <ele>104.44</ele>
        <time>2011-01-30T10:16:20Z</time>
      </trkpt>
      <trkpt lat="48.31787" lon="2.41544">
        <ele>101.08</ele>
        <time>2011-01-30T10:16:25Z</time>
      </trkpt>
      <trkpt lat="48.31765" lon="2.41533">
        <ele>97.71</ele>
        <time>2011-01-30T10:16:29Z</time>
      </trkpt>
      <trkpt lat="48.3176" lon="2.41532">
        <ele>96.75</ele>
        <time>2011-01-30T10:16:30Z</time>
      </trkpt>
      <trkpt lat="48.31755" lon="2.41532">
        <ele>94.83</ele>
        <time>2011-01-30T10:16:31Z</time>
      </trkpt>
      <trkpt lat="48.31748" lon="2.41532">
        <ele>92.9</ele>
        <time>2011-01-30T10:16:32Z</time>
      </trkpt>
      <trkpt lat="48.31741" lon="2.41533">
        <ele>91.46</ele>
        <time>2011-01-30T10:16:33Z</time>
      </trkpt>
      <trkpt lat="48.31734" lon="2.41533">
        <ele>89.54</ele>
        <time>2011-01-30T10:16:34Z</time>
      </trkpt>
      <trkpt lat="48.31727" lon="2.41531">
        <ele>88.58</ele>
        <time>2011-01-30T10:16:35Z</time>
      </trkpt>
      <trkpt lat="48.3172" lon="2.41529">
        <ele>86.18</ele>
        <time>2011-01-30T10:16:36Z</time>
      </trkpt>
      <trkpt lat="48.31713" lon="2.41526">
        <ele>85.21</ele>
        <time>2011-01-30T10:16:37Z</time>
      </trkpt>
      <trkpt lat="48.31706" lon="2.41524">
        <ele>82.81</ele>
        <time>2011-01-30T10:16:38Z</time>
      </trkpt>
      <trkpt lat="48.31698" lon="2.41519">
        <ele>81.37</ele>
        <time>2011-01-30T10:16:39Z</time>
      </trkpt>
      <trkpt lat="48.31691" lon="2.41513">
        <ele>80.89</ele>
        <time>2011-01-30T10:16:40Z</time>
      </trkpt>
      <trkpt lat="48.31684" lon="2.41505">
        <ele>79.93</ele>
        <time>2011-01-30T10:16:41Z</time>
      </trkpt>
      <trkpt lat="48.31655" lon="2.41475">
        <ele>77.04</ele>
        <time>2011-01-30T10:16:45Z</time>
      </trkpt>
      <trkpt lat="48.31647" lon="2.4147">
        <ele>76.56</ele>
        <time>2011-01-30T10:16:46Z</time>
      </trkpt>
      <trkpt lat="48.31639" lon="2.41468">
        <ele>75.6</ele>
        <time>2011-01-30T10:16:47Z</time>
      </trkpt>
      <trkpt lat="48.31632" lon="2.41468">
        <ele>75.6</ele>
        <time>2011-01-30T10:16:48Z</time>
      </trkpt>
      <trkpt lat="48.31625" lon="2.4147">
        <ele>74.64</ele>
        <time>2011-01-30T10:16:49Z</time>
      </trkpt>
      <trkpt lat="48.31618" lon="2.41474">
        <ele>73.2</ele>
        <time>2011-01-30T10:16:50Z</time>
      </trkpt>
      <trkpt lat="48.3161" lon="2.41476">
        <ele>72.72</ele>
        <time>2011-01-30T10:16:51Z</time>
      </trkpt>
      <trkpt lat="48.31604" lon="2.41478">
        <ele>72.24</ele>
        <time>2011-01-30T10:16:52Z</time>
      </trkpt>
      <trkpt lat="48.31597" lon="2.41479">
        <ele>72.24</ele>
        <time>2011-01-30T10:16:53Z</time>
      </trkpt>
      <trkpt lat="48.31592" lon="2.41479">
        <ele>71.76</ele>
        <time>2011-01-30T10:16:54Z</time>
      </trkpt>
      <trkpt lat="48.31587" lon="2.41481">
        <ele>71.27</ele>
        <time>2011-01-30T10:16:55Z</time>
      </trkpt>
      <trkpt lat="48.31584" lon="2.41482">
        <ele>71.76</ele>
        <time>2011-01-30T10:16:56Z</time>
      </trkpt>
      <trkpt lat="48.31581" lon="2.41483">
        <ele>71.27</ele>
        <time>2011-01-30T10:16:57Z</time>
      </trkpt>
      <trkpt lat="48.31578" lon="2.41485">
        <ele>71.27</ele>
        <time>2011-01-30T10:16:58Z</time>
      </trkpt>
      <trkpt lat="48.31577" lon="2.41488">
        <ele>71.27</ele>
        <time>2011-01-30T10:16:59Z</time>
      </trkpt>
      <trkpt lat="48.31576" lon="2.41493">
        <ele>71.27</ele>
        <time>2011-01-30T10:17:00Z</time>
      </trkpt>
      <trkpt lat="48.31577" lon="2.41498">
        <ele>71.27</ele>
        <time>2011-01-30T10:17:01Z</time>
      </trkpt>
      <trkpt lat="48.31578" lon="2.41503">
        <ele>70.79</ele>
        <time>2011-01-30T10:17:02Z</time>
      </trkpt>
      <trkpt lat="48.31579" lon="2.41508">
        <ele>70.79</ele>
        <time>2011-01-30T10:17:03Z</time>
      </trkpt>
      <trkpt lat="48.3158" lon="2.41514">
        <ele>70.79</ele>
        <time>2011-01-30T10:17:04Z</time>
      </trkpt>
      <trkpt lat="48.3158" lon="2.41519">
        <ele>70.31</ele>
        <time>2011-01-30T10:17:05Z</time>
      </trkpt>
      <trkpt lat="48.31581" lon="2.41525">
        <ele>70.31</ele>
        <time>2011-01-30T10:17:06Z</time>
      </trkpt>
      <trkpt lat="48.31582" lon="2.41551">
        <ele>69.83</ele>
        <time>2011-01-30T10:17:12Z</time>
      </trkpt>
      <trkpt lat="48.31583" lon="2.41552">
        <ele>69.83</ele>
        <time>2011-01-30T10:17:13Z</time>
      </trkpt>
      <trkpt lat="48.31583" lon="2.41554">
        <ele>70.31</ele>
        <time>2011-01-30T10:17:14Z</time>
      </trkpt>
      <trkpt lat="48.31583" lon="2.41556">
        <ele>70.31</ele>
        <time>2011-01-30T10:17:15Z</time>
      </trkpt>
      <trkpt lat="48.31582" lon="2.41558">
        <ele>69.83</ele>
        <time>2011-01-30T10:17:16Z</time>
      </trkpt>
      <trkpt lat="48.31581" lon="2.41561">
        <ele>69.83</ele>
        <time>2011-01-30T10:17:17Z</time>
      </trkpt>
      <trkpt lat="48.3158" lon="2.41564">
        <ele>69.83</ele>
        <time>2011-01-30T10:17:18Z</time>
      </trkpt>
      <trkpt lat="48.31579" lon="2.41568">
        <ele>69.35</ele>
        <time>2011-01-30T10:17:19Z</time>
      </trkpt>
      <trkpt lat="48.31577" lon="2.41571">
        <ele>69.35</ele>
        <time>2011-01-30T10:17:20Z</time>
      </trkpt>
      <trkpt lat="48.31573" lon="2.41625">
        <ele>68.87</ele>
        <time>2011-01-30T10:17:30Z</time>
      </trkpt>
      <trkpt lat="48.3159" lon="2.41719">
        <ele>68.87</ele>
        <time>2011-01-30T10:17:45Z</time>
      </trkpt>
      <trkpt lat="48.31602" lon="2.41822">
        <ele>69.83</ele>
        <time>2011-01-30T10:18:02Z</time>
      </trkpt>
      <trkpt lat="48.31602" lon="2.41828">
        <ele>69.83</ele>
        <time>2011-01-30T10:18:03Z</time>
      </trkpt>
      <trkpt lat="48.31599" lon="2.41832">
        <ele>69.83</ele>
        <time>2011-01-30T10:18:04Z</time>
      </trkpt>
      <trkpt lat="48.31596" lon="2.41835">
        <ele>69.83</ele>
        <time>2011-01-30T10:18:05Z</time>
      </trkpt>
      <trkpt lat="48.31592" lon="2.41836">
        <ele>69.35</ele>
        <time>2011-01-30T10:18:06Z</time>
      </trkpt>
      <trkpt lat="48.31588" lon="2.41836">
        <ele>69.83</ele>
        <time>2011-01-30T10:18:07Z</time>
      </trkpt>
      <trkpt lat="48.31579" lon="2.41838">
        <ele>69.35</ele>
        <time>2011-01-30T10:18:09Z</time>
      </trkpt>
      <trkpt lat="48.31557" lon="2.41843">
        <ele>68.39</ele>
        <time>2011-01-30T10:18:14Z</time>
      </trkpt>
      <trkpt lat="48.31553" lon="2.41845">
        <ele>68.39</ele>
        <time>2011-01-30T10:18:15Z</time>
      </trkpt>
      <trkpt lat="48.31548" lon="2.41847">
        <ele>67.91</ele>
        <time>2011-01-30T10:18:16Z</time>
      </trkpt>
      <trkpt lat="48.31519" lon="2.41856">
        <ele>66.95</ele>
        <time>2011-01-30T10:18:22Z</time>
      </trkpt>
      <trkpt lat="48.31514" lon="2.41858">
        <ele>66.95</ele>
        <time>2011-01-30T10:18:23Z</time>
      </trkpt>
      <trkpt lat="48.31491" lon="2.41865">
        <ele>66.95</ele>
        <time>2011-01-30T10:18:28Z</time>
      </trkpt>
      <trkpt lat="48.31487" lon="2.41865">
        <ele>67.43</ele>
        <time>2011-01-30T10:18:29Z</time>
      </trkpt>
      <trkpt lat="48.31482" lon="2.41864">
        <ele>66.95</ele>
        <time>2011-01-30T10:18:30Z</time>
      </trkpt>
      <trkpt lat="48.31469" lon="2.41859">
        <ele>66.95</ele>
        <time>2011-01-30T10:18:33Z</time>
      </trkpt>
      <trkpt lat="48.31464" lon="2.41858">
        <ele>66.95</ele>
        <time>2011-01-30T10:18:34Z</time>
      </trkpt>
      <trkpt lat="48.3146" lon="2.41858">
        <ele>66.95</ele>
        <time>2011-01-30T10:18:35Z</time>
      </trkpt>
      <trkpt lat="48.31386" lon="2.41873">
        <ele>65.99</ele>
        <time>2011-01-30T10:18:50Z</time>
      </trkpt>
      <trkpt lat="48.31375" lon="2.41872">
        <ele>66.47</ele>
        <time>2011-01-30T10:18:52Z</time>
      </trkpt>
      <trkpt lat="48.31365" lon="2.41869">
        <ele>66.47</ele>
        <time>2011-01-30T10:18:54Z</time>
      </trkpt>
      <trkpt lat="48.31328" lon="2.41846">
        <ele>66.95</ele>
        <time>2011-01-30T10:19:02Z</time>
      </trkpt>
      <trkpt lat="48.31306" lon="2.41833">
        <ele>66.47</ele>
        <time>2011-01-30T10:19:07Z</time>
      </trkpt>
      <trkpt lat="48.31302" lon="2.41829">
        <ele>66.47</ele>
        <time>2011-01-30T10:19:08Z</time>
      </trkpt>
      <trkpt lat="48.31255" lon="2.41773">
        <ele>66.47</ele>
        <time>2011-01-30T10:19:21Z</time>
      </trkpt>
      <trkpt lat="48.31251" lon="2.41772">
        <ele>66.47</ele>
        <time>2011-01-30T10:19:22Z</time>
      </trkpt>
      <trkpt lat="48.31232" lon="2.41772">
        <ele>66.47</ele>
        <time>2011-01-30T10:19:26Z</time>
      </trkpt>
      <trkpt lat="48.31219" lon="2.41775">
        <ele>65.99</ele>
        <time>2011-01-30T10:19:29Z</time>
      </trkpt>
      <trkpt lat="48.31215" lon="2.41773">
        <ele>65.99</ele>
        <time>2011-01-30T10:19:30Z</time>
      </trkpt>
      <trkpt lat="48.31211" lon="2.4177">
        <ele>65.99</ele>
        <time>2011-01-30T10:19:31Z</time>
      </trkpt>
      <trkpt lat="48.31209" lon="2.41765">
        <ele>65.51</ele>
        <time>2011-01-30T10:19:32Z</time>
      </trkpt>
      <trkpt lat="48.31208" lon="2.41759">
        <ele>65.99</ele>
        <time>2011-01-30T10:19:33Z</time>
      </trkpt>
      <trkpt lat="48.31209" lon="2.41752">
        <ele>65.51</ele>
        <time>2011-01-30T10:19:34Z</time>
      </trkpt>
      <trkpt lat="48.31211" lon="2.41746">
        <ele>65.99</ele>
        <time>2011-01-30T10:19:35Z</time>
      </trkpt>
      <trkpt lat="48.31212" lon="2.41734">
        <ele>66.47</ele>
        <time>2011-01-30T10:19:37Z</time>
      </trkpt>
      <trkpt lat="48.31211" lon="2.41729">
        <ele>65.99</ele>
        <time>2011-01-30T10:19:38Z</time>
      </trkpt>
      <trkpt lat="48.31206" lon="2.41711">
        <ele>65.51</ele>
        <time>2011-01-30T10:19:41Z</time>
      </trkpt>
      <trkpt lat="48.31199" lon="2.41695">
        <ele>65.51</ele>
        <time>2011-01-30T10:19:44Z</time>
      </trkpt>
      <trkpt lat="48.31151" lon="2.41607">
        <ele>64.55</ele>
        <time>2011-01-30T10:20:00Z</time>
      </trkpt>
      <trkpt lat="48.31105" lon="2.41525">
        <ele>64.07</ele>
        <time>2011-01-30T10:20:14Z</time>
      </trkpt>
      <trkpt lat="48.31063" lon="2.41448">
        <ele>64.07</ele>
        <time>2011-01-30T10:20:25Z</time>
      </trkpt>
      <trkpt lat="48.31052" lon="2.41431">
        <ele>64.07</ele>
        <time>2011-01-30T10:20:28Z</time>
      </trkpt>
      <trkpt lat="48.31031" lon="2.41396">
        <ele>63.58</ele>
        <time>2011-01-30T10:20:34Z</time>
      </trkpt>
      <trkpt lat="48.31018" lon="2.41367">
        <ele>64.07</ele>
        <time>2011-01-30T10:20:39Z</time>
      </trkpt>
      <trkpt lat="48.30988" lon="2.41277">
        <ele>63.58</ele>
        <time>2011-01-30T10:20:52Z</time>
      </trkpt>
      <trkpt lat="48.30982" lon="2.41259">
        <ele>63.58</ele>
        <time>2011-01-30T10:20:55Z</time>
      </trkpt>
      <trkpt lat="48.30952" lon="2.41164">
        <ele>63.58</ele>
        <time>2011-01-30T10:21:09Z</time>
      </trkpt>
      <trkpt lat="48.3093" lon="2.41095">
        <ele>64.07</ele>
        <time>2011-01-30T10:21:20Z</time>
      </trkpt>
      <trkpt lat="48.30928" lon="2.41088">
        <ele>63.58</ele>
        <time>2011-01-30T10:21:21Z</time>
      </trkpt>
      <trkpt lat="48.30915" lon="2.41053">
        <ele>63.58</ele>
        <time>2011-01-30T10:21:26Z</time>
      </trkpt>
      <trkpt lat="48.30913" lon="2.41046">
        <ele>63.58</ele>
        <time>2011-01-30T10:21:27Z</time>
      </trkpt>
      <trkpt lat="48.30896" lon="2.40996">
        <ele>63.58</ele>
        <time>2011-01-30T10:21:34Z</time>
      </trkpt>
      <trkpt lat="48.30894" lon="2.40989">
        <ele>63.1</ele>
        <time>2011-01-30T10:21:35Z</time>
      </trkpt>
      <trkpt lat="48.3089" lon="2.40975">
        <ele>63.58</ele>
        <time>2011-01-30T10:21:37Z</time>
      </trkpt>
      <trkpt lat="48.30887" lon="2.40969">
        <ele>63.58</ele>
        <time>2011-01-30T10:21:38Z</time>
      </trkpt>
      <trkpt lat="48.30874" lon="2.40917">
        <ele>64.07</ele>
        <time>2011-01-30T10:21:48Z</time>
      </trkpt>
      <trkpt lat="48.30858" lon="2.40844">
        <ele>67.43</ele>
        <time>2011-01-30T10:22:03Z</time>
      </trkpt>
      <trkpt lat="48.30855" lon="2.4084">
        <ele>67.43</ele>
        <time>2011-01-30T10:22:05Z</time>
      </trkpt>
      <trkpt lat="48.30854" lon="2.40839">
        <ele>67.43</ele>
        <time>2011-01-30T10:22:06Z</time>
      </trkpt>
      <trkpt lat="48.30852" lon="2.40839">
        <ele>67.91</ele>
        <time>2011-01-30T10:22:07Z</time>
      </trkpt>
      <trkpt lat="48.3085" lon="2.4084">
        <ele>68.39</ele>
        <time>2011-01-30T10:22:08Z</time>
      </trkpt>
      <trkpt lat="48.30849" lon="2.4084">
        <ele>67.91</ele>
        <time>2011-01-30T10:22:09Z</time>
      </trkpt>
      <trkpt lat="48.30847" lon="2.40841">
        <ele>68.39</ele>
        <time>2011-01-30T10:22:10Z</time>
      </trkpt>
      <trkpt lat="48.30824" lon="2.40849">
        <ele>67.91</ele>
        <time>2011-01-30T10:22:22Z</time>
      </trkpt>
      <trkpt lat="48.30788" lon="2.40849">
        <ele>67.91</ele>
        <time>2011-01-30T10:22:35Z</time>
      </trkpt>
      <trkpt lat="48.30742" lon="2.40865">
        <ele>66.95</ele>
        <time>2011-01-30T10:22:49Z</time>
      </trkpt>
      <trkpt lat="48.30689" lon="2.40859">
        <ele>69.35</ele>
        <time>2011-01-30T10:23:05Z</time>
      </trkpt>
      <trkpt lat="48.30657" lon="2.4084">
        <ele>71.76</ele>
        <time>2011-01-30T10:23:18Z</time>
      </trkpt>
      <trkpt lat="48.30643" lon="2.4085">
        <ele>71.27</ele>
        <time>2011-01-30T10:23:29Z</time>
      </trkpt>
      <trkpt lat="48.30642" lon="2.40852">
        <ele>71.27</ele>
        <time>2011-01-30T10:23:38Z</time>
      </trkpt>
      <trkpt lat="48.30641" lon="2.40854">
        <ele>70.79</ele>
        <time>2011-01-30T10:23:39Z</time>
      </trkpt>
      <trkpt lat="48.30639" lon="2.40856">
        <ele>70.79</ele>
        <time>2011-01-30T10:23:40Z</time>
      </trkpt>
      <trkpt lat="48.30604" lon="2.40896">
        <ele>69.83</ele>
        <time>2011-01-30T10:23:53Z</time>
      </trkpt>
      <trkpt lat="48.30578" lon="2.40925">
        <ele>68.87</ele>
        <time>2011-01-30T10:24:01Z</time>
      </trkpt>
      <trkpt lat="48.30573" lon="2.4093">
        <ele>68.39</ele>
        <time>2011-01-30T10:24:02Z</time>
      </trkpt>
      <trkpt lat="48.30569" lon="2.40935">
        <ele>68.39</ele>
        <time>2011-01-30T10:24:03Z</time>
      </trkpt>
      <trkpt lat="48.30564" lon="2.40941">
        <ele>67.91</ele>
        <time>2011-01-30T10:24:04Z</time>
      </trkpt>
      <trkpt lat="48.30558" lon="2.40946">
        <ele>68.39</ele>
        <time>2011-01-30T10:24:05Z</time>
      </trkpt>
      <trkpt lat="48.30552" lon="2.4095">
        <ele>68.87</ele>
        <time>2011-01-30T10:24:06Z</time>
      </trkpt>
      <trkpt lat="48.30546" lon="2.40953">
        <ele>70.31</ele>
        <time>2011-01-30T10:24:07Z</time>
      </trkpt>
      <trkpt lat="48.30541" lon="2.40954">
        <ele>71.27</ele>
        <time>2011-01-30T10:24:08Z</time>
      </trkpt>
      <trkpt lat="48.30535" lon="2.40954">
        <ele>72.24</ele>
        <time>2011-01-30T10:24:09Z</time>
      </trkpt>
      <trkpt lat="48.30524" lon="2.40959">
        <ele>74.16</ele>
        <time>2011-01-30T10:24:12Z</time>
      </trkpt>
      <trkpt lat="48.30513" lon="2.40961">
        <ele>76.08</ele>
        <time>2011-01-30T10:24:17Z</time>
      </trkpt>
      <trkpt lat="48.30511" lon="2.40962">
        <ele>77.04</ele>
        <time>2011-01-30T10:24:18Z</time>
      </trkpt>
      <trkpt lat="48.30509" lon="2.40964">
        <ele>77.04</ele>
        <time>2011-01-30T10:24:19Z</time>
      </trkpt>
      <trkpt lat="48.30508" lon="2.40965">
        <ele>77.52</ele>
        <time>2011-01-30T10:24:20Z</time>
      </trkpt>
      <trkpt lat="48.30506" lon="2.40966">
        <ele>77.52</ele>
        <time>2011-01-30T10:24:21Z</time>
      </trkpt>
      <trkpt lat="48.30504" lon="2.40965">
        <ele>78</ele>
        <time>2011-01-30T10:24:22Z</time>
      </trkpt>
      <trkpt lat="48.30502" lon="2.40965">
        <ele>78</ele>
        <time>2011-01-30T10:24:23Z</time>
      </trkpt>
      <trkpt lat="48.30501" lon="2.40965">
        <ele>78</ele>
        <time>2011-01-30T10:24:24Z</time>
      </trkpt>
      <trkpt lat="48.30482" lon="2.40972">
        <ele>80.89</ele>
        <time>2011-01-30T10:24:37Z</time>
      </trkpt>
      <trkpt lat="48.30463" lon="2.40981">
        <ele>84.25</ele>
        <time>2011-01-30T10:24:52Z</time>
      </trkpt>
      <trkpt lat="48.30454" lon="2.40994">
        <ele>87.62</ele>
        <time>2011-01-30T10:25:03Z</time>
      </trkpt>
      <trkpt lat="48.30451" lon="2.41006">
        <ele>89.54</ele>
        <time>2011-01-30T10:25:10Z</time>
      </trkpt>
      <trkpt lat="48.30451" lon="2.41008">
        <ele>90.02</ele>
        <time>2011-01-30T10:25:11Z</time>
      </trkpt>
      <trkpt lat="48.30451" lon="2.4101">
        <ele>89.54</ele>
        <time>2011-01-30T10:25:12Z</time>
      </trkpt>
      <trkpt lat="48.30452" lon="2.41012">
        <ele>90.02</ele>
        <time>2011-01-30T10:25:13Z</time>
      </trkpt>
      <trkpt lat="48.30452" lon="2.41014">
        <ele>90.02</ele>
        <time>2011-01-30T10:25:14Z</time>
      </trkpt>
      <trkpt lat="48.30453" lon="2.41016">
        <ele>90.5</ele>
        <time>2011-01-30T10:25:15Z</time>
      </trkpt>
      <trkpt lat="48.30453" lon="2.41018">
        <ele>90.98</ele>
        <time>2011-01-30T10:25:16Z</time>
      </trkpt>
      <trkpt lat="48.30452" lon="2.4102">
        <ele>90.98</ele>
        <time>2011-01-30T10:25:17Z</time>
      </trkpt>
      <trkpt lat="48.30453" lon="2.41022">
        <ele>91.46</ele>
        <time>2011-01-30T10:25:18Z</time>
      </trkpt>
      <trkpt lat="48.30453" lon="2.41027">
        <ele>91.94</ele>
        <time>2011-01-30T10:25:21Z</time>
      </trkpt>
      <trkpt lat="48.3045" lon="2.41029">
        <ele>92.9</ele>
        <time>2011-01-30T10:25:23Z</time>
      </trkpt>
      <trkpt lat="48.30449" lon="2.41029">
        <ele>92.9</ele>
        <time>2011-01-30T10:25:24Z</time>
      </trkpt>
      <trkpt lat="48.30447" lon="2.4103">
        <ele>93.39</ele>
        <time>2011-01-30T10:25:26Z</time>
      </trkpt>
      <trkpt lat="48.30446" lon="2.4103">
        <ele>93.39</ele>
        <time>2011-01-30T10:25:27Z</time>
      </trkpt>
      <trkpt lat="48.30428" lon="2.41034">
        <ele>95.79</ele>
        <time>2011-01-30T10:25:41Z</time>
      </trkpt>
      <trkpt lat="48.3042" lon="2.41036">
        <ele>96.27</ele>
        <time>2011-01-30T10:25:46Z</time>
      </trkpt>
      <trkpt lat="48.30419" lon="2.41036">
        <ele>96.27</ele>
        <time>2011-01-30T10:25:47Z</time>
      </trkpt>
      <trkpt lat="48.30418" lon="2.41037">
        <ele>96.75</ele>
        <time>2011-01-30T10:25:48Z</time>
      </trkpt>
      <trkpt lat="48.30416" lon="2.41037">
        <ele>96.27</ele>
        <time>2011-01-30T10:25:49Z</time>
      </trkpt>
      <trkpt lat="48.30415" lon="2.41038">
        <ele>96.75</ele>
        <time>2011-01-30T10:25:50Z</time>
      </trkpt>
      <trkpt lat="48.30413" lon="2.41039">
        <ele>97.23</ele>
        <time>2011-01-30T10:25:51Z</time>
      </trkpt>
      <trkpt lat="48.30412" lon="2.4104">
        <ele>97.23</ele>
        <time>2011-01-30T10:25:52Z</time>
      </trkpt>
      <trkpt lat="48.30394" lon="2.41042">
        <ele>99.63</ele>
        <time>2011-01-30T10:26:05Z</time>
      </trkpt>
      <trkpt lat="48.30386" lon="2.41044">
        <ele>101.08</ele>
        <time>2011-01-30T10:26:10Z</time>
      </trkpt>
      <trkpt lat="48.30385" lon="2.41044">
        <ele>101.56</ele>
        <time>2011-01-30T10:26:11Z</time>
      </trkpt>
      <trkpt lat="48.30384" lon="2.41044">
        <ele>101.56</ele>
        <time>2011-01-30T10:26:12Z</time>
      </trkpt>
      <trkpt lat="48.30382" lon="2.41044">
        <ele>101.08</ele>
        <time>2011-01-30T10:26:13Z</time>
      </trkpt>
      <trkpt lat="48.3038" lon="2.41045">
        <ele>101.56</ele>
        <time>2011-01-30T10:26:14Z</time>
      </trkpt>
      <trkpt lat="48.30379" lon="2.41045">
        <ele>102.04</ele>
        <time>2011-01-30T10:26:15Z</time>
      </trkpt>
      <trkpt lat="48.30355" lon="2.41047">
        <ele>104.44</ele>
        <time>2011-01-30T10:26:29Z</time>
      </trkpt>
      <trkpt lat="48.30335" lon="2.41059">
        <ele>104.44</ele>
        <time>2011-01-30T10:26:42Z</time>
      </trkpt>
      <trkpt lat="48.30292" lon="2.41095">
        <ele>104.44</ele>
        <time>2011-01-30T10:26:58Z</time>
      </trkpt>
      <trkpt lat="48.30239" lon="2.41141">
        <ele>102.52</ele>
        <time>2011-01-30T10:27:13Z</time>
      </trkpt>
      <trkpt lat="48.30175" lon="2.41194">
        <ele>100.6</ele>
        <time>2011-01-30T10:27:28Z</time>
      </trkpt>
      <trkpt lat="48.30157" lon="2.41207">
        <ele>99.63</ele>
        <time>2011-01-30T10:27:34Z</time>
      </trkpt>
      <trkpt lat="48.30155" lon="2.41211">
        <ele>99.15</ele>
        <time>2011-01-30T10:27:35Z</time>
      </trkpt>
      <trkpt lat="48.30152" lon="2.4123">
        <ele>99.15</ele>
        <time>2011-01-30T10:27:38Z</time>
      </trkpt>
      <trkpt lat="48.30151" lon="2.41236">
        <ele>98.19</ele>
        <time>2011-01-30T10:27:39Z</time>
      </trkpt>
      <trkpt lat="48.30148" lon="2.41242">
        <ele>98.19</ele>
        <time>2011-01-30T10:27:40Z</time>
      </trkpt>
      <trkpt lat="48.30145" lon="2.41248">
        <ele>97.71</ele>
        <time>2011-01-30T10:27:41Z</time>
      </trkpt>
      <trkpt lat="48.30142" lon="2.41254">
        <ele>97.23</ele>
        <time>2011-01-30T10:27:42Z</time>
      </trkpt>
      <trkpt lat="48.30139" lon="2.41261">
        <ele>96.75</ele>
        <time>2011-01-30T10:27:43Z</time>
      </trkpt>
      <trkpt lat="48.30131" lon="2.41273">
        <ele>95.79</ele>
        <time>2011-01-30T10:27:45Z</time>
      </trkpt>
      <trkpt lat="48.30127" lon="2.41277">
        <ele>95.79</ele>
        <time>2011-01-30T10:27:46Z</time>
      </trkpt>
      <trkpt lat="48.30107" lon="2.41289">
        <ele>91.94</ele>
        <time>2011-01-30T10:27:50Z</time>
      </trkpt>
      <trkpt lat="48.3008" lon="2.41305">
        <ele>89.06</ele>
        <time>2011-01-30T10:27:54Z</time>
      </trkpt>
      <trkpt lat="48.30056" lon="2.41318">
        <ele>85.69</ele>
        <time>2011-01-30T10:27:57Z</time>
      </trkpt>
      <trkpt lat="48.30032" lon="2.41331">
        <ele>81.85</ele>
        <time>2011-01-30T10:28:00Z</time>
      </trkpt>
      <trkpt lat="48.30002" lon="2.41347">
        <ele>78</ele>
        <time>2011-01-30T10:28:04Z</time>
      </trkpt>
      <trkpt lat="48.29989" lon="2.41363">
        <ele>75.12</ele>
        <time>2011-01-30T10:28:08Z</time>
      </trkpt>
      <trkpt lat="48.29988" lon="2.4137">
        <ele>74.16</ele>
        <time>2011-01-30T10:28:09Z</time>
      </trkpt>
      <trkpt lat="48.29987" lon="2.41379">
        <ele>72.72</ele>
        <time>2011-01-30T10:28:10Z</time>
      </trkpt>
      <trkpt lat="48.29986" lon="2.4139">
        <ele>72.24</ele>
        <time>2011-01-30T10:28:11Z</time>
      </trkpt>
      <trkpt lat="48.29985" lon="2.41398">
        <ele>72.24</ele>
        <time>2011-01-30T10:28:12Z</time>
      </trkpt>
      <trkpt lat="48.29982" lon="2.41404">
        <ele>71.76</ele>
        <time>2011-01-30T10:28:13Z</time>
      </trkpt>
      <trkpt lat="48.29973" lon="2.414">
        <ele>68.87</ele>
        <time>2011-01-30T10:28:16Z</time>
      </trkpt>
      <trkpt lat="48.29971" lon="2.41395">
        <ele>69.35</ele>
        <time>2011-01-30T10:28:17Z</time>
      </trkpt>
      <trkpt lat="48.29971" lon="2.41389">
        <ele>69.35</ele>
        <time>2011-01-30T10:28:18Z</time>
      </trkpt>
      <trkpt lat="48.29971" lon="2.41383">
        <ele>69.83</ele>
        <time>2011-01-30T10:28:19Z</time>
      </trkpt>
      <trkpt lat="48.29965" lon="2.41325">
        <ele>70.79</ele>
        <time>2011-01-30T10:28:33Z</time>
      </trkpt>
      <trkpt lat="48.29964" lon="2.41308">
        <ele>71.27</ele>
        <time>2011-01-30T10:28:38Z</time>
      </trkpt>
      <trkpt lat="48.29964" lon="2.41304">
        <ele>71.27</ele>
        <time>2011-01-30T10:28:39Z</time>
      </trkpt>
      <trkpt lat="48.29963" lon="2.41301">
        <ele>71.27</ele>
        <time>2011-01-30T10:28:40Z</time>
      </trkpt>
      <trkpt lat="48.29963" lon="2.41298">
        <ele>71.76</ele>
        <time>2011-01-30T10:28:41Z</time>
      </trkpt>
      <trkpt lat="48.29963" lon="2.41295">
        <ele>71.76</ele>
        <time>2011-01-30T10:28:42Z</time>
      </trkpt>
      <trkpt lat="48.29963" lon="2.4126">
        <ele>72.24</ele>
        <time>2011-01-30T10:28:54Z</time>
      </trkpt>
      <trkpt lat="48.29963" lon="2.41257">
        <ele>72.72</ele>
        <time>2011-01-30T10:28:55Z</time>
      </trkpt>
      <trkpt lat="48.29963" lon="2.41254">
        <ele>72.72</ele>
        <time>2011-01-30T10:28:56Z</time>
      </trkpt>
      <trkpt lat="48.29963" lon="2.41202">
        <ele>75.12</ele>
        <time>2011-01-30T10:29:09Z</time>
      </trkpt>
      <trkpt lat="48.29962" lon="2.41168">
        <ele>77.04</ele>
        <time>2011-01-30T10:29:16Z</time>
      </trkpt>
      <trkpt lat="48.29958" lon="2.41118">
        <ele>79.45</ele>
        <time>2011-01-30T10:29:29Z</time>
      </trkpt>
      <trkpt lat="48.29958" lon="2.4108">
        <ele>81.37</ele>
        <time>2011-01-30T10:29:40Z</time>
      </trkpt>
      <trkpt lat="48.29955" lon="2.41019">
        <ele>84.25</ele>
        <time>2011-01-30T10:29:57Z</time>
      </trkpt>
      <trkpt lat="48.29952" lon="2.40972">
        <ele>84.73</ele>
        <time>2011-01-30T10:30:09Z</time>
      </trkpt>
      <trkpt lat="48.29949" lon="2.40925">
        <ele>87.14</ele>
        <time>2011-01-30T10:30:21Z</time>
      </trkpt>
      <trkpt lat="48.29944" lon="2.40872">
        <ele>88.58</ele>
        <time>2011-01-30T10:30:36Z</time>
      </trkpt>
      <trkpt lat="48.29941" lon="2.40825">
        <ele>89.54</ele>
        <time>2011-01-30T10:30:49Z</time>
      </trkpt>
      <trkpt lat="48.29935" lon="2.40785">
        <ele>91.46</ele>
        <time>2011-01-30T10:31:02Z</time>
      </trkpt>
      <trkpt lat="48.29932" lon="2.40758">
        <ele>94.35</ele>
        <time>2011-01-30T10:31:13Z</time>
      </trkpt>
      <trkpt lat="48.29932" lon="2.40756">
        <ele>94.35</ele>
        <time>2011-01-30T10:31:14Z</time>
      </trkpt>
      <trkpt lat="48.29932" lon="2.40755">
        <ele>95.31</ele>
        <time>2011-01-30T10:31:15Z</time>
      </trkpt>
      <trkpt lat="48.29932" lon="2.40753">
        <ele>95.31</ele>
        <time>2011-01-30T10:31:16Z</time>
      </trkpt>
      <trkpt lat="48.29934" lon="2.40753">
        <ele>95.79</ele>
        <time>2011-01-30T10:31:32Z</time>
      </trkpt>
      <trkpt lat="48.29935" lon="2.40745">
        <ele>96.27</ele>
        <time>2011-01-30T10:31:58Z</time>
      </trkpt>
      <trkpt lat="48.29931" lon="2.40722">
        <ele>94.35</ele>
        <time>2011-01-30T10:32:06Z</time>
      </trkpt>
      <trkpt lat="48.29928" lon="2.4072">
        <ele>94.35</ele>
        <time>2011-01-30T10:32:07Z</time>
      </trkpt>
      <trkpt lat="48.29926" lon="2.40721">
        <ele>93.87</ele>
        <time>2011-01-30T10:32:08Z</time>
      </trkpt>
      <trkpt lat="48.29925" lon="2.40724">
        <ele>94.35</ele>
        <time>2011-01-30T10:32:09Z</time>
      </trkpt>
      <trkpt lat="48.29924" lon="2.40728">
        <ele>93.87</ele>
        <time>2011-01-30T10:32:10Z</time>
      </trkpt>
      <trkpt lat="48.29922" lon="2.40732">
        <ele>93.87</ele>
        <time>2011-01-30T10:32:11Z</time>
      </trkpt>
      <trkpt lat="48.2992" lon="2.40734">
        <ele>94.83</ele>
        <time>2011-01-30T10:32:12Z</time>
      </trkpt>
      <trkpt lat="48.29918" lon="2.40737">
        <ele>94.35</ele>
        <time>2011-01-30T10:32:13Z</time>
      </trkpt>
      <trkpt lat="48.2992" lon="2.40738">
        <ele>94.35</ele>
        <time>2011-01-30T10:32:17Z</time>
      </trkpt>
      <trkpt lat="48.29922" lon="2.40736">
        <ele>94.35</ele>
        <time>2011-01-30T10:32:18Z</time>
      </trkpt>
      <trkpt lat="48.29923" lon="2.40734">
        <ele>94.35</ele>
        <time>2011-01-30T10:32:19Z</time>
      </trkpt>
      <trkpt lat="48.29924" lon="2.4073">
        <ele>94.35</ele>
        <time>2011-01-30T10:32:20Z</time>
      </trkpt>
      <trkpt lat="48.29924" lon="2.40725">
        <ele>93.87</ele>
        <time>2011-01-30T10:32:21Z</time>
      </trkpt>
      <trkpt lat="48.29922" lon="2.40719">
        <ele>93.87</ele>
        <time>2011-01-30T10:32:22Z</time>
      </trkpt>
      <trkpt lat="48.29921" lon="2.40713">
        <ele>93.87</ele>
        <time>2011-01-30T10:32:23Z</time>
      </trkpt>
      <trkpt lat="48.29917" lon="2.40659">
        <ele>94.83</ele>
        <time>2011-01-30T10:32:34Z</time>
      </trkpt>
      <trkpt lat="48.29918" lon="2.40649">
        <ele>94.83</ele>
        <time>2011-01-30T10:32:37Z</time>
      </trkpt>
      <trkpt lat="48.29917" lon="2.40645">
        <ele>95.31</ele>
        <time>2011-01-30T10:32:38Z</time>
      </trkpt>
      <trkpt lat="48.29917" lon="2.40641">
        <ele>94.83</ele>
        <time>2011-01-30T10:32:39Z</time>
      </trkpt>
      <trkpt lat="48.29906" lon="2.40581">
        <ele>95.79</ele>
        <time>2011-01-30T10:32:54Z</time>
      </trkpt>
      <trkpt lat="48.29898" lon="2.40514">
        <ele>97.23</ele>
        <time>2011-01-30T10:33:09Z</time>
      </trkpt>
      <trkpt lat="48.29885" lon="2.40465">
        <ele>98.19</ele>
        <time>2011-01-30T10:33:21Z</time>
      </trkpt>
      <trkpt lat="48.29863" lon="2.40406">
        <ele>99.63</ele>
        <time>2011-01-30T10:33:36Z</time>
      </trkpt>
      <trkpt lat="48.29852" lon="2.40362">
        <ele>102.04</ele>
        <time>2011-01-30T10:33:45Z</time>
      </trkpt>
      <trkpt lat="48.29851" lon="2.40355">
        <ele>102.04</ele>
        <time>2011-01-30T10:33:46Z</time>
      </trkpt>
      <trkpt lat="48.29848" lon="2.40323">
        <ele>103.96</ele>
        <time>2011-01-30T10:33:51Z</time>
      </trkpt>
      <trkpt lat="48.29851" lon="2.40296">
        <ele>106.36</ele>
        <time>2011-01-30T10:33:56Z</time>
      </trkpt>
      <trkpt lat="48.29845" lon="2.40251">
        <ele>108.29</ele>
        <time>2011-01-30T10:34:09Z</time>
      </trkpt>
      <trkpt lat="48.29829" lon="2.40198">
        <ele>109.25</ele>
        <time>2011-01-30T10:34:23Z</time>
      </trkpt>
      <trkpt lat="48.29823" lon="2.4014">
        <ele>111.17</ele>
        <time>2011-01-30T10:34:39Z</time>
      </trkpt>
      <trkpt lat="48.2981" lon="2.40094">
        <ele>112.13</ele>
        <time>2011-01-30T10:34:51Z</time>
      </trkpt>
      <trkpt lat="48.2978" lon="2.40071">
        <ele>112.13</ele>
        <time>2011-01-30T10:35:02Z</time>
      </trkpt>
      <trkpt lat="48.29775" lon="2.40066">
        <ele>112.13</ele>
        <time>2011-01-30T10:35:04Z</time>
      </trkpt>
      <trkpt lat="48.29774" lon="2.40063">
        <ele>112.13</ele>
        <time>2011-01-30T10:35:05Z</time>
      </trkpt>
      <trkpt lat="48.29772" lon="2.4006">
        <ele>112.61</ele>
        <time>2011-01-30T10:35:06Z</time>
      </trkpt>
      <trkpt lat="48.29762" lon="2.40042">
        <ele>112.61</ele>
        <time>2011-01-30T10:35:19Z</time>
      </trkpt>
      <trkpt lat="48.29762" lon="2.40042">
        <ele>113.09</ele>
        <time>2011-01-30T10:35:36Z</time>
      </trkpt>
      <trkpt lat="48.29762" lon="2.40042">
        <ele>113.57</ele>
        <time>2011-01-30T10:35:57Z</time>
      </trkpt>
    </trkseg>
  </trk>
</gpx>